<?xml version="1.0" encoding="UTF-8" standalone="no" ?>
<gpx xmlns="http://www.topografix.com/GPX/1/1" xmlns:xsi="http://www.w3.org/2001/XMLSchema-instance" xsi:schemaLocation="http://www.topografix.com/GPX/1/1 http://www.topografix.com/GPX/1/1/gpx.xsd" version="1.1" creator="VisuGPX - https://www.visugpx.com">
  <metadata>
    <name>GR20</name>
    <desc><![CDATA[GR20 - Juin 2015]]></desc>
  </metadata>
  <trk>
    <name><![CDATA[GR20 Conca - I Paliri]]></name>
    <trkseg>
      <trkpt lat="41.73958" lon="9.33156">
        <ele>328.8</ele>
        <time>2015-06-18T06:51:02Z</time>
      </trkpt>
      <trkpt lat="41.73957" lon="9.33156">
        <ele>328.8</ele>
        <time>2015-06-18T06:51:04Z</time>
      </trkpt>
      <trkpt lat="41.73957" lon="9.33158">
        <ele>329.4</ele>
        <time>2015-06-18T06:52:33Z</time>
      </trkpt>
      <trkpt lat="41.73961" lon="9.33156">
        <ele>330</ele>
        <time>2015-06-18T06:52:42Z</time>
      </trkpt>
      <trkpt lat="41.73964" lon="9.33154">
        <ele>331.2</ele>
        <time>2015-06-18T06:52:49Z</time>
      </trkpt>
      <trkpt lat="41.73967" lon="9.33151">
        <ele>331</ele>
        <time>2015-06-18T06:52:56Z</time>
      </trkpt>
      <trkpt lat="41.73971" lon="9.33148">
        <ele>332</ele>
        <time>2015-06-18T06:53:03Z</time>
      </trkpt>
      <trkpt lat="41.73975" lon="9.33147">
        <ele>332.8</ele>
        <time>2015-06-18T06:53:09Z</time>
      </trkpt>
      <trkpt lat="41.7399" lon="9.33136">
        <ele>334.8</ele>
        <time>2015-06-18T06:53:29Z</time>
      </trkpt>
      <trkpt lat="41.73992" lon="9.33133">
        <ele>334.8</ele>
        <time>2015-06-18T06:53:34Z</time>
      </trkpt>
      <trkpt lat="41.73974" lon="9.33148">
        <ele>334.4</ele>
        <time>2015-06-18T06:54:00Z</time>
      </trkpt>
      <trkpt lat="41.7397" lon="9.33151">
        <ele>333.6</ele>
        <time>2015-06-18T06:54:06Z</time>
      </trkpt>
      <trkpt lat="41.73967" lon="9.33153">
        <ele>332.8</ele>
        <time>2015-06-18T06:54:11Z</time>
      </trkpt>
      <trkpt lat="41.73962" lon="9.33156">
        <ele>331.4</ele>
        <time>2015-06-18T06:54:17Z</time>
      </trkpt>
      <trkpt lat="41.73955" lon="9.33156">
        <ele>330.4</ele>
        <time>2015-06-18T06:54:23Z</time>
      </trkpt>
      <trkpt lat="41.73954" lon="9.33155">
        <ele>330</ele>
        <time>2015-06-18T06:54:24Z</time>
      </trkpt>
      <trkpt lat="41.73941" lon="9.33145">
        <ele>329.6</ele>
        <time>2015-06-18T06:54:36Z</time>
      </trkpt>
      <trkpt lat="41.73939" lon="9.33142">
        <ele>330</ele>
        <time>2015-06-18T06:54:39Z</time>
      </trkpt>
      <trkpt lat="41.73938" lon="9.33138">
        <ele>330.4</ele>
        <time>2015-06-18T06:54:42Z</time>
      </trkpt>
      <trkpt lat="41.73936" lon="9.33135">
        <ele>330.8</ele>
        <time>2015-06-18T06:54:45Z</time>
      </trkpt>
      <trkpt lat="41.73934" lon="9.33125">
        <ele>331.8</ele>
        <time>2015-06-18T06:54:53Z</time>
      </trkpt>
      <trkpt lat="41.73933" lon="9.33113">
        <ele>332.6</ele>
        <time>2015-06-18T06:55:04Z</time>
      </trkpt>
      <trkpt lat="41.73933" lon="9.33111">
        <ele>332.8</ele>
        <time>2015-06-18T06:55:06Z</time>
      </trkpt>
      <trkpt lat="41.73936" lon="9.33098">
        <ele>333.8</ele>
        <time>2015-06-18T06:55:19Z</time>
      </trkpt>
      <trkpt lat="41.73941" lon="9.33086">
        <ele>334.8</ele>
        <time>2015-06-18T06:55:30Z</time>
      </trkpt>
      <trkpt lat="41.73944" lon="9.33078">
        <ele>335.4</ele>
        <time>2015-06-18T06:55:37Z</time>
      </trkpt>
      <trkpt lat="41.73945" lon="9.33071">
        <ele>336.4</ele>
        <time>2015-06-18T06:55:44Z</time>
      </trkpt>
      <trkpt lat="41.73946" lon="9.33062">
        <ele>337.6</ele>
        <time>2015-06-18T06:55:52Z</time>
      </trkpt>
      <trkpt lat="41.73946" lon="9.33054">
        <ele>338.4</ele>
        <time>2015-06-18T06:55:59Z</time>
      </trkpt>
      <trkpt lat="41.73948" lon="9.33045">
        <ele>339.6</ele>
        <time>2015-06-18T06:56:07Z</time>
      </trkpt>
      <trkpt lat="41.7395" lon="9.33039">
        <ele>341</ele>
        <time>2015-06-18T06:56:16Z</time>
      </trkpt>
      <trkpt lat="41.73954" lon="9.33034">
        <ele>341.6</ele>
        <time>2015-06-18T06:56:23Z</time>
      </trkpt>
      <trkpt lat="41.73955" lon="9.33034">
        <ele>341.8</ele>
        <time>2015-06-18T06:56:24Z</time>
      </trkpt>
      <trkpt lat="41.73959" lon="9.33029">
        <ele>342.8</ele>
        <time>2015-06-18T06:56:30Z</time>
      </trkpt>
      <trkpt lat="41.73961" lon="9.33024">
        <ele>343.6</ele>
        <time>2015-06-18T06:56:35Z</time>
      </trkpt>
      <trkpt lat="41.73965" lon="9.33021">
        <ele>344.6</ele>
        <time>2015-06-18T06:56:40Z</time>
      </trkpt>
      <trkpt lat="41.73971" lon="9.3302">
        <ele>346</ele>
        <time>2015-06-18T06:56:48Z</time>
      </trkpt>
      <trkpt lat="41.7398" lon="9.33021">
        <ele>347.6</ele>
        <time>2015-06-18T06:56:58Z</time>
      </trkpt>
      <trkpt lat="41.73992" lon="9.33026">
        <ele>348.4</ele>
        <time>2015-06-18T06:57:10Z</time>
      </trkpt>
      <trkpt lat="41.74002" lon="9.33028">
        <ele>349.4</ele>
        <time>2015-06-18T06:57:21Z</time>
      </trkpt>
      <trkpt lat="41.74009" lon="9.33028">
        <ele>350</ele>
        <time>2015-06-18T06:57:30Z</time>
      </trkpt>
      <trkpt lat="41.74018" lon="9.33023">
        <ele>351.6</ele>
        <time>2015-06-18T06:57:41Z</time>
      </trkpt>
      <trkpt lat="41.74028" lon="9.33018">
        <ele>352.4</ele>
        <time>2015-06-18T06:57:53Z</time>
      </trkpt>
      <trkpt lat="41.74037" lon="9.33016">
        <ele>353.2</ele>
        <time>2015-06-18T06:58:03Z</time>
      </trkpt>
      <trkpt lat="41.74044" lon="9.33013">
        <ele>354.2</ele>
        <time>2015-06-18T06:58:11Z</time>
      </trkpt>
      <trkpt lat="41.74051" lon="9.33012">
        <ele>355.2</ele>
        <time>2015-06-18T06:58:19Z</time>
      </trkpt>
      <trkpt lat="41.74054" lon="9.33011">
        <ele>356</ele>
        <time>2015-06-18T06:58:26Z</time>
      </trkpt>
      <trkpt lat="41.74059" lon="9.33011">
        <ele>357</ele>
        <time>2015-06-18T06:58:32Z</time>
      </trkpt>
      <trkpt lat="41.74061" lon="9.3301">
        <ele>357.2</ele>
        <time>2015-06-18T06:58:35Z</time>
      </trkpt>
      <trkpt lat="41.7407" lon="9.33006">
        <ele>358.6</ele>
        <time>2015-06-18T06:58:47Z</time>
      </trkpt>
      <trkpt lat="41.74078" lon="9.33003">
        <ele>359.2</ele>
        <time>2015-06-18T06:58:56Z</time>
      </trkpt>
      <trkpt lat="41.74085" lon="9.32997">
        <ele>360.2</ele>
        <time>2015-06-18T06:59:05Z</time>
      </trkpt>
      <trkpt lat="41.74092" lon="9.32996">
        <ele>361</ele>
        <time>2015-06-18T06:59:12Z</time>
      </trkpt>
      <trkpt lat="41.74099" lon="9.32996">
        <ele>362</ele>
        <time>2015-06-18T06:59:19Z</time>
      </trkpt>
      <trkpt lat="41.74105" lon="9.32991">
        <ele>363.2</ele>
        <time>2015-06-18T06:59:27Z</time>
      </trkpt>
      <trkpt lat="41.7411" lon="9.32987">
        <ele>364</ele>
        <time>2015-06-18T06:59:35Z</time>
      </trkpt>
      <trkpt lat="41.74114" lon="9.32982">
        <ele>365.2</ele>
        <time>2015-06-18T06:59:45Z</time>
      </trkpt>
      <trkpt lat="41.74117" lon="9.32981">
        <ele>366.2</ele>
        <time>2015-06-18T06:59:57Z</time>
      </trkpt>
      <trkpt lat="41.74121" lon="9.32976">
        <ele>366.8</ele>
        <time>2015-06-18T07:01:14Z</time>
      </trkpt>
      <trkpt lat="41.7412" lon="9.32977">
        <ele>367.4</ele>
        <time>2015-06-18T07:03:01Z</time>
      </trkpt>
      <trkpt lat="41.74126" lon="9.32979">
        <ele>366.2</ele>
        <time>2015-06-18T07:05:24Z</time>
      </trkpt>
      <trkpt lat="41.74129" lon="9.32981">
        <ele>365.6</ele>
        <time>2015-06-18T07:05:29Z</time>
      </trkpt>
      <trkpt lat="41.74139" lon="9.32979">
        <ele>363.4</ele>
        <time>2015-06-18T07:05:47Z</time>
      </trkpt>
      <trkpt lat="41.74145" lon="9.32977">
        <ele>362.6</ele>
        <time>2015-06-18T07:05:55Z</time>
      </trkpt>
      <trkpt lat="41.74157" lon="9.32979">
        <ele>361.6</ele>
        <time>2015-06-18T07:06:13Z</time>
      </trkpt>
      <trkpt lat="41.74159" lon="9.32979">
        <ele>361.8</ele>
        <time>2015-06-18T07:06:15Z</time>
      </trkpt>
      <trkpt lat="41.74162" lon="9.32979">
        <ele>361.8</ele>
        <time>2015-06-18T07:06:18Z</time>
      </trkpt>
      <trkpt lat="41.74164" lon="9.3298">
        <ele>362</ele>
        <time>2015-06-18T07:06:22Z</time>
      </trkpt>
      <trkpt lat="41.74169" lon="9.32978">
        <ele>362.8</ele>
        <time>2015-06-18T07:06:29Z</time>
      </trkpt>
      <trkpt lat="41.74171" lon="9.32975">
        <ele>364</ele>
        <time>2015-06-18T07:06:37Z</time>
      </trkpt>
      <trkpt lat="41.74176" lon="9.32974">
        <ele>365.2</ele>
        <time>2015-06-18T07:06:48Z</time>
      </trkpt>
      <trkpt lat="41.74177" lon="9.32974">
        <ele>366.2</ele>
        <time>2015-06-18T07:06:56Z</time>
      </trkpt>
      <trkpt lat="41.74181" lon="9.32976">
        <ele>367</ele>
        <time>2015-06-18T07:07:03Z</time>
      </trkpt>
      <trkpt lat="41.74185" lon="9.32975">
        <ele>368.2</ele>
        <time>2015-06-18T07:07:10Z</time>
      </trkpt>
      <trkpt lat="41.74188" lon="9.32973">
        <ele>369.6</ele>
        <time>2015-06-18T07:07:18Z</time>
      </trkpt>
      <trkpt lat="41.74191" lon="9.32972">
        <ele>370.2</ele>
        <time>2015-06-18T07:07:23Z</time>
      </trkpt>
      <trkpt lat="41.74195" lon="9.32971">
        <ele>371.6</ele>
        <time>2015-06-18T07:07:31Z</time>
      </trkpt>
      <trkpt lat="41.742" lon="9.32969">
        <ele>372.6</ele>
        <time>2015-06-18T07:07:41Z</time>
      </trkpt>
      <trkpt lat="41.74204" lon="9.32967">
        <ele>373.6</ele>
        <time>2015-06-18T07:07:48Z</time>
      </trkpt>
      <trkpt lat="41.74207" lon="9.32962">
        <ele>374.6</ele>
        <time>2015-06-18T07:07:57Z</time>
      </trkpt>
      <trkpt lat="41.74211" lon="9.32959">
        <ele>375.4</ele>
        <time>2015-06-18T07:08:04Z</time>
      </trkpt>
      <trkpt lat="41.74217" lon="9.32959">
        <ele>376.6</ele>
        <time>2015-06-18T07:08:15Z</time>
      </trkpt>
      <trkpt lat="41.74221" lon="9.32959">
        <ele>377.8</ele>
        <time>2015-06-18T07:08:23Z</time>
      </trkpt>
      <trkpt lat="41.74225" lon="9.32958">
        <ele>378.8</ele>
        <time>2015-06-18T07:08:32Z</time>
      </trkpt>
      <trkpt lat="41.74228" lon="9.32958">
        <ele>379.2</ele>
        <time>2015-06-18T07:08:36Z</time>
      </trkpt>
      <trkpt lat="41.74232" lon="9.32957">
        <ele>379.8</ele>
        <time>2015-06-18T07:08:41Z</time>
      </trkpt>
      <trkpt lat="41.74235" lon="9.32955">
        <ele>380.8</ele>
        <time>2015-06-18T07:08:48Z</time>
      </trkpt>
      <trkpt lat="41.7424" lon="9.3296">
        <ele>381.8</ele>
        <time>2015-06-18T07:08:56Z</time>
      </trkpt>
      <trkpt lat="41.74242" lon="9.3296">
        <ele>382.8</ele>
        <time>2015-06-18T07:09:03Z</time>
      </trkpt>
      <trkpt lat="41.74247" lon="9.3296">
        <ele>384.2</ele>
        <time>2015-06-18T07:09:14Z</time>
      </trkpt>
      <trkpt lat="41.74249" lon="9.32962">
        <ele>384.8</ele>
        <time>2015-06-18T07:09:21Z</time>
      </trkpt>
      <trkpt lat="41.74252" lon="9.32967">
        <ele>386</ele>
        <time>2015-06-18T07:09:29Z</time>
      </trkpt>
      <trkpt lat="41.74254" lon="9.32971">
        <ele>386.8</ele>
        <time>2015-06-18T07:09:36Z</time>
      </trkpt>
      <trkpt lat="41.74258" lon="9.32973">
        <ele>388.2</ele>
        <time>2015-06-18T07:09:44Z</time>
      </trkpt>
      <trkpt lat="41.74259" lon="9.32973">
        <ele>388.4</ele>
        <time>2015-06-18T07:09:47Z</time>
      </trkpt>
      <trkpt lat="41.74261" lon="9.32975">
        <ele>389.2</ele>
        <time>2015-06-18T07:09:52Z</time>
      </trkpt>
      <trkpt lat="41.74261" lon="9.32979">
        <ele>389.8</ele>
        <time>2015-06-18T07:09:58Z</time>
      </trkpt>
      <trkpt lat="41.74264" lon="9.32976">
        <ele>391.2</ele>
        <time>2015-06-18T07:10:07Z</time>
      </trkpt>
      <trkpt lat="41.74268" lon="9.32973">
        <ele>392.2</ele>
        <time>2015-06-18T07:10:15Z</time>
      </trkpt>
      <trkpt lat="41.74271" lon="9.32969">
        <ele>393.6</ele>
        <time>2015-06-18T07:10:25Z</time>
      </trkpt>
      <trkpt lat="41.74274" lon="9.32968">
        <ele>394.4</ele>
        <time>2015-06-18T07:10:34Z</time>
      </trkpt>
      <trkpt lat="41.74275" lon="9.32969">
        <ele>395.4</ele>
        <time>2015-06-18T07:10:41Z</time>
      </trkpt>
      <trkpt lat="41.7428" lon="9.32974">
        <ele>396.6</ele>
        <time>2015-06-18T07:10:57Z</time>
      </trkpt>
      <trkpt lat="41.74281" lon="9.32978">
        <ele>397.2</ele>
        <time>2015-06-18T07:11:03Z</time>
      </trkpt>
      <trkpt lat="41.74281" lon="9.32985">
        <ele>398.4</ele>
        <time>2015-06-18T07:11:12Z</time>
      </trkpt>
      <trkpt lat="41.74286" lon="9.32988">
        <ele>399.8</ele>
        <time>2015-06-18T07:11:21Z</time>
      </trkpt>
      <trkpt lat="41.74292" lon="9.32984">
        <ele>401</ele>
        <time>2015-06-18T07:11:30Z</time>
      </trkpt>
      <trkpt lat="41.74296" lon="9.32983">
        <ele>402</ele>
        <time>2015-06-18T07:11:39Z</time>
      </trkpt>
      <trkpt lat="41.74301" lon="9.32981">
        <ele>403</ele>
        <time>2015-06-18T07:11:48Z</time>
      </trkpt>
      <trkpt lat="41.74307" lon="9.32977">
        <ele>404.4</ele>
        <time>2015-06-18T07:12:00Z</time>
      </trkpt>
      <trkpt lat="41.7431" lon="9.32973">
        <ele>405.2</ele>
        <time>2015-06-18T07:12:07Z</time>
      </trkpt>
      <trkpt lat="41.74314" lon="9.3297">
        <ele>406.2</ele>
        <time>2015-06-18T07:12:14Z</time>
      </trkpt>
      <trkpt lat="41.74319" lon="9.3297">
        <ele>407.2</ele>
        <time>2015-06-18T07:12:25Z</time>
      </trkpt>
      <trkpt lat="41.74324" lon="9.32971">
        <ele>408.4</ele>
        <time>2015-06-18T07:12:33Z</time>
      </trkpt>
      <trkpt lat="41.74327" lon="9.32969">
        <ele>409.2</ele>
        <time>2015-06-18T07:12:38Z</time>
      </trkpt>
      <trkpt lat="41.7433" lon="9.32966">
        <ele>410.6</ele>
        <time>2015-06-18T07:12:46Z</time>
      </trkpt>
      <trkpt lat="41.74332" lon="9.32962">
        <ele>412.2</ele>
        <time>2015-06-18T07:12:55Z</time>
      </trkpt>
      <trkpt lat="41.74334" lon="9.3296">
        <ele>412.8</ele>
        <time>2015-06-18T07:13:01Z</time>
      </trkpt>
      <trkpt lat="41.74337" lon="9.32957">
        <ele>414</ele>
        <time>2015-06-18T07:13:10Z</time>
      </trkpt>
      <trkpt lat="41.74341" lon="9.32953">
        <ele>415.4</ele>
        <time>2015-06-18T07:13:18Z</time>
      </trkpt>
      <trkpt lat="41.74344" lon="9.32948">
        <ele>416.4</ele>
        <time>2015-06-18T07:13:28Z</time>
      </trkpt>
      <trkpt lat="41.74348" lon="9.32944">
        <ele>417.4</ele>
        <time>2015-06-18T07:13:37Z</time>
      </trkpt>
      <trkpt lat="41.74351" lon="9.32942">
        <ele>418.2</ele>
        <time>2015-06-18T07:13:43Z</time>
      </trkpt>
      <trkpt lat="41.74354" lon="9.32938">
        <ele>419.6</ele>
        <time>2015-06-18T07:13:51Z</time>
      </trkpt>
      <trkpt lat="41.74357" lon="9.32935">
        <ele>421</ele>
        <time>2015-06-18T07:14:02Z</time>
      </trkpt>
      <trkpt lat="41.74359" lon="9.3293">
        <ele>421.8</ele>
        <time>2015-06-18T07:14:09Z</time>
      </trkpt>
      <trkpt lat="41.74363" lon="9.32928">
        <ele>423.2</ele>
        <time>2015-06-18T07:14:18Z</time>
      </trkpt>
      <trkpt lat="41.74366" lon="9.32926">
        <ele>424</ele>
        <time>2015-06-18T07:14:25Z</time>
      </trkpt>
      <trkpt lat="41.74369" lon="9.3292">
        <ele>425.6</ele>
        <time>2015-06-18T07:14:34Z</time>
      </trkpt>
      <trkpt lat="41.74372" lon="9.32921">
        <ele>426.2</ele>
        <time>2015-06-18T07:14:41Z</time>
      </trkpt>
      <trkpt lat="41.74376" lon="9.32914">
        <ele>428</ele>
        <time>2015-06-18T07:14:55Z</time>
      </trkpt>
      <trkpt lat="41.74379" lon="9.32914">
        <ele>428.4</ele>
        <time>2015-06-18T07:15:01Z</time>
      </trkpt>
      <trkpt lat="41.74383" lon="9.32915">
        <ele>430</ele>
        <time>2015-06-18T07:15:11Z</time>
      </trkpt>
      <trkpt lat="41.74387" lon="9.32915">
        <ele>430.8</ele>
        <time>2015-06-18T07:15:20Z</time>
      </trkpt>
      <trkpt lat="41.74391" lon="9.32914">
        <ele>431.8</ele>
        <time>2015-06-18T07:15:28Z</time>
      </trkpt>
      <trkpt lat="41.74395" lon="9.32913">
        <ele>433.2</ele>
        <time>2015-06-18T07:15:35Z</time>
      </trkpt>
      <trkpt lat="41.74398" lon="9.32913">
        <ele>434.2</ele>
        <time>2015-06-18T07:15:43Z</time>
      </trkpt>
      <trkpt lat="41.744" lon="9.32911">
        <ele>435.2</ele>
        <time>2015-06-18T07:15:50Z</time>
      </trkpt>
      <trkpt lat="41.74404" lon="9.32907">
        <ele>436.4</ele>
        <time>2015-06-18T07:15:58Z</time>
      </trkpt>
      <trkpt lat="41.74407" lon="9.32904">
        <ele>437.6</ele>
        <time>2015-06-18T07:16:06Z</time>
      </trkpt>
      <trkpt lat="41.7441" lon="9.32902">
        <ele>438.8</ele>
        <time>2015-06-18T07:16:15Z</time>
      </trkpt>
      <trkpt lat="41.74413" lon="9.32898">
        <ele>439.8</ele>
        <time>2015-06-18T07:16:23Z</time>
      </trkpt>
      <trkpt lat="41.74415" lon="9.32894">
        <ele>440.8</ele>
        <time>2015-06-18T07:16:30Z</time>
      </trkpt>
      <trkpt lat="41.74419" lon="9.3289">
        <ele>442.2</ele>
        <time>2015-06-18T07:16:43Z</time>
      </trkpt>
      <trkpt lat="41.74421" lon="9.32889">
        <ele>442.6</ele>
        <time>2015-06-18T07:16:48Z</time>
      </trkpt>
      <trkpt lat="41.74424" lon="9.32887">
        <ele>444</ele>
        <time>2015-06-18T07:16:55Z</time>
      </trkpt>
      <trkpt lat="41.74426" lon="9.32885">
        <ele>445</ele>
        <time>2015-06-18T07:17:02Z</time>
      </trkpt>
      <trkpt lat="41.74429" lon="9.32881">
        <ele>446.2</ele>
        <time>2015-06-18T07:17:09Z</time>
      </trkpt>
      <trkpt lat="41.74431" lon="9.32876">
        <ele>447.4</ele>
        <time>2015-06-18T07:17:16Z</time>
      </trkpt>
      <trkpt lat="41.74435" lon="9.3287">
        <ele>449</ele>
        <time>2015-06-18T07:17:26Z</time>
      </trkpt>
      <trkpt lat="41.74438" lon="9.32866">
        <ele>449.6</ele>
        <time>2015-06-18T07:17:33Z</time>
      </trkpt>
      <trkpt lat="41.74441" lon="9.32859">
        <ele>450.8</ele>
        <time>2015-06-18T07:17:43Z</time>
      </trkpt>
      <trkpt lat="41.74444" lon="9.32852">
        <ele>451.6</ele>
        <time>2015-06-18T07:17:51Z</time>
      </trkpt>
      <trkpt lat="41.74446" lon="9.32843">
        <ele>453</ele>
        <time>2015-06-18T07:18:06Z</time>
      </trkpt>
      <trkpt lat="41.74448" lon="9.32838">
        <ele>453.6</ele>
        <time>2015-06-18T07:18:13Z</time>
      </trkpt>
      <trkpt lat="41.74454" lon="9.32836">
        <ele>454.8</ele>
        <time>2015-06-18T07:18:25Z</time>
      </trkpt>
      <trkpt lat="41.74454" lon="9.3283">
        <ele>455.8</ele>
        <time>2015-06-18T07:18:31Z</time>
      </trkpt>
      <trkpt lat="41.74458" lon="9.32822">
        <ele>457.2</ele>
        <time>2015-06-18T07:18:41Z</time>
      </trkpt>
      <trkpt lat="41.74459" lon="9.32813">
        <ele>458.4</ele>
        <time>2015-06-18T07:18:51Z</time>
      </trkpt>
      <trkpt lat="41.74461" lon="9.32798">
        <ele>459.6</ele>
        <time>2015-06-18T07:19:09Z</time>
      </trkpt>
      <trkpt lat="41.74464" lon="9.32794">
        <ele>460.4</ele>
        <time>2015-06-18T07:19:17Z</time>
      </trkpt>
      <trkpt lat="41.74466" lon="9.32784">
        <ele>461.6</ele>
        <time>2015-06-18T07:19:27Z</time>
      </trkpt>
      <trkpt lat="41.74472" lon="9.32777">
        <ele>462.6</ele>
        <time>2015-06-18T07:19:39Z</time>
      </trkpt>
      <trkpt lat="41.74474" lon="9.32778">
        <ele>463.8</ele>
        <time>2015-06-18T07:19:48Z</time>
      </trkpt>
      <trkpt lat="41.74475" lon="9.32781">
        <ele>464.2</ele>
        <time>2015-06-18T07:19:53Z</time>
      </trkpt>
      <trkpt lat="41.74476" lon="9.32786">
        <ele>465.6</ele>
        <time>2015-06-18T07:20:01Z</time>
      </trkpt>
      <trkpt lat="41.74478" lon="9.32793">
        <ele>467</ele>
        <time>2015-06-18T07:20:12Z</time>
      </trkpt>
      <trkpt lat="41.7448" lon="9.32799">
        <ele>468</ele>
        <time>2015-06-18T07:20:22Z</time>
      </trkpt>
      <trkpt lat="41.74482" lon="9.32802">
        <ele>469</ele>
        <time>2015-06-18T07:20:30Z</time>
      </trkpt>
      <trkpt lat="41.74485" lon="9.32801">
        <ele>470.2</ele>
        <time>2015-06-18T07:20:39Z</time>
      </trkpt>
      <trkpt lat="41.74487" lon="9.32799">
        <ele>471.2</ele>
        <time>2015-06-18T07:20:48Z</time>
      </trkpt>
      <trkpt lat="41.7449" lon="9.32798">
        <ele>472.2</ele>
        <time>2015-06-18T07:20:55Z</time>
      </trkpt>
      <trkpt lat="41.74493" lon="9.32796">
        <ele>473.4</ele>
        <time>2015-06-18T07:21:03Z</time>
      </trkpt>
      <trkpt lat="41.74498" lon="9.32796">
        <ele>474.4</ele>
        <time>2015-06-18T07:21:11Z</time>
      </trkpt>
      <trkpt lat="41.745" lon="9.32789">
        <ele>475.8</ele>
        <time>2015-06-18T07:21:20Z</time>
      </trkpt>
      <trkpt lat="41.74504" lon="9.32787">
        <ele>476.4</ele>
        <time>2015-06-18T07:21:29Z</time>
      </trkpt>
      <trkpt lat="41.74507" lon="9.32786">
        <ele>477.6</ele>
        <time>2015-06-18T07:21:38Z</time>
      </trkpt>
      <trkpt lat="41.7451" lon="9.32784">
        <ele>478.6</ele>
        <time>2015-06-18T07:21:46Z</time>
      </trkpt>
      <trkpt lat="41.74513" lon="9.32781">
        <ele>479.8</ele>
        <time>2015-06-18T07:21:53Z</time>
      </trkpt>
      <trkpt lat="41.74515" lon="9.3278">
        <ele>481</ele>
        <time>2015-06-18T07:22:01Z</time>
      </trkpt>
      <trkpt lat="41.74519" lon="9.32777">
        <ele>482</ele>
        <time>2015-06-18T07:22:11Z</time>
      </trkpt>
      <trkpt lat="41.74523" lon="9.32777">
        <ele>483.2</ele>
        <time>2015-06-18T07:22:20Z</time>
      </trkpt>
      <trkpt lat="41.74525" lon="9.32777">
        <ele>484</ele>
        <time>2015-06-18T07:22:27Z</time>
      </trkpt>
      <trkpt lat="41.74528" lon="9.32774">
        <ele>485.2</ele>
        <time>2015-06-18T07:22:35Z</time>
      </trkpt>
      <trkpt lat="41.74532" lon="9.32773">
        <ele>486.4</ele>
        <time>2015-06-18T07:22:44Z</time>
      </trkpt>
      <trkpt lat="41.74537" lon="9.32768">
        <ele>487.6</ele>
        <time>2015-06-18T07:23:02Z</time>
      </trkpt>
      <trkpt lat="41.74541" lon="9.32766">
        <ele>488.4</ele>
        <time>2015-06-18T07:23:08Z</time>
      </trkpt>
      <trkpt lat="41.74544" lon="9.32762">
        <ele>489.4</ele>
        <time>2015-06-18T07:23:15Z</time>
      </trkpt>
      <trkpt lat="41.7455" lon="9.32755">
        <ele>491</ele>
        <time>2015-06-18T07:23:32Z</time>
      </trkpt>
      <trkpt lat="41.74554" lon="9.32751">
        <ele>492</ele>
        <time>2015-06-18T07:23:41Z</time>
      </trkpt>
      <trkpt lat="41.7456" lon="9.32747">
        <ele>493.2</ele>
        <time>2015-06-18T07:23:51Z</time>
      </trkpt>
      <trkpt lat="41.74564" lon="9.32745">
        <ele>494.2</ele>
        <time>2015-06-18T07:24:00Z</time>
      </trkpt>
      <trkpt lat="41.74568" lon="9.32741">
        <ele>495.2</ele>
        <time>2015-06-18T07:24:08Z</time>
      </trkpt>
      <trkpt lat="41.74571" lon="9.32735">
        <ele>496.4</ele>
        <time>2015-06-18T07:24:17Z</time>
      </trkpt>
      <trkpt lat="41.74575" lon="9.3273">
        <ele>497.6</ele>
        <time>2015-06-18T07:24:28Z</time>
      </trkpt>
      <trkpt lat="41.74578" lon="9.32722">
        <ele>498.8</ele>
        <time>2015-06-18T07:24:38Z</time>
      </trkpt>
      <trkpt lat="41.74581" lon="9.32717">
        <ele>499.8</ele>
        <time>2015-06-18T07:24:47Z</time>
      </trkpt>
      <trkpt lat="41.74584" lon="9.32713">
        <ele>501.2</ele>
        <time>2015-06-18T07:24:55Z</time>
      </trkpt>
      <trkpt lat="41.74585" lon="9.32706">
        <ele>502.4</ele>
        <time>2015-06-18T07:25:04Z</time>
      </trkpt>
      <trkpt lat="41.74587" lon="9.32702">
        <ele>503</ele>
        <time>2015-06-18T07:25:11Z</time>
      </trkpt>
      <trkpt lat="41.74591" lon="9.32696">
        <ele>504.6</ele>
        <time>2015-06-18T07:25:20Z</time>
      </trkpt>
      <trkpt lat="41.74592" lon="9.32701">
        <ele>505.8</ele>
        <time>2015-06-18T07:25:30Z</time>
      </trkpt>
      <trkpt lat="41.74597" lon="9.32704">
        <ele>507</ele>
        <time>2015-06-18T07:25:41Z</time>
      </trkpt>
      <trkpt lat="41.746" lon="9.32701">
        <ele>508.2</ele>
        <time>2015-06-18T07:25:48Z</time>
      </trkpt>
      <trkpt lat="41.74602" lon="9.32695">
        <ele>509.2</ele>
        <time>2015-06-18T07:25:54Z</time>
      </trkpt>
      <trkpt lat="41.74605" lon="9.32691">
        <ele>510.6</ele>
        <time>2015-06-18T07:26:03Z</time>
      </trkpt>
      <trkpt lat="41.74607" lon="9.32686">
        <ele>511.4</ele>
        <time>2015-06-18T07:26:11Z</time>
      </trkpt>
      <trkpt lat="41.7461" lon="9.32681">
        <ele>513</ele>
        <time>2015-06-18T07:26:20Z</time>
      </trkpt>
      <trkpt lat="41.74614" lon="9.32679">
        <ele>513.8</ele>
        <time>2015-06-18T07:26:29Z</time>
      </trkpt>
      <trkpt lat="41.74616" lon="9.32674">
        <ele>515.2</ele>
        <time>2015-06-18T07:26:39Z</time>
      </trkpt>
      <trkpt lat="41.74619" lon="9.32671">
        <ele>516.2</ele>
        <time>2015-06-18T07:26:47Z</time>
      </trkpt>
      <trkpt lat="41.74623" lon="9.32668">
        <ele>517.4</ele>
        <time>2015-06-18T07:26:56Z</time>
      </trkpt>
      <trkpt lat="41.74624" lon="9.32664">
        <ele>518.4</ele>
        <time>2015-06-18T07:27:03Z</time>
      </trkpt>
      <trkpt lat="41.74627" lon="9.32659">
        <ele>519.6</ele>
        <time>2015-06-18T07:27:11Z</time>
      </trkpt>
      <trkpt lat="41.74627" lon="9.32652">
        <ele>520.6</ele>
        <time>2015-06-18T07:27:19Z</time>
      </trkpt>
      <trkpt lat="41.74628" lon="9.32645">
        <ele>522.2</ele>
        <time>2015-06-18T07:27:31Z</time>
      </trkpt>
      <trkpt lat="41.74631" lon="9.32638">
        <ele>523.2</ele>
        <time>2015-06-18T07:27:51Z</time>
      </trkpt>
      <trkpt lat="41.74633" lon="9.32634">
        <ele>524.4</ele>
        <time>2015-06-18T07:28:01Z</time>
      </trkpt>
      <trkpt lat="41.74635" lon="9.32635">
        <ele>525.2</ele>
        <time>2015-06-18T07:28:09Z</time>
      </trkpt>
      <trkpt lat="41.74639" lon="9.32636">
        <ele>526.4</ele>
        <time>2015-06-18T07:28:17Z</time>
      </trkpt>
      <trkpt lat="41.74642" lon="9.32639">
        <ele>527.6</ele>
        <time>2015-06-18T07:28:26Z</time>
      </trkpt>
      <trkpt lat="41.74644" lon="9.32644">
        <ele>528.6</ele>
        <time>2015-06-18T07:28:33Z</time>
      </trkpt>
      <trkpt lat="41.74648" lon="9.32647">
        <ele>529.8</ele>
        <time>2015-06-18T07:28:42Z</time>
      </trkpt>
      <trkpt lat="41.74651" lon="9.32644">
        <ele>531</ele>
        <time>2015-06-18T07:28:52Z</time>
      </trkpt>
      <trkpt lat="41.74653" lon="9.32644">
        <ele>531.8</ele>
        <time>2015-06-18T07:28:59Z</time>
      </trkpt>
      <trkpt lat="41.74655" lon="9.32644">
        <ele>533.2</ele>
        <time>2015-06-18T07:29:08Z</time>
      </trkpt>
      <trkpt lat="41.74657" lon="9.32646">
        <ele>534.2</ele>
        <time>2015-06-18T07:29:16Z</time>
      </trkpt>
      <trkpt lat="41.74659" lon="9.32651">
        <ele>535.2</ele>
        <time>2015-06-18T07:29:26Z</time>
      </trkpt>
      <trkpt lat="41.74662" lon="9.32656">
        <ele>536.8</ele>
        <time>2015-06-18T07:29:34Z</time>
      </trkpt>
      <trkpt lat="41.74666" lon="9.3265">
        <ele>537.8</ele>
        <time>2015-06-18T07:29:48Z</time>
      </trkpt>
      <trkpt lat="41.74667" lon="9.32644">
        <ele>539</ele>
        <time>2015-06-18T07:29:59Z</time>
      </trkpt>
      <trkpt lat="41.74668" lon="9.32641">
        <ele>540.2</ele>
        <time>2015-06-18T07:30:08Z</time>
      </trkpt>
      <trkpt lat="41.74669" lon="9.32631">
        <ele>541.2</ele>
        <time>2015-06-18T07:30:18Z</time>
      </trkpt>
      <trkpt lat="41.7467" lon="9.32624">
        <ele>542.4</ele>
        <time>2015-06-18T07:30:28Z</time>
      </trkpt>
      <trkpt lat="41.74671" lon="9.32621">
        <ele>543.6</ele>
        <time>2015-06-18T07:30:36Z</time>
      </trkpt>
      <trkpt lat="41.74674" lon="9.3262">
        <ele>544.6</ele>
        <time>2015-06-18T07:30:45Z</time>
      </trkpt>
      <trkpt lat="41.74678" lon="9.32617">
        <ele>546</ele>
        <time>2015-06-18T07:30:56Z</time>
      </trkpt>
      <trkpt lat="41.74677" lon="9.32613">
        <ele>546.8</ele>
        <time>2015-06-18T07:31:02Z</time>
      </trkpt>
      <trkpt lat="41.74676" lon="9.32609">
        <ele>548.6</ele>
        <time>2015-06-18T07:31:14Z</time>
      </trkpt>
      <trkpt lat="41.74678" lon="9.32611">
        <ele>549.6</ele>
        <time>2015-06-18T07:31:25Z</time>
      </trkpt>
      <trkpt lat="41.74681" lon="9.3261">
        <ele>550.6</ele>
        <time>2015-06-18T07:31:34Z</time>
      </trkpt>
      <trkpt lat="41.74684" lon="9.3261">
        <ele>551</ele>
        <time>2015-06-18T07:31:40Z</time>
      </trkpt>
      <trkpt lat="41.74688" lon="9.32608">
        <ele>552.6</ele>
        <time>2015-06-18T07:31:51Z</time>
      </trkpt>
      <trkpt lat="41.7469" lon="9.32606">
        <ele>553.4</ele>
        <time>2015-06-18T07:31:58Z</time>
      </trkpt>
      <trkpt lat="41.74691" lon="9.32601">
        <ele>555</ele>
        <time>2015-06-18T07:32:06Z</time>
      </trkpt>
      <trkpt lat="41.74692" lon="9.32599">
        <ele>556.2</ele>
        <time>2015-06-18T07:32:16Z</time>
      </trkpt>
      <trkpt lat="41.74696" lon="9.32599">
        <ele>557.2</ele>
        <time>2015-06-18T07:32:25Z</time>
      </trkpt>
      <trkpt lat="41.74698" lon="9.32597">
        <ele>558</ele>
        <time>2015-06-18T07:32:34Z</time>
      </trkpt>
      <trkpt lat="41.74698" lon="9.32594">
        <ele>559</ele>
        <time>2015-06-18T07:32:40Z</time>
      </trkpt>
      <trkpt lat="41.74697" lon="9.32588">
        <ele>560</ele>
        <time>2015-06-18T07:32:46Z</time>
      </trkpt>
      <trkpt lat="41.74696" lon="9.32587">
        <ele>560.2</ele>
        <time>2015-06-18T07:32:47Z</time>
      </trkpt>
      <trkpt lat="41.74698" lon="9.32584">
        <ele>561.4</ele>
        <time>2015-06-18T07:32:57Z</time>
      </trkpt>
      <trkpt lat="41.74701" lon="9.32584">
        <ele>562.6</ele>
        <time>2015-06-18T07:33:07Z</time>
      </trkpt>
      <trkpt lat="41.74703" lon="9.32587">
        <ele>563.4</ele>
        <time>2015-06-18T07:33:14Z</time>
      </trkpt>
      <trkpt lat="41.74708" lon="9.32589">
        <ele>564.6</ele>
        <time>2015-06-18T07:33:22Z</time>
      </trkpt>
      <trkpt lat="41.74711" lon="9.3259">
        <ele>566</ele>
        <time>2015-06-18T07:33:31Z</time>
      </trkpt>
      <trkpt lat="41.74715" lon="9.32591">
        <ele>567</ele>
        <time>2015-06-18T07:33:39Z</time>
      </trkpt>
      <trkpt lat="41.7472" lon="9.32592">
        <ele>567.8</ele>
        <time>2015-06-18T07:33:46Z</time>
      </trkpt>
      <trkpt lat="41.74723" lon="9.32595">
        <ele>569.4</ele>
        <time>2015-06-18T07:33:55Z</time>
      </trkpt>
      <trkpt lat="41.74728" lon="9.32597">
        <ele>570.2</ele>
        <time>2015-06-18T07:34:05Z</time>
      </trkpt>
      <trkpt lat="41.7473" lon="9.32597">
        <ele>571</ele>
        <time>2015-06-18T07:34:10Z</time>
      </trkpt>
      <trkpt lat="41.74734" lon="9.32599">
        <ele>572.4</ele>
        <time>2015-06-18T07:34:18Z</time>
      </trkpt>
      <trkpt lat="41.74739" lon="9.326">
        <ele>573.6</ele>
        <time>2015-06-18T07:34:27Z</time>
      </trkpt>
      <trkpt lat="41.74744" lon="9.326">
        <ele>574.6</ele>
        <time>2015-06-18T07:34:35Z</time>
      </trkpt>
      <trkpt lat="41.7475" lon="9.32599">
        <ele>576.2</ele>
        <time>2015-06-18T07:34:46Z</time>
      </trkpt>
      <trkpt lat="41.74746" lon="9.32601">
        <ele>576</ele>
        <time>2015-06-18T07:40:29Z</time>
      </trkpt>
      <trkpt lat="41.74769" lon="9.32595">
        <ele>576</ele>
        <time>2015-06-18T07:41:25Z</time>
      </trkpt>
      <trkpt lat="41.74776" lon="9.32589">
        <ele>575.6</ele>
        <time>2015-06-18T07:42:27Z</time>
      </trkpt>
      <trkpt lat="41.74777" lon="9.32586">
        <ele>575</ele>
        <time>2015-06-18T07:42:33Z</time>
      </trkpt>
      <trkpt lat="41.74779" lon="9.32584">
        <ele>573.4</ele>
        <time>2015-06-18T07:42:42Z</time>
      </trkpt>
      <trkpt lat="41.74781" lon="9.32581">
        <ele>572.4</ele>
        <time>2015-06-18T07:42:51Z</time>
      </trkpt>
      <trkpt lat="41.74785" lon="9.3258">
        <ele>571</ele>
        <time>2015-06-18T07:43:01Z</time>
      </trkpt>
      <trkpt lat="41.74788" lon="9.32575">
        <ele>570</ele>
        <time>2015-06-18T07:43:10Z</time>
      </trkpt>
      <trkpt lat="41.74792" lon="9.32568">
        <ele>568.8</ele>
        <time>2015-06-18T07:43:20Z</time>
      </trkpt>
      <trkpt lat="41.74797" lon="9.32563">
        <ele>567.4</ele>
        <time>2015-06-18T07:43:54Z</time>
      </trkpt>
      <trkpt lat="41.748" lon="9.32546">
        <ele>565.8</ele>
        <time>2015-06-18T07:44:08Z</time>
      </trkpt>
      <trkpt lat="41.74803" lon="9.32529">
        <ele>564.8</ele>
        <time>2015-06-18T07:44:29Z</time>
      </trkpt>
      <trkpt lat="41.74807" lon="9.32525">
        <ele>563.8</ele>
        <time>2015-06-18T07:44:36Z</time>
      </trkpt>
      <trkpt lat="41.74812" lon="9.32522">
        <ele>562.6</ele>
        <time>2015-06-18T07:44:44Z</time>
      </trkpt>
      <trkpt lat="41.74816" lon="9.32519">
        <ele>561.2</ele>
        <time>2015-06-18T07:44:53Z</time>
      </trkpt>
      <trkpt lat="41.74817" lon="9.32517">
        <ele>560.6</ele>
        <time>2015-06-18T07:44:57Z</time>
      </trkpt>
      <trkpt lat="41.7482" lon="9.32516">
        <ele>560</ele>
        <time>2015-06-18T07:45:03Z</time>
      </trkpt>
      <trkpt lat="41.74841" lon="9.32494">
        <ele>558.4</ele>
        <time>2015-06-18T07:45:30Z</time>
      </trkpt>
      <trkpt lat="41.74859" lon="9.32472">
        <ele>558.2</ele>
        <time>2015-06-18T07:45:55Z</time>
      </trkpt>
      <trkpt lat="41.74864" lon="9.32462">
        <ele>559.2</ele>
        <time>2015-06-18T07:46:05Z</time>
      </trkpt>
      <trkpt lat="41.74868" lon="9.32451">
        <ele>560.6</ele>
        <time>2015-06-18T07:46:19Z</time>
      </trkpt>
      <trkpt lat="41.74867" lon="9.32433">
        <ele>561.6</ele>
        <time>2015-06-18T07:46:38Z</time>
      </trkpt>
      <trkpt lat="41.74866" lon="9.32423">
        <ele>562</ele>
        <time>2015-06-18T07:46:48Z</time>
      </trkpt>
      <trkpt lat="41.74866" lon="9.3241">
        <ele>563.4</ele>
        <time>2015-06-18T07:47:00Z</time>
      </trkpt>
      <trkpt lat="41.74859" lon="9.32396">
        <ele>564.2</ele>
        <time>2015-06-18T07:47:14Z</time>
      </trkpt>
      <trkpt lat="41.74857" lon="9.32389">
        <ele>565</ele>
        <time>2015-06-18T07:47:23Z</time>
      </trkpt>
      <trkpt lat="41.74856" lon="9.32379">
        <ele>566.2</ele>
        <time>2015-06-18T07:47:34Z</time>
      </trkpt>
      <trkpt lat="41.74856" lon="9.32374">
        <ele>566.8</ele>
        <time>2015-06-18T07:47:40Z</time>
      </trkpt>
      <trkpt lat="41.74853" lon="9.32366">
        <ele>568.2</ele>
        <time>2015-06-18T07:47:49Z</time>
      </trkpt>
      <trkpt lat="41.74851" lon="9.32358">
        <ele>569.4</ele>
        <time>2015-06-18T07:47:58Z</time>
      </trkpt>
      <trkpt lat="41.74851" lon="9.32299">
        <ele>570.4</ele>
        <time>2015-06-18T07:48:50Z</time>
      </trkpt>
      <trkpt lat="41.74857" lon="9.32281">
        <ele>570.6</ele>
        <time>2015-06-18T07:49:09Z</time>
      </trkpt>
      <trkpt lat="41.74862" lon="9.32271">
        <ele>571.4</ele>
        <time>2015-06-18T07:49:22Z</time>
      </trkpt>
      <trkpt lat="41.74867" lon="9.32262">
        <ele>572.4</ele>
        <time>2015-06-18T07:49:43Z</time>
      </trkpt>
      <trkpt lat="41.74872" lon="9.32256">
        <ele>573.4</ele>
        <time>2015-06-18T07:49:53Z</time>
      </trkpt>
      <trkpt lat="41.74876" lon="9.32248">
        <ele>574.2</ele>
        <time>2015-06-18T07:50:02Z</time>
      </trkpt>
      <trkpt lat="41.74878" lon="9.32244">
        <ele>575.2</ele>
        <time>2015-06-18T07:50:09Z</time>
      </trkpt>
      <trkpt lat="41.74879" lon="9.3224">
        <ele>576.2</ele>
        <time>2015-06-18T07:50:16Z</time>
      </trkpt>
      <trkpt lat="41.74882" lon="9.32237">
        <ele>577.2</ele>
        <time>2015-06-18T07:50:22Z</time>
      </trkpt>
      <trkpt lat="41.74883" lon="9.32231">
        <ele>578.4</ele>
        <time>2015-06-18T07:50:29Z</time>
      </trkpt>
      <trkpt lat="41.74885" lon="9.32229">
        <ele>579.4</ele>
        <time>2015-06-18T07:50:35Z</time>
      </trkpt>
      <trkpt lat="41.74884" lon="9.32224">
        <ele>580.4</ele>
        <time>2015-06-18T07:50:41Z</time>
      </trkpt>
      <trkpt lat="41.74885" lon="9.32217">
        <ele>581.6</ele>
        <time>2015-06-18T07:50:49Z</time>
      </trkpt>
      <trkpt lat="41.74881" lon="9.32213">
        <ele>582.8</ele>
        <time>2015-06-18T07:50:57Z</time>
      </trkpt>
      <trkpt lat="41.7488" lon="9.32212">
        <ele>583.4</ele>
        <time>2015-06-18T07:51:02Z</time>
      </trkpt>
      <trkpt lat="41.7488" lon="9.32208">
        <ele>584.6</ele>
        <time>2015-06-18T07:51:08Z</time>
      </trkpt>
      <trkpt lat="41.74878" lon="9.32201">
        <ele>586.2</ele>
        <time>2015-06-18T07:51:16Z</time>
      </trkpt>
      <trkpt lat="41.74872" lon="9.32192">
        <ele>587.4</ele>
        <time>2015-06-18T07:51:28Z</time>
      </trkpt>
      <trkpt lat="41.74851" lon="9.32149">
        <ele>587.6</ele>
        <time>2015-06-18T07:52:18Z</time>
      </trkpt>
      <trkpt lat="41.74849" lon="9.32142">
        <ele>586.4</ele>
        <time>2015-06-18T07:52:26Z</time>
      </trkpt>
      <trkpt lat="41.74847" lon="9.32132">
        <ele>585.2</ele>
        <time>2015-06-18T07:52:35Z</time>
      </trkpt>
      <trkpt lat="41.74843" lon="9.32123">
        <ele>584.4</ele>
        <time>2015-06-18T07:52:43Z</time>
      </trkpt>
      <trkpt lat="41.74842" lon="9.32111">
        <ele>583</ele>
        <time>2015-06-18T07:52:52Z</time>
      </trkpt>
      <trkpt lat="41.74845" lon="9.32076">
        <ele>581.8</ele>
        <time>2015-06-18T07:53:27Z</time>
      </trkpt>
      <trkpt lat="41.74857" lon="9.32066">
        <ele>582.6</ele>
        <time>2015-06-18T07:53:44Z</time>
      </trkpt>
      <trkpt lat="41.74864" lon="9.32058">
        <ele>581.4</ele>
        <time>2015-06-18T07:53:53Z</time>
      </trkpt>
      <trkpt lat="41.74871" lon="9.32054">
        <ele>580.6</ele>
        <time>2015-06-18T07:54:00Z</time>
      </trkpt>
      <trkpt lat="41.74879" lon="9.32047">
        <ele>579</ele>
        <time>2015-06-18T07:54:09Z</time>
      </trkpt>
      <trkpt lat="41.74899" lon="9.31993">
        <ele>577.4</ele>
        <time>2015-06-18T07:54:56Z</time>
      </trkpt>
      <trkpt lat="41.74898" lon="9.31981">
        <ele>577.6</ele>
        <time>2015-06-18T07:55:09Z</time>
      </trkpt>
      <trkpt lat="41.74896" lon="9.31976">
        <ele>578.4</ele>
        <time>2015-06-18T07:55:19Z</time>
      </trkpt>
      <trkpt lat="41.74891" lon="9.31973">
        <ele>579.2</ele>
        <time>2015-06-18T07:55:29Z</time>
      </trkpt>
      <trkpt lat="41.7489" lon="9.31971">
        <ele>579.6</ele>
        <time>2015-06-18T07:55:33Z</time>
      </trkpt>
      <trkpt lat="41.74887" lon="9.31967">
        <ele>581.4</ele>
        <time>2015-06-18T07:55:40Z</time>
      </trkpt>
      <trkpt lat="41.74885" lon="9.31969">
        <ele>582.4</ele>
        <time>2015-06-18T07:55:49Z</time>
      </trkpt>
      <trkpt lat="41.74882" lon="9.31968">
        <ele>583.6</ele>
        <time>2015-06-18T07:55:59Z</time>
      </trkpt>
      <trkpt lat="41.7488" lon="9.31964">
        <ele>584.6</ele>
        <time>2015-06-18T07:56:07Z</time>
      </trkpt>
      <trkpt lat="41.74877" lon="9.31963">
        <ele>585.6</ele>
        <time>2015-06-18T07:56:16Z</time>
      </trkpt>
      <trkpt lat="41.74877" lon="9.31965">
        <ele>586</ele>
        <time>2015-06-18T07:56:22Z</time>
      </trkpt>
      <trkpt lat="41.74878" lon="9.31968">
        <ele>587.4</ele>
        <time>2015-06-18T07:56:29Z</time>
      </trkpt>
      <trkpt lat="41.74875" lon="9.31969">
        <ele>588.4</ele>
        <time>2015-06-18T07:56:37Z</time>
      </trkpt>
      <trkpt lat="41.74875" lon="9.31967">
        <ele>589.8</ele>
        <time>2015-06-18T07:56:46Z</time>
      </trkpt>
      <trkpt lat="41.74873" lon="9.31963">
        <ele>591</ele>
        <time>2015-06-18T07:56:56Z</time>
      </trkpt>
      <trkpt lat="41.74873" lon="9.3196">
        <ele>591.6</ele>
        <time>2015-06-18T07:57:03Z</time>
      </trkpt>
      <trkpt lat="41.74871" lon="9.31955">
        <ele>592.8</ele>
        <time>2015-06-18T07:57:13Z</time>
      </trkpt>
      <trkpt lat="41.74869" lon="9.3195">
        <ele>593.8</ele>
        <time>2015-06-18T07:57:21Z</time>
      </trkpt>
      <trkpt lat="41.74865" lon="9.31948">
        <ele>594.8</ele>
        <time>2015-06-18T07:57:31Z</time>
      </trkpt>
      <trkpt lat="41.74865" lon="9.31945">
        <ele>595.6</ele>
        <time>2015-06-18T07:57:37Z</time>
      </trkpt>
      <trkpt lat="41.74864" lon="9.31938">
        <ele>597</ele>
        <time>2015-06-18T07:57:45Z</time>
      </trkpt>
      <trkpt lat="41.74864" lon="9.31937">
        <ele>597</ele>
        <time>2015-06-18T07:57:46Z</time>
      </trkpt>
      <trkpt lat="41.74864" lon="9.31933">
        <ele>597.8</ele>
        <time>2015-06-18T07:57:53Z</time>
      </trkpt>
      <trkpt lat="41.74866" lon="9.31928">
        <ele>599</ele>
        <time>2015-06-18T07:58:00Z</time>
      </trkpt>
      <trkpt lat="41.74873" lon="9.31926">
        <ele>600</ele>
        <time>2015-06-18T07:58:10Z</time>
      </trkpt>
      <trkpt lat="41.74876" lon="9.31923">
        <ele>601.2</ele>
        <time>2015-06-18T07:58:18Z</time>
      </trkpt>
      <trkpt lat="41.74883" lon="9.31912">
        <ele>601.4</ele>
        <time>2015-06-18T07:58:32Z</time>
      </trkpt>
      <trkpt lat="41.74883" lon="9.31911">
        <ele>601.4</ele>
        <time>2015-06-18T07:58:33Z</time>
      </trkpt>
      <trkpt lat="41.74885" lon="9.31909">
        <ele>601.2</ele>
        <time>2015-06-18T07:58:36Z</time>
      </trkpt>
      <trkpt lat="41.74896" lon="9.31904">
        <ele>601.4</ele>
        <time>2015-06-18T07:58:55Z</time>
      </trkpt>
      <trkpt lat="41.74899" lon="9.31903">
        <ele>602.2</ele>
        <time>2015-06-18T07:59:03Z</time>
      </trkpt>
      <trkpt lat="41.74902" lon="9.31901">
        <ele>603</ele>
        <time>2015-06-18T07:59:09Z</time>
      </trkpt>
      <trkpt lat="41.74905" lon="9.31899">
        <ele>604</ele>
        <time>2015-06-18T07:59:14Z</time>
      </trkpt>
      <trkpt lat="41.7491" lon="9.31896">
        <ele>605.6</ele>
        <time>2015-06-18T07:59:22Z</time>
      </trkpt>
      <trkpt lat="41.7491" lon="9.31892">
        <ele>606.6</ele>
        <time>2015-06-18T07:59:31Z</time>
      </trkpt>
      <trkpt lat="41.74911" lon="9.31892">
        <ele>607.2</ele>
        <time>2015-06-18T07:59:37Z</time>
      </trkpt>
      <trkpt lat="41.74914" lon="9.31888">
        <ele>608.6</ele>
        <time>2015-06-18T07:59:45Z</time>
      </trkpt>
      <trkpt lat="41.7492" lon="9.31887">
        <ele>609.8</ele>
        <time>2015-06-18T07:59:56Z</time>
      </trkpt>
      <trkpt lat="41.74927" lon="9.31887">
        <ele>611</ele>
        <time>2015-06-18T08:00:06Z</time>
      </trkpt>
      <trkpt lat="41.7493" lon="9.31883">
        <ele>611.6</ele>
        <time>2015-06-18T08:00:12Z</time>
      </trkpt>
      <trkpt lat="41.74939" lon="9.31871">
        <ele>612.2</ele>
        <time>2015-06-18T08:00:36Z</time>
      </trkpt>
      <trkpt lat="41.7495" lon="9.31866">
        <ele>611</ele>
        <time>2015-06-18T08:00:50Z</time>
      </trkpt>
      <trkpt lat="41.74952" lon="9.31866">
        <ele>610.8</ele>
        <time>2015-06-18T08:00:51Z</time>
      </trkpt>
      <trkpt lat="41.74964" lon="9.31863">
        <ele>609.6</ele>
        <time>2015-06-18T08:01:03Z</time>
      </trkpt>
      <trkpt lat="41.74992" lon="9.31856">
        <ele>609.2</ele>
        <time>2015-06-18T08:01:33Z</time>
      </trkpt>
      <trkpt lat="41.74997" lon="9.31852">
        <ele>610.4</ele>
        <time>2015-06-18T08:01:42Z</time>
      </trkpt>
      <trkpt lat="41.74999" lon="9.31848">
        <ele>611.4</ele>
        <time>2015-06-18T08:01:50Z</time>
      </trkpt>
      <trkpt lat="41.75009" lon="9.31835">
        <ele>612.6</ele>
        <time>2015-06-18T08:02:05Z</time>
      </trkpt>
      <trkpt lat="41.75014" lon="9.31823">
        <ele>613.2</ele>
        <time>2015-06-18T08:02:18Z</time>
      </trkpt>
      <trkpt lat="41.75015" lon="9.3181">
        <ele>614.4</ele>
        <time>2015-06-18T08:02:28Z</time>
      </trkpt>
      <trkpt lat="41.75007" lon="9.3175">
        <ele>615</ele>
        <time>2015-06-18T08:03:19Z</time>
      </trkpt>
      <trkpt lat="41.75007" lon="9.31748">
        <ele>615.2</ele>
        <time>2015-06-18T08:03:21Z</time>
      </trkpt>
      <trkpt lat="41.75011" lon="9.31722">
        <ele>615.6</ele>
        <time>2015-06-18T08:03:45Z</time>
      </trkpt>
      <trkpt lat="41.75031" lon="9.31686">
        <ele>616.6</ele>
        <time>2015-06-18T08:04:35Z</time>
      </trkpt>
      <trkpt lat="41.75032" lon="9.31686">
        <ele>616.6</ele>
        <time>2015-06-18T08:04:36Z</time>
      </trkpt>
      <trkpt lat="41.75036" lon="9.3166">
        <ele>616.8</ele>
        <time>2015-06-18T08:05:03Z</time>
      </trkpt>
      <trkpt lat="41.75028" lon="9.3163">
        <ele>615.2</ele>
        <time>2015-06-18T08:05:28Z</time>
      </trkpt>
      <trkpt lat="41.75017" lon="9.31612">
        <ele>615.4</ele>
        <time>2015-06-18T08:05:50Z</time>
      </trkpt>
      <trkpt lat="41.75012" lon="9.3161">
        <ele>616</ele>
        <time>2015-06-18T08:05:58Z</time>
      </trkpt>
      <trkpt lat="41.75011" lon="9.31608">
        <ele>617.4</ele>
        <time>2015-06-18T08:06:07Z</time>
      </trkpt>
      <trkpt lat="41.75008" lon="9.31603">
        <ele>618.2</ele>
        <time>2015-06-18T08:06:17Z</time>
      </trkpt>
      <trkpt lat="41.75003" lon="9.31599">
        <ele>619.4</ele>
        <time>2015-06-18T08:06:25Z</time>
      </trkpt>
      <trkpt lat="41.75002" lon="9.31597">
        <ele>620</ele>
        <time>2015-06-18T08:06:31Z</time>
      </trkpt>
      <trkpt lat="41.7501" lon="9.3158">
        <ele>621.2</ele>
        <time>2015-06-18T08:07:03Z</time>
      </trkpt>
      <trkpt lat="41.75023" lon="9.31568">
        <ele>622.4</ele>
        <time>2015-06-18T08:07:21Z</time>
      </trkpt>
      <trkpt lat="41.75051" lon="9.31536">
        <ele>621.6</ele>
        <time>2015-06-18T08:07:59Z</time>
      </trkpt>
      <trkpt lat="41.75052" lon="9.31534">
        <ele>621.6</ele>
        <time>2015-06-18T08:08:01Z</time>
      </trkpt>
      <trkpt lat="41.75052" lon="9.31532">
        <ele>621.6</ele>
        <time>2015-06-18T08:08:03Z</time>
      </trkpt>
      <trkpt lat="41.75052" lon="9.31527">
        <ele>621.6</ele>
        <time>2015-06-18T08:08:08Z</time>
      </trkpt>
      <trkpt lat="41.75055" lon="9.3152">
        <ele>622.4</ele>
        <time>2015-06-18T08:08:17Z</time>
      </trkpt>
      <trkpt lat="41.75055" lon="9.31518">
        <ele>622.6</ele>
        <time>2015-06-18T08:08:20Z</time>
      </trkpt>
      <trkpt lat="41.75056" lon="9.31516">
        <ele>622.6</ele>
        <time>2015-06-18T08:08:22Z</time>
      </trkpt>
      <trkpt lat="41.75057" lon="9.31512">
        <ele>622.8</ele>
        <time>2015-06-18T08:08:27Z</time>
      </trkpt>
      <trkpt lat="41.7506" lon="9.31506">
        <ele>623</ele>
        <time>2015-06-18T08:08:33Z</time>
      </trkpt>
      <trkpt lat="41.75063" lon="9.31487">
        <ele>624.4</ele>
        <time>2015-06-18T08:08:58Z</time>
      </trkpt>
      <trkpt lat="41.75066" lon="9.31481">
        <ele>625.2</ele>
        <time>2015-06-18T08:09:08Z</time>
      </trkpt>
      <trkpt lat="41.75068" lon="9.31475">
        <ele>626.2</ele>
        <time>2015-06-18T08:09:19Z</time>
      </trkpt>
      <trkpt lat="41.75068" lon="9.31471">
        <ele>627.4</ele>
        <time>2015-06-18T08:09:27Z</time>
      </trkpt>
      <trkpt lat="41.7507" lon="9.31466">
        <ele>628.4</ele>
        <time>2015-06-18T08:09:38Z</time>
      </trkpt>
      <trkpt lat="41.75074" lon="9.31463">
        <ele>628.8</ele>
        <time>2015-06-18T08:09:42Z</time>
      </trkpt>
      <trkpt lat="41.75075" lon="9.31461">
        <ele>629.6</ele>
        <time>2015-06-18T08:09:47Z</time>
      </trkpt>
      <trkpt lat="41.75078" lon="9.31455">
        <ele>630.4</ele>
        <time>2015-06-18T08:10:00Z</time>
      </trkpt>
      <trkpt lat="41.75082" lon="9.3145">
        <ele>631.8</ele>
        <time>2015-06-18T08:10:09Z</time>
      </trkpt>
      <trkpt lat="41.75083" lon="9.31449">
        <ele>632.6</ele>
        <time>2015-06-18T08:10:19Z</time>
      </trkpt>
      <trkpt lat="41.75088" lon="9.31446">
        <ele>633.8</ele>
        <time>2015-06-18T08:10:30Z</time>
      </trkpt>
      <trkpt lat="41.75092" lon="9.31442">
        <ele>634.6</ele>
        <time>2015-06-18T08:10:39Z</time>
      </trkpt>
      <trkpt lat="41.75102" lon="9.31431">
        <ele>636</ele>
        <time>2015-06-18T08:11:08Z</time>
      </trkpt>
      <trkpt lat="41.75107" lon="9.31429">
        <ele>636</ele>
        <time>2015-06-18T08:11:13Z</time>
      </trkpt>
      <trkpt lat="41.75114" lon="9.31428">
        <ele>636.8</ele>
        <time>2015-06-18T08:11:22Z</time>
      </trkpt>
      <trkpt lat="41.75122" lon="9.31431">
        <ele>638.2</ele>
        <time>2015-06-18T08:11:33Z</time>
      </trkpt>
      <trkpt lat="41.75128" lon="9.31432">
        <ele>639</ele>
        <time>2015-06-18T08:11:42Z</time>
      </trkpt>
      <trkpt lat="41.75134" lon="9.31433">
        <ele>639.8</ele>
        <time>2015-06-18T08:11:51Z</time>
      </trkpt>
      <trkpt lat="41.75138" lon="9.31434">
        <ele>641.2</ele>
        <time>2015-06-18T08:12:01Z</time>
      </trkpt>
      <trkpt lat="41.75146" lon="9.31435">
        <ele>642.2</ele>
        <time>2015-06-18T08:12:11Z</time>
      </trkpt>
      <trkpt lat="41.75158" lon="9.31435">
        <ele>643.6</ele>
        <time>2015-06-18T08:12:29Z</time>
      </trkpt>
      <trkpt lat="41.75201" lon="9.31443">
        <ele>644.2</ele>
        <time>2015-06-18T08:13:18Z</time>
      </trkpt>
      <trkpt lat="41.75208" lon="9.31449">
        <ele>644.8</ele>
        <time>2015-06-18T08:13:26Z</time>
      </trkpt>
      <trkpt lat="41.75238" lon="9.31492">
        <ele>644.6</ele>
        <time>2015-06-18T08:14:12Z</time>
      </trkpt>
      <trkpt lat="41.75247" lon="9.31498">
        <ele>643.6</ele>
        <time>2015-06-18T08:14:23Z</time>
      </trkpt>
      <trkpt lat="41.75254" lon="9.31503">
        <ele>643.2</ele>
        <time>2015-06-18T08:14:32Z</time>
      </trkpt>
      <trkpt lat="41.75295" lon="9.31521">
        <ele>643.2</ele>
        <time>2015-06-18T08:15:12Z</time>
      </trkpt>
      <trkpt lat="41.75306" lon="9.31531">
        <ele>644</ele>
        <time>2015-06-18T08:15:30Z</time>
      </trkpt>
      <trkpt lat="41.75346" lon="9.31506">
        <ele>643.2</ele>
        <time>2015-06-18T08:16:15Z</time>
      </trkpt>
      <trkpt lat="41.75353" lon="9.31491">
        <ele>643.4</ele>
        <time>2015-06-18T08:16:34Z</time>
      </trkpt>
      <trkpt lat="41.75355" lon="9.31489">
        <ele>643.6</ele>
        <time>2015-06-18T08:16:39Z</time>
      </trkpt>
      <trkpt lat="41.75374" lon="9.31472">
        <ele>644</ele>
        <time>2015-06-18T08:17:08Z</time>
      </trkpt>
      <trkpt lat="41.75407" lon="9.31456">
        <ele>643.8</ele>
        <time>2015-06-18T08:17:44Z</time>
      </trkpt>
      <trkpt lat="41.75414" lon="9.31454">
        <ele>642.8</ele>
        <time>2015-06-18T08:17:52Z</time>
      </trkpt>
      <trkpt lat="41.75426" lon="9.31452">
        <ele>641.4</ele>
        <time>2015-06-18T08:18:03Z</time>
      </trkpt>
      <trkpt lat="41.75431" lon="9.31448">
        <ele>640.6</ele>
        <time>2015-06-18T08:18:09Z</time>
      </trkpt>
      <trkpt lat="41.75436" lon="9.3144">
        <ele>639</ele>
        <time>2015-06-18T08:18:20Z</time>
      </trkpt>
      <trkpt lat="41.75437" lon="9.31436">
        <ele>638.8</ele>
        <time>2015-06-18T08:18:24Z</time>
      </trkpt>
      <trkpt lat="41.75439" lon="9.31435">
        <ele>638.2</ele>
        <time>2015-06-18T08:18:28Z</time>
      </trkpt>
      <trkpt lat="41.7544" lon="9.31429">
        <ele>637.2</ele>
        <time>2015-06-18T08:18:35Z</time>
      </trkpt>
      <trkpt lat="41.75444" lon="9.31424">
        <ele>636.2</ele>
        <time>2015-06-18T08:18:42Z</time>
      </trkpt>
      <trkpt lat="41.75446" lon="9.31415">
        <ele>635</ele>
        <time>2015-06-18T08:18:50Z</time>
      </trkpt>
      <trkpt lat="41.75448" lon="9.31407">
        <ele>633.8</ele>
        <time>2015-06-18T08:18:58Z</time>
      </trkpt>
      <trkpt lat="41.75449" lon="9.314">
        <ele>632.4</ele>
        <time>2015-06-18T08:19:08Z</time>
      </trkpt>
      <trkpt lat="41.7545" lon="9.31395">
        <ele>631.2</ele>
        <time>2015-06-18T08:19:49Z</time>
      </trkpt>
      <trkpt lat="41.75454" lon="9.3139">
        <ele>630.8</ele>
        <time>2015-06-18T08:19:55Z</time>
      </trkpt>
      <trkpt lat="41.75455" lon="9.31383">
        <ele>628.8</ele>
        <time>2015-06-18T08:20:15Z</time>
      </trkpt>
      <trkpt lat="41.75459" lon="9.31379">
        <ele>628.2</ele>
        <time>2015-06-18T08:20:23Z</time>
      </trkpt>
      <trkpt lat="41.75463" lon="9.31373">
        <ele>627.2</ele>
        <time>2015-06-18T08:20:30Z</time>
      </trkpt>
      <trkpt lat="41.75458" lon="9.31356">
        <ele>625.6</ele>
        <time>2015-06-18T08:20:50Z</time>
      </trkpt>
      <trkpt lat="41.75458" lon="9.31354">
        <ele>625.8</ele>
        <time>2015-06-18T08:20:53Z</time>
      </trkpt>
      <trkpt lat="41.75461" lon="9.31351">
        <ele>626.4</ele>
        <time>2015-06-18T08:20:59Z</time>
      </trkpt>
      <trkpt lat="41.75463" lon="9.31349">
        <ele>626.6</ele>
        <time>2015-06-18T08:21:02Z</time>
      </trkpt>
      <trkpt lat="41.75491" lon="9.31345">
        <ele>626.6</ele>
        <time>2015-06-18T08:21:33Z</time>
      </trkpt>
      <trkpt lat="41.75507" lon="9.31344">
        <ele>624.8</ele>
        <time>2015-06-18T08:21:52Z</time>
      </trkpt>
      <trkpt lat="41.75512" lon="9.31345">
        <ele>624.6</ele>
        <time>2015-06-18T08:22:01Z</time>
      </trkpt>
      <trkpt lat="41.75515" lon="9.31345">
        <ele>624.2</ele>
        <time>2015-06-18T08:22:03Z</time>
      </trkpt>
      <trkpt lat="41.75556" lon="9.31326">
        <ele>623.8</ele>
        <time>2015-06-18T08:22:47Z</time>
      </trkpt>
      <trkpt lat="41.75557" lon="9.31324">
        <ele>624</ele>
        <time>2015-06-18T08:22:48Z</time>
      </trkpt>
      <trkpt lat="41.75558" lon="9.31319">
        <ele>624.4</ele>
        <time>2015-06-18T08:22:54Z</time>
      </trkpt>
      <trkpt lat="41.7556" lon="9.31316">
        <ele>624.6</ele>
        <time>2015-06-18T08:22:58Z</time>
      </trkpt>
      <trkpt lat="41.75563" lon="9.31308">
        <ele>625.8</ele>
        <time>2015-06-18T08:23:07Z</time>
      </trkpt>
      <trkpt lat="41.75578" lon="9.31286">
        <ele>625.6</ele>
        <time>2015-06-18T08:23:33Z</time>
      </trkpt>
      <trkpt lat="41.75587" lon="9.31279">
        <ele>625.2</ele>
        <time>2015-06-18T08:23:50Z</time>
      </trkpt>
      <trkpt lat="41.75607" lon="9.31278">
        <ele>625.8</ele>
        <time>2015-06-18T08:24:14Z</time>
      </trkpt>
      <trkpt lat="41.75613" lon="9.31277">
        <ele>626.8</ele>
        <time>2015-06-18T08:24:24Z</time>
      </trkpt>
      <trkpt lat="41.75622" lon="9.31278">
        <ele>628</ele>
        <time>2015-06-18T08:24:34Z</time>
      </trkpt>
      <trkpt lat="41.75648" lon="9.31267">
        <ele>628.4</ele>
        <time>2015-06-18T08:25:08Z</time>
      </trkpt>
      <trkpt lat="41.75657" lon="9.31261">
        <ele>627.2</ele>
        <time>2015-06-18T08:25:17Z</time>
      </trkpt>
      <trkpt lat="41.75675" lon="9.31248">
        <ele>626.8</ele>
        <time>2015-06-18T08:25:48Z</time>
      </trkpt>
      <trkpt lat="41.75683" lon="9.31245">
        <ele>628</ele>
        <time>2015-06-18T08:26:00Z</time>
      </trkpt>
      <trkpt lat="41.75691" lon="9.3124">
        <ele>629.2</ele>
        <time>2015-06-18T08:26:13Z</time>
      </trkpt>
      <trkpt lat="41.75699" lon="9.31238">
        <ele>630.4</ele>
        <time>2015-06-18T08:26:26Z</time>
      </trkpt>
      <trkpt lat="41.75732" lon="9.31242">
        <ele>630</ele>
        <time>2015-06-18T08:27:05Z</time>
      </trkpt>
      <trkpt lat="41.75765" lon="9.31242">
        <ele>631.2</ele>
        <time>2015-06-18T08:27:37Z</time>
      </trkpt>
      <trkpt lat="41.758" lon="9.31232">
        <ele>630.4</ele>
        <time>2015-06-18T08:28:20Z</time>
      </trkpt>
      <trkpt lat="41.75806" lon="9.3123">
        <ele>630</ele>
        <time>2015-06-18T08:28:28Z</time>
      </trkpt>
      <trkpt lat="41.7581" lon="9.3123">
        <ele>629</ele>
        <time>2015-06-18T08:28:34Z</time>
      </trkpt>
      <trkpt lat="41.75814" lon="9.31227">
        <ele>627.8</ele>
        <time>2015-06-18T08:28:41Z</time>
      </trkpt>
      <trkpt lat="41.75816" lon="9.31224">
        <ele>626.6</ele>
        <time>2015-06-18T08:28:48Z</time>
      </trkpt>
      <trkpt lat="41.75818" lon="9.3122">
        <ele>625.8</ele>
        <time>2015-06-18T08:28:54Z</time>
      </trkpt>
      <trkpt lat="41.75821" lon="9.31215">
        <ele>624.4</ele>
        <time>2015-06-18T08:29:02Z</time>
      </trkpt>
      <trkpt lat="41.75822" lon="9.31213">
        <ele>623.8</ele>
        <time>2015-06-18T08:29:07Z</time>
      </trkpt>
      <trkpt lat="41.75824" lon="9.3121">
        <ele>622.6</ele>
        <time>2015-06-18T08:29:12Z</time>
      </trkpt>
      <trkpt lat="41.75827" lon="9.31205">
        <ele>621.2</ele>
        <time>2015-06-18T08:29:18Z</time>
      </trkpt>
      <trkpt lat="41.75829" lon="9.31201">
        <ele>620</ele>
        <time>2015-06-18T08:29:24Z</time>
      </trkpt>
      <trkpt lat="41.7583" lon="9.31195">
        <ele>618.8</ele>
        <time>2015-06-18T08:29:30Z</time>
      </trkpt>
      <trkpt lat="41.75832" lon="9.31186">
        <ele>617.4</ele>
        <time>2015-06-18T08:29:38Z</time>
      </trkpt>
      <trkpt lat="41.75833" lon="9.31169">
        <ele>616.2</ele>
        <time>2015-06-18T08:29:54Z</time>
      </trkpt>
      <trkpt lat="41.75834" lon="9.31163">
        <ele>615.8</ele>
        <time>2015-06-18T08:29:59Z</time>
      </trkpt>
      <trkpt lat="41.75835" lon="9.31154">
        <ele>615</ele>
        <time>2015-06-18T08:30:06Z</time>
      </trkpt>
      <trkpt lat="41.75836" lon="9.31152">
        <ele>614.8</ele>
        <time>2015-06-18T08:30:08Z</time>
      </trkpt>
      <trkpt lat="41.75837" lon="9.3115">
        <ele>614.6</ele>
        <time>2015-06-18T08:30:11Z</time>
      </trkpt>
      <trkpt lat="41.75839" lon="9.3114">
        <ele>613.8</ele>
        <time>2015-06-18T08:30:22Z</time>
      </trkpt>
      <trkpt lat="41.75845" lon="9.31122">
        <ele>613.2</ele>
        <time>2015-06-18T08:30:39Z</time>
      </trkpt>
      <trkpt lat="41.75857" lon="9.3111">
        <ele>611.8</ele>
        <time>2015-06-18T08:31:02Z</time>
      </trkpt>
      <trkpt lat="41.75863" lon="9.31105">
        <ele>612.2</ele>
        <time>2015-06-18T08:31:10Z</time>
      </trkpt>
      <trkpt lat="41.75866" lon="9.31102">
        <ele>612.4</ele>
        <time>2015-06-18T08:31:15Z</time>
      </trkpt>
      <trkpt lat="41.7587" lon="9.31097">
        <ele>613.6</ele>
        <time>2015-06-18T08:31:24Z</time>
      </trkpt>
      <trkpt lat="41.75871" lon="9.31097">
        <ele>613.6</ele>
        <time>2015-06-18T08:31:25Z</time>
      </trkpt>
      <trkpt lat="41.75878" lon="9.3109">
        <ele>614.6</ele>
        <time>2015-06-18T08:31:36Z</time>
      </trkpt>
      <trkpt lat="41.75879" lon="9.31089">
        <ele>614.6</ele>
        <time>2015-06-18T08:31:38Z</time>
      </trkpt>
      <trkpt lat="41.75879" lon="9.31085">
        <ele>615.4</ele>
        <time>2015-06-18T08:31:44Z</time>
      </trkpt>
      <trkpt lat="41.75882" lon="9.31081">
        <ele>616.8</ele>
        <time>2015-06-18T08:31:52Z</time>
      </trkpt>
      <trkpt lat="41.75888" lon="9.31076">
        <ele>617.6</ele>
        <time>2015-06-18T08:32:00Z</time>
      </trkpt>
      <trkpt lat="41.75903" lon="9.31068">
        <ele>617.8</ele>
        <time>2015-06-18T08:32:18Z</time>
      </trkpt>
      <trkpt lat="41.75914" lon="9.31063">
        <ele>618</ele>
        <time>2015-06-18T08:32:29Z</time>
      </trkpt>
      <trkpt lat="41.75929" lon="9.31052">
        <ele>618.6</ele>
        <time>2015-06-18T08:32:48Z</time>
      </trkpt>
      <trkpt lat="41.75937" lon="9.31046">
        <ele>617.2</ele>
        <time>2015-06-18T08:32:58Z</time>
      </trkpt>
      <trkpt lat="41.75941" lon="9.31042">
        <ele>616.6</ele>
        <time>2015-06-18T08:33:04Z</time>
      </trkpt>
      <trkpt lat="41.75948" lon="9.31037">
        <ele>616</ele>
        <time>2015-06-18T08:33:13Z</time>
      </trkpt>
      <trkpt lat="41.75955" lon="9.31031">
        <ele>615.2</ele>
        <time>2015-06-18T08:33:22Z</time>
      </trkpt>
      <trkpt lat="41.75958" lon="9.31025">
        <ele>614.2</ele>
        <time>2015-06-18T08:33:31Z</time>
      </trkpt>
      <trkpt lat="41.75961" lon="9.31017">
        <ele>613.2</ele>
        <time>2015-06-18T08:33:39Z</time>
      </trkpt>
      <trkpt lat="41.7596" lon="9.31007">
        <ele>612.4</ele>
        <time>2015-06-18T08:33:46Z</time>
      </trkpt>
      <trkpt lat="41.75958" lon="9.31005">
        <ele>612.2</ele>
        <time>2015-06-18T08:33:48Z</time>
      </trkpt>
      <trkpt lat="41.75958" lon="9.31004">
        <ele>611.6</ele>
        <time>2015-06-18T08:33:51Z</time>
      </trkpt>
      <trkpt lat="41.75959" lon="9.31006">
        <ele>611.4</ele>
        <time>2015-06-18T08:33:54Z</time>
      </trkpt>
      <trkpt lat="41.75959" lon="9.31008">
        <ele>610.4</ele>
        <time>2015-06-18T08:34:01Z</time>
      </trkpt>
      <trkpt lat="41.75956" lon="9.31008">
        <ele>609.2</ele>
        <time>2015-06-18T08:34:08Z</time>
      </trkpt>
      <trkpt lat="41.75955" lon="9.31005">
        <ele>608.4</ele>
        <time>2015-06-18T08:34:14Z</time>
      </trkpt>
      <trkpt lat="41.75955" lon="9.31003">
        <ele>607.2</ele>
        <time>2015-06-18T08:34:21Z</time>
      </trkpt>
      <trkpt lat="41.75957" lon="9.31001">
        <ele>606.2</ele>
        <time>2015-06-18T08:34:28Z</time>
      </trkpt>
      <trkpt lat="41.75956" lon="9.30995">
        <ele>604.8</ele>
        <time>2015-06-18T08:34:35Z</time>
      </trkpt>
      <trkpt lat="41.75955" lon="9.30992">
        <ele>604.4</ele>
        <time>2015-06-18T08:34:38Z</time>
      </trkpt>
      <trkpt lat="41.75955" lon="9.30988">
        <ele>603.8</ele>
        <time>2015-06-18T08:34:43Z</time>
      </trkpt>
      <trkpt lat="41.75959" lon="9.30981">
        <ele>602.8</ele>
        <time>2015-06-18T08:34:52Z</time>
      </trkpt>
      <trkpt lat="41.75961" lon="9.30976">
        <ele>601.8</ele>
        <time>2015-06-18T08:34:59Z</time>
      </trkpt>
      <trkpt lat="41.75959" lon="9.30973">
        <ele>600.6</ele>
        <time>2015-06-18T08:35:06Z</time>
      </trkpt>
      <trkpt lat="41.75957" lon="9.30972">
        <ele>599.8</ele>
        <time>2015-06-18T08:35:12Z</time>
      </trkpt>
      <trkpt lat="41.75961" lon="9.30975">
        <ele>598.4</ele>
        <time>2015-06-18T08:35:23Z</time>
      </trkpt>
      <trkpt lat="41.75964" lon="9.30977">
        <ele>597</ele>
        <time>2015-06-18T08:35:45Z</time>
      </trkpt>
      <trkpt lat="41.75965" lon="9.30977">
        <ele>596</ele>
        <time>2015-06-18T08:35:56Z</time>
      </trkpt>
      <trkpt lat="41.75967" lon="9.30979">
        <ele>595</ele>
        <time>2015-06-18T08:36:05Z</time>
      </trkpt>
      <trkpt lat="41.75966" lon="9.30979">
        <ele>594.2</ele>
        <time>2015-06-18T08:36:12Z</time>
      </trkpt>
      <trkpt lat="41.75967" lon="9.30977">
        <ele>593</ele>
        <time>2015-06-18T08:36:20Z</time>
      </trkpt>
      <trkpt lat="41.75967" lon="9.30972">
        <ele>592</ele>
        <time>2015-06-18T08:36:28Z</time>
      </trkpt>
      <trkpt lat="41.75965" lon="9.30967">
        <ele>590.6</ele>
        <time>2015-06-18T08:36:37Z</time>
      </trkpt>
      <trkpt lat="41.75959" lon="9.30961">
        <ele>589.8</ele>
        <time>2015-06-18T08:36:46Z</time>
      </trkpt>
      <trkpt lat="41.75961" lon="9.30958">
        <ele>588.4</ele>
        <time>2015-06-18T08:36:56Z</time>
      </trkpt>
      <trkpt lat="41.75965" lon="9.30954">
        <ele>587.6</ele>
        <time>2015-06-18T08:37:04Z</time>
      </trkpt>
      <trkpt lat="41.75969" lon="9.30953">
        <ele>586.8</ele>
        <time>2015-06-18T08:37:08Z</time>
      </trkpt>
      <trkpt lat="41.75971" lon="9.30951">
        <ele>586.2</ele>
        <time>2015-06-18T08:37:14Z</time>
      </trkpt>
      <trkpt lat="41.75974" lon="9.30948">
        <ele>585.2</ele>
        <time>2015-06-18T08:37:22Z</time>
      </trkpt>
      <trkpt lat="41.75977" lon="9.30945">
        <ele>584.2</ele>
        <time>2015-06-18T08:37:29Z</time>
      </trkpt>
      <trkpt lat="41.75981" lon="9.30946">
        <ele>582.8</ele>
        <time>2015-06-18T08:37:38Z</time>
      </trkpt>
      <trkpt lat="41.75982" lon="9.30947">
        <ele>583</ele>
        <time>2015-06-18T08:37:39Z</time>
      </trkpt>
      <trkpt lat="41.75984" lon="9.30952">
        <ele>582</ele>
        <time>2015-06-18T08:37:45Z</time>
      </trkpt>
      <trkpt lat="41.75986" lon="9.30957">
        <ele>580.8</ele>
        <time>2015-06-18T08:37:52Z</time>
      </trkpt>
      <trkpt lat="41.7599" lon="9.30959">
        <ele>579.6</ele>
        <time>2015-06-18T08:37:59Z</time>
      </trkpt>
      <trkpt lat="41.75994" lon="9.30961">
        <ele>578.4</ele>
        <time>2015-06-18T08:38:07Z</time>
      </trkpt>
      <trkpt lat="41.75999" lon="9.30964">
        <ele>577.6</ele>
        <time>2015-06-18T08:38:14Z</time>
      </trkpt>
      <trkpt lat="41.75988" lon="9.30949">
        <ele>576</ele>
        <time>2015-06-18T08:38:23Z</time>
      </trkpt>
      <trkpt lat="41.75985" lon="9.30946">
        <ele>576</ele>
        <time>2015-06-18T08:38:25Z</time>
      </trkpt>
      <trkpt lat="41.75977" lon="9.30938">
        <ele>574.8</ele>
        <time>2015-06-18T08:38:35Z</time>
      </trkpt>
      <trkpt lat="41.75979" lon="9.30937">
        <ele>573.8</ele>
        <time>2015-06-18T08:38:43Z</time>
      </trkpt>
      <trkpt lat="41.75982" lon="9.30936">
        <ele>572.6</ele>
        <time>2015-06-18T08:38:51Z</time>
      </trkpt>
      <trkpt lat="41.75984" lon="9.30937">
        <ele>572.4</ele>
        <time>2015-06-18T08:38:53Z</time>
      </trkpt>
      <trkpt lat="41.75991" lon="9.30938">
        <ele>571.4</ele>
        <time>2015-06-18T08:39:00Z</time>
      </trkpt>
      <trkpt lat="41.75996" lon="9.30935">
        <ele>570.2</ele>
        <time>2015-06-18T08:39:12Z</time>
      </trkpt>
      <trkpt lat="41.75998" lon="9.30933">
        <ele>569</ele>
        <time>2015-06-18T08:39:22Z</time>
      </trkpt>
      <trkpt lat="41.75997" lon="9.30929">
        <ele>568</ele>
        <time>2015-06-18T08:39:30Z</time>
      </trkpt>
      <trkpt lat="41.75998" lon="9.30925">
        <ele>566.6</ele>
        <time>2015-06-18T08:39:38Z</time>
      </trkpt>
      <trkpt lat="41.76001" lon="9.30922">
        <ele>566</ele>
        <time>2015-06-18T08:39:45Z</time>
      </trkpt>
      <trkpt lat="41.76001" lon="9.30917">
        <ele>565.2</ele>
        <time>2015-06-18T08:39:50Z</time>
      </trkpt>
      <trkpt lat="41.76007" lon="9.30914">
        <ele>563.8</ele>
        <time>2015-06-18T08:39:56Z</time>
      </trkpt>
      <trkpt lat="41.76012" lon="9.30895">
        <ele>563</ele>
        <time>2015-06-18T08:40:16Z</time>
      </trkpt>
      <trkpt lat="41.76015" lon="9.30882">
        <ele>563.6</ele>
        <time>2015-06-18T08:40:31Z</time>
      </trkpt>
      <trkpt lat="41.76016" lon="9.30873">
        <ele>563.2</ele>
        <time>2015-06-18T08:40:39Z</time>
      </trkpt>
      <trkpt lat="41.76013" lon="9.30868">
        <ele>562.6</ele>
        <time>2015-06-18T08:40:43Z</time>
      </trkpt>
      <trkpt lat="41.76012" lon="9.30866">
        <ele>562.4</ele>
        <time>2015-06-18T08:40:46Z</time>
      </trkpt>
      <trkpt lat="41.76016" lon="9.30859">
        <ele>561.8</ele>
        <time>2015-06-18T08:40:57Z</time>
      </trkpt>
      <trkpt lat="41.76025" lon="9.30848">
        <ele>561</ele>
        <time>2015-06-18T08:41:11Z</time>
      </trkpt>
      <trkpt lat="41.7603" lon="9.30838">
        <ele>559.8</ele>
        <time>2015-06-18T08:41:19Z</time>
      </trkpt>
      <trkpt lat="41.76036" lon="9.30824">
        <ele>558.4</ele>
        <time>2015-06-18T08:41:31Z</time>
      </trkpt>
      <trkpt lat="41.7604" lon="9.308">
        <ele>557.4</ele>
        <time>2015-06-18T08:41:53Z</time>
      </trkpt>
      <trkpt lat="41.76036" lon="9.30795">
        <ele>556.6</ele>
        <time>2015-06-18T08:41:59Z</time>
      </trkpt>
      <trkpt lat="41.76038" lon="9.30792">
        <ele>556</ele>
        <time>2015-06-18T08:42:10Z</time>
      </trkpt>
      <trkpt lat="41.7604" lon="9.30791">
        <ele>555.6</ele>
        <time>2015-06-18T08:42:15Z</time>
      </trkpt>
      <trkpt lat="41.76047" lon="9.30793">
        <ele>553.4</ele>
        <time>2015-06-18T08:42:27Z</time>
      </trkpt>
      <trkpt lat="41.76055" lon="9.30796">
        <ele>553</ele>
        <time>2015-06-18T08:42:36Z</time>
      </trkpt>
      <trkpt lat="41.76076" lon="9.30784">
        <ele>550.8</ele>
        <time>2015-06-18T08:43:01Z</time>
      </trkpt>
      <trkpt lat="41.76082" lon="9.3078">
        <ele>550.6</ele>
        <time>2015-06-18T08:43:08Z</time>
      </trkpt>
      <trkpt lat="41.76086" lon="9.30778">
        <ele>549.2</ele>
        <time>2015-06-18T08:43:15Z</time>
      </trkpt>
      <trkpt lat="41.76089" lon="9.30777">
        <ele>548.6</ele>
        <time>2015-06-18T08:43:19Z</time>
      </trkpt>
      <trkpt lat="41.76094" lon="9.30774">
        <ele>547.4</ele>
        <time>2015-06-18T08:43:25Z</time>
      </trkpt>
      <trkpt lat="41.76098" lon="9.3077">
        <ele>546.2</ele>
        <time>2015-06-18T08:43:31Z</time>
      </trkpt>
      <trkpt lat="41.76101" lon="9.30766">
        <ele>544.6</ele>
        <time>2015-06-18T08:43:39Z</time>
      </trkpt>
      <trkpt lat="41.76103" lon="9.30756">
        <ele>543</ele>
        <time>2015-06-18T08:44:08Z</time>
      </trkpt>
      <trkpt lat="41.76109" lon="9.30793">
        <ele>546.6</ele>
        <time>2015-06-18T08:55:06Z</time>
      </trkpt>
      <trkpt lat="41.7611" lon="9.308">
        <ele>548.2</ele>
        <time>2015-06-18T08:55:20Z</time>
      </trkpt>
      <trkpt lat="41.76111" lon="9.30803">
        <ele>547.8</ele>
        <time>2015-06-18T08:55:26Z</time>
      </trkpt>
      <trkpt lat="41.7611" lon="9.30807">
        <ele>548.8</ele>
        <time>2015-06-18T08:55:32Z</time>
      </trkpt>
      <trkpt lat="41.76109" lon="9.30811">
        <ele>550</ele>
        <time>2015-06-18T08:55:39Z</time>
      </trkpt>
      <trkpt lat="41.76109" lon="9.30817">
        <ele>551.4</ele>
        <time>2015-06-18T08:55:47Z</time>
      </trkpt>
      <trkpt lat="41.76111" lon="9.30826">
        <ele>552.4</ele>
        <time>2015-06-18T08:55:57Z</time>
      </trkpt>
      <trkpt lat="41.76114" lon="9.30835">
        <ele>553.6</ele>
        <time>2015-06-18T08:56:08Z</time>
      </trkpt>
      <trkpt lat="41.76119" lon="9.30838">
        <ele>554.8</ele>
        <time>2015-06-18T08:56:20Z</time>
      </trkpt>
      <trkpt lat="41.76122" lon="9.30842">
        <ele>555.6</ele>
        <time>2015-06-18T08:56:27Z</time>
      </trkpt>
      <trkpt lat="41.76128" lon="9.30841">
        <ele>557</ele>
        <time>2015-06-18T08:56:38Z</time>
      </trkpt>
      <trkpt lat="41.7613" lon="9.30835">
        <ele>557.8</ele>
        <time>2015-06-18T08:56:48Z</time>
      </trkpt>
      <trkpt lat="41.7613" lon="9.30829">
        <ele>559.2</ele>
        <time>2015-06-18T08:56:58Z</time>
      </trkpt>
      <trkpt lat="41.76131" lon="9.30825">
        <ele>560.4</ele>
        <time>2015-06-18T08:57:07Z</time>
      </trkpt>
      <trkpt lat="41.76134" lon="9.30816">
        <ele>561.6</ele>
        <time>2015-06-18T08:57:18Z</time>
      </trkpt>
      <trkpt lat="41.76136" lon="9.30809">
        <ele>562.8</ele>
        <time>2015-06-18T08:57:29Z</time>
      </trkpt>
      <trkpt lat="41.76139" lon="9.308">
        <ele>563.8</ele>
        <time>2015-06-18T08:57:44Z</time>
      </trkpt>
      <trkpt lat="41.76141" lon="9.30792">
        <ele>565</ele>
        <time>2015-06-18T08:57:57Z</time>
      </trkpt>
      <trkpt lat="41.76142" lon="9.30788">
        <ele>565.8</ele>
        <time>2015-06-18T08:58:07Z</time>
      </trkpt>
      <trkpt lat="41.76145" lon="9.30776">
        <ele>567.4</ele>
        <time>2015-06-18T08:58:41Z</time>
      </trkpt>
      <trkpt lat="41.76158" lon="9.30725">
        <ele>568.4</ele>
        <time>2015-06-18T08:59:33Z</time>
      </trkpt>
      <trkpt lat="41.7616" lon="9.30719">
        <ele>569.4</ele>
        <time>2015-06-18T08:59:43Z</time>
      </trkpt>
      <trkpt lat="41.7616" lon="9.30713">
        <ele>570.8</ele>
        <time>2015-06-18T08:59:52Z</time>
      </trkpt>
      <trkpt lat="41.76161" lon="9.30709">
        <ele>571.6</ele>
        <time>2015-06-18T09:00:00Z</time>
      </trkpt>
      <trkpt lat="41.76161" lon="9.30704">
        <ele>572.6</ele>
        <time>2015-06-18T09:00:07Z</time>
      </trkpt>
      <trkpt lat="41.76163" lon="9.30702">
        <ele>574</ele>
        <time>2015-06-18T09:00:18Z</time>
      </trkpt>
      <trkpt lat="41.76166" lon="9.30704">
        <ele>575.2</ele>
        <time>2015-06-18T09:00:27Z</time>
      </trkpt>
      <trkpt lat="41.76172" lon="9.30703">
        <ele>576.4</ele>
        <time>2015-06-18T09:00:36Z</time>
      </trkpt>
      <trkpt lat="41.76176" lon="9.30701">
        <ele>577.4</ele>
        <time>2015-06-18T09:00:45Z</time>
      </trkpt>
      <trkpt lat="41.76181" lon="9.30699">
        <ele>579</ele>
        <time>2015-06-18T09:00:55Z</time>
      </trkpt>
      <trkpt lat="41.76186" lon="9.30699">
        <ele>579.8</ele>
        <time>2015-06-18T09:01:04Z</time>
      </trkpt>
      <trkpt lat="41.76192" lon="9.307">
        <ele>581</ele>
        <time>2015-06-18T09:01:14Z</time>
      </trkpt>
      <trkpt lat="41.76201" lon="9.30702">
        <ele>582</ele>
        <time>2015-06-18T09:01:29Z</time>
      </trkpt>
      <trkpt lat="41.76209" lon="9.30703">
        <ele>583</ele>
        <time>2015-06-18T09:01:42Z</time>
      </trkpt>
      <trkpt lat="41.76214" lon="9.30705">
        <ele>584.2</ele>
        <time>2015-06-18T09:01:51Z</time>
      </trkpt>
      <trkpt lat="41.7622" lon="9.30708">
        <ele>585.2</ele>
        <time>2015-06-18T09:02:03Z</time>
      </trkpt>
      <trkpt lat="41.76224" lon="9.30708">
        <ele>586.2</ele>
        <time>2015-06-18T09:02:12Z</time>
      </trkpt>
      <trkpt lat="41.76229" lon="9.3071">
        <ele>587.6</ele>
        <time>2015-06-18T09:02:22Z</time>
      </trkpt>
      <trkpt lat="41.76233" lon="9.30713">
        <ele>588.6</ele>
        <time>2015-06-18T09:02:31Z</time>
      </trkpt>
      <trkpt lat="41.76239" lon="9.30713">
        <ele>589.8</ele>
        <time>2015-06-18T09:02:42Z</time>
      </trkpt>
      <trkpt lat="41.76245" lon="9.30711">
        <ele>590.6</ele>
        <time>2015-06-18T09:02:52Z</time>
      </trkpt>
      <trkpt lat="41.76252" lon="9.30706">
        <ele>592</ele>
        <time>2015-06-18T09:03:05Z</time>
      </trkpt>
      <trkpt lat="41.76261" lon="9.30704">
        <ele>593.2</ele>
        <time>2015-06-18T09:03:19Z</time>
      </trkpt>
      <trkpt lat="41.76265" lon="9.30703">
        <ele>594</ele>
        <time>2015-06-18T09:03:28Z</time>
      </trkpt>
      <trkpt lat="41.76271" lon="9.30698">
        <ele>595.4</ele>
        <time>2015-06-18T09:03:38Z</time>
      </trkpt>
      <trkpt lat="41.76276" lon="9.30693">
        <ele>596.4</ele>
        <time>2015-06-18T09:03:49Z</time>
      </trkpt>
      <trkpt lat="41.76283" lon="9.30687">
        <ele>597.8</ele>
        <time>2015-06-18T09:04:05Z</time>
      </trkpt>
      <trkpt lat="41.76298" lon="9.30664">
        <ele>598.6</ele>
        <time>2015-06-18T09:04:30Z</time>
      </trkpt>
      <trkpt lat="41.76314" lon="9.30649">
        <ele>598.4</ele>
        <time>2015-06-18T09:04:50Z</time>
      </trkpt>
      <trkpt lat="41.76354" lon="9.30619">
        <ele>598.4</ele>
        <time>2015-06-18T09:05:37Z</time>
      </trkpt>
      <trkpt lat="41.76393" lon="9.30587">
        <ele>597.8</ele>
        <time>2015-06-18T09:06:20Z</time>
      </trkpt>
      <trkpt lat="41.7642" lon="9.30572">
        <ele>597.4</ele>
        <time>2015-06-18T09:06:51Z</time>
      </trkpt>
      <trkpt lat="41.76464" lon="9.30558">
        <ele>597.2</ele>
        <time>2015-06-18T09:07:37Z</time>
      </trkpt>
      <trkpt lat="41.76476" lon="9.3055">
        <ele>597.6</ele>
        <time>2015-06-18T09:07:54Z</time>
      </trkpt>
      <trkpt lat="41.76478" lon="9.30547">
        <ele>597.6</ele>
        <time>2015-06-18T09:07:57Z</time>
      </trkpt>
      <trkpt lat="41.76479" lon="9.30545">
        <ele>597.8</ele>
        <time>2015-06-18T09:08:00Z</time>
      </trkpt>
      <trkpt lat="41.76491" lon="9.30539">
        <ele>598.2</ele>
        <time>2015-06-18T09:08:13Z</time>
      </trkpt>
      <trkpt lat="41.76522" lon="9.30516">
        <ele>598.6</ele>
        <time>2015-06-18T09:08:47Z</time>
      </trkpt>
      <trkpt lat="41.76523" lon="9.30514">
        <ele>598.4</ele>
        <time>2015-06-18T09:08:49Z</time>
      </trkpt>
      <trkpt lat="41.76565" lon="9.30489">
        <ele>599</ele>
        <time>2015-06-18T09:09:34Z</time>
      </trkpt>
      <trkpt lat="41.76606" lon="9.3046">
        <ele>598.6</ele>
        <time>2015-06-18T09:10:17Z</time>
      </trkpt>
      <trkpt lat="41.76614" lon="9.30455">
        <ele>598.4</ele>
        <time>2015-06-18T09:10:27Z</time>
      </trkpt>
      <trkpt lat="41.76623" lon="9.30445">
        <ele>597.8</ele>
        <time>2015-06-18T09:10:45Z</time>
      </trkpt>
      <trkpt lat="41.76624" lon="9.30419">
        <ele>598.2</ele>
        <time>2015-06-18T09:11:39Z</time>
      </trkpt>
      <trkpt lat="41.7662" lon="9.30414">
        <ele>599.4</ele>
        <time>2015-06-18T09:11:52Z</time>
      </trkpt>
      <trkpt lat="41.7661" lon="9.30414">
        <ele>600.4</ele>
        <time>2015-06-18T09:12:06Z</time>
      </trkpt>
      <trkpt lat="41.76602" lon="9.30412">
        <ele>601.4</ele>
        <time>2015-06-18T09:12:17Z</time>
      </trkpt>
      <trkpt lat="41.76598" lon="9.30409">
        <ele>602.6</ele>
        <time>2015-06-18T09:12:31Z</time>
      </trkpt>
      <trkpt lat="41.76598" lon="9.30403">
        <ele>603.4</ele>
        <time>2015-06-18T09:12:39Z</time>
      </trkpt>
      <trkpt lat="41.76598" lon="9.304">
        <ele>604.2</ele>
        <time>2015-06-18T09:12:44Z</time>
      </trkpt>
      <trkpt lat="41.76598" lon="9.30397">
        <ele>604.8</ele>
        <time>2015-06-18T09:12:48Z</time>
      </trkpt>
      <trkpt lat="41.76596" lon="9.30393">
        <ele>606</ele>
        <time>2015-06-18T09:12:57Z</time>
      </trkpt>
      <trkpt lat="41.76593" lon="9.30389">
        <ele>606.8</ele>
        <time>2015-06-18T09:13:04Z</time>
      </trkpt>
      <trkpt lat="41.76594" lon="9.30379">
        <ele>608.2</ele>
        <time>2015-06-18T09:13:18Z</time>
      </trkpt>
      <trkpt lat="41.76593" lon="9.30373">
        <ele>609.4</ele>
        <time>2015-06-18T09:13:28Z</time>
      </trkpt>
      <trkpt lat="41.76592" lon="9.30368">
        <ele>610.4</ele>
        <time>2015-06-18T09:13:37Z</time>
      </trkpt>
      <trkpt lat="41.76592" lon="9.3036">
        <ele>611.4</ele>
        <time>2015-06-18T09:13:49Z</time>
      </trkpt>
      <trkpt lat="41.7659" lon="9.30353">
        <ele>612.6</ele>
        <time>2015-06-18T09:13:59Z</time>
      </trkpt>
      <trkpt lat="41.76589" lon="9.30343">
        <ele>613.8</ele>
        <time>2015-06-18T09:14:11Z</time>
      </trkpt>
      <trkpt lat="41.76587" lon="9.30334">
        <ele>615</ele>
        <time>2015-06-18T09:14:24Z</time>
      </trkpt>
      <trkpt lat="41.76589" lon="9.30331">
        <ele>616</ele>
        <time>2015-06-18T09:14:33Z</time>
      </trkpt>
      <trkpt lat="41.76592" lon="9.30326">
        <ele>617.2</ele>
        <time>2015-06-18T09:14:43Z</time>
      </trkpt>
      <trkpt lat="41.76596" lon="9.30323">
        <ele>618.2</ele>
        <time>2015-06-18T09:14:53Z</time>
      </trkpt>
      <trkpt lat="41.76598" lon="9.30319">
        <ele>619</ele>
        <time>2015-06-18T09:15:01Z</time>
      </trkpt>
      <trkpt lat="41.76597" lon="9.30313">
        <ele>620.2</ele>
        <time>2015-06-18T09:15:10Z</time>
      </trkpt>
      <trkpt lat="41.76597" lon="9.30306">
        <ele>621.8</ele>
        <time>2015-06-18T09:15:24Z</time>
      </trkpt>
      <trkpt lat="41.76596" lon="9.30302">
        <ele>622.4</ele>
        <time>2015-06-18T09:15:31Z</time>
      </trkpt>
      <trkpt lat="41.76596" lon="9.30297">
        <ele>623.6</ele>
        <time>2015-06-18T09:15:40Z</time>
      </trkpt>
      <trkpt lat="41.76598" lon="9.30294">
        <ele>624.6</ele>
        <time>2015-06-18T09:15:49Z</time>
      </trkpt>
      <trkpt lat="41.76595" lon="9.30291">
        <ele>626</ele>
        <time>2015-06-18T09:15:58Z</time>
      </trkpt>
      <trkpt lat="41.76593" lon="9.30286">
        <ele>627</ele>
        <time>2015-06-18T09:16:06Z</time>
      </trkpt>
      <trkpt lat="41.76593" lon="9.3028">
        <ele>628</ele>
        <time>2015-06-18T09:16:14Z</time>
      </trkpt>
      <trkpt lat="41.76596" lon="9.30274">
        <ele>629</ele>
        <time>2015-06-18T09:16:22Z</time>
      </trkpt>
      <trkpt lat="41.76597" lon="9.30267">
        <ele>630.6</ele>
        <time>2015-06-18T09:16:34Z</time>
      </trkpt>
      <trkpt lat="41.76596" lon="9.30263">
        <ele>631.6</ele>
        <time>2015-06-18T09:16:44Z</time>
      </trkpt>
      <trkpt lat="41.76596" lon="9.30259">
        <ele>632.6</ele>
        <time>2015-06-18T09:16:51Z</time>
      </trkpt>
      <trkpt lat="41.76593" lon="9.30255">
        <ele>633.8</ele>
        <time>2015-06-18T09:16:59Z</time>
      </trkpt>
      <trkpt lat="41.76589" lon="9.3025">
        <ele>634.8</ele>
        <time>2015-06-18T09:17:10Z</time>
      </trkpt>
      <trkpt lat="41.76584" lon="9.3024">
        <ele>636.4</ele>
        <time>2015-06-18T09:17:27Z</time>
      </trkpt>
      <trkpt lat="41.76579" lon="9.30236">
        <ele>637.4</ele>
        <time>2015-06-18T09:17:39Z</time>
      </trkpt>
      <trkpt lat="41.76576" lon="9.30235">
        <ele>638.6</ele>
        <time>2015-06-18T09:17:47Z</time>
      </trkpt>
      <trkpt lat="41.76574" lon="9.30232">
        <ele>639.6</ele>
        <time>2015-06-18T09:17:57Z</time>
      </trkpt>
      <trkpt lat="41.76571" lon="9.30228">
        <ele>640.8</ele>
        <time>2015-06-18T09:18:08Z</time>
      </trkpt>
      <trkpt lat="41.76568" lon="9.30224">
        <ele>642</ele>
        <time>2015-06-18T09:18:16Z</time>
      </trkpt>
      <trkpt lat="41.76567" lon="9.30219">
        <ele>643.2</ele>
        <time>2015-06-18T09:18:27Z</time>
      </trkpt>
      <trkpt lat="41.76562" lon="9.30217">
        <ele>644.2</ele>
        <time>2015-06-18T09:18:37Z</time>
      </trkpt>
      <trkpt lat="41.76556" lon="9.30211">
        <ele>645.8</ele>
        <time>2015-06-18T09:18:53Z</time>
      </trkpt>
      <trkpt lat="41.76553" lon="9.30203">
        <ele>646.8</ele>
        <time>2015-06-18T09:19:04Z</time>
      </trkpt>
      <trkpt lat="41.76553" lon="9.30199">
        <ele>647.2</ele>
        <time>2015-06-18T09:19:11Z</time>
      </trkpt>
      <trkpt lat="41.76552" lon="9.30193">
        <ele>649.2</ele>
        <time>2015-06-18T09:19:20Z</time>
      </trkpt>
      <trkpt lat="41.76548" lon="9.30186">
        <ele>650.2</ele>
        <time>2015-06-18T09:19:34Z</time>
      </trkpt>
      <trkpt lat="41.76545" lon="9.30183">
        <ele>651.2</ele>
        <time>2015-06-18T09:19:42Z</time>
      </trkpt>
      <trkpt lat="41.76543" lon="9.30178">
        <ele>652.2</ele>
        <time>2015-06-18T09:19:53Z</time>
      </trkpt>
      <trkpt lat="41.76535" lon="9.30166">
        <ele>653.8</ele>
        <time>2015-06-18T09:20:08Z</time>
      </trkpt>
      <trkpt lat="41.76532" lon="9.30153">
        <ele>654.8</ele>
        <time>2015-06-18T09:20:28Z</time>
      </trkpt>
      <trkpt lat="41.76533" lon="9.30148">
        <ele>655.8</ele>
        <time>2015-06-18T09:20:36Z</time>
      </trkpt>
      <trkpt lat="41.76535" lon="9.30145">
        <ele>657</ele>
        <time>2015-06-18T09:20:45Z</time>
      </trkpt>
      <trkpt lat="41.76537" lon="9.3014">
        <ele>657.8</ele>
        <time>2015-06-18T09:20:53Z</time>
      </trkpt>
      <trkpt lat="41.76535" lon="9.30129">
        <ele>659.2</ele>
        <time>2015-06-18T09:21:04Z</time>
      </trkpt>
      <trkpt lat="41.76534" lon="9.30116">
        <ele>660.4</ele>
        <time>2015-06-18T09:21:17Z</time>
      </trkpt>
      <trkpt lat="41.76535" lon="9.30108">
        <ele>661.2</ele>
        <time>2015-06-18T09:21:29Z</time>
      </trkpt>
      <trkpt lat="41.76535" lon="9.30099">
        <ele>662.6</ele>
        <time>2015-06-18T09:21:39Z</time>
      </trkpt>
      <trkpt lat="41.76536" lon="9.30096">
        <ele>663.2</ele>
        <time>2015-06-18T09:21:46Z</time>
      </trkpt>
      <trkpt lat="41.76534" lon="9.30092">
        <ele>664.6</ele>
        <time>2015-06-18T09:21:55Z</time>
      </trkpt>
      <trkpt lat="41.76535" lon="9.30088">
        <ele>665.4</ele>
        <time>2015-06-18T09:22:03Z</time>
      </trkpt>
      <trkpt lat="41.76532" lon="9.30081">
        <ele>667.2</ele>
        <time>2015-06-18T09:22:15Z</time>
      </trkpt>
      <trkpt lat="41.76531" lon="9.30077">
        <ele>668</ele>
        <time>2015-06-18T09:22:23Z</time>
      </trkpt>
      <trkpt lat="41.76524" lon="9.30073">
        <ele>669.6</ele>
        <time>2015-06-18T09:22:37Z</time>
      </trkpt>
      <trkpt lat="41.76521" lon="9.30069">
        <ele>670.2</ele>
        <time>2015-06-18T09:22:48Z</time>
      </trkpt>
      <trkpt lat="41.76518" lon="9.30064">
        <ele>671.4</ele>
        <time>2015-06-18T09:22:57Z</time>
      </trkpt>
      <trkpt lat="41.76512" lon="9.30059">
        <ele>672.6</ele>
        <time>2015-06-18T09:23:10Z</time>
      </trkpt>
      <trkpt lat="41.76514" lon="9.30056">
        <ele>673.8</ele>
        <time>2015-06-18T09:23:22Z</time>
      </trkpt>
      <trkpt lat="41.76518" lon="9.30054">
        <ele>674.8</ele>
        <time>2015-06-18T09:23:31Z</time>
      </trkpt>
      <trkpt lat="41.76524" lon="9.30048">
        <ele>676.2</ele>
        <time>2015-06-18T09:23:44Z</time>
      </trkpt>
      <trkpt lat="41.76527" lon="9.30041">
        <ele>677.2</ele>
        <time>2015-06-18T09:23:55Z</time>
      </trkpt>
      <trkpt lat="41.76529" lon="9.30035">
        <ele>678.6</ele>
        <time>2015-06-18T09:24:05Z</time>
      </trkpt>
      <trkpt lat="41.76532" lon="9.3003">
        <ele>679.2</ele>
        <time>2015-06-18T09:24:12Z</time>
      </trkpt>
      <trkpt lat="41.76536" lon="9.30024">
        <ele>680.6</ele>
        <time>2015-06-18T09:24:23Z</time>
      </trkpt>
      <trkpt lat="41.76539" lon="9.30023">
        <ele>681.2</ele>
        <time>2015-06-18T09:24:30Z</time>
      </trkpt>
      <trkpt lat="41.76542" lon="9.30018">
        <ele>683</ele>
        <time>2015-06-18T09:24:39Z</time>
      </trkpt>
      <trkpt lat="41.76545" lon="9.30013">
        <ele>683.8</ele>
        <time>2015-06-18T09:24:46Z</time>
      </trkpt>
      <trkpt lat="41.76549" lon="9.30011">
        <ele>685.2</ele>
        <time>2015-06-18T09:24:55Z</time>
      </trkpt>
      <trkpt lat="41.76555" lon="9.30008">
        <ele>686.2</ele>
        <time>2015-06-18T09:25:05Z</time>
      </trkpt>
      <trkpt lat="41.76559" lon="9.30006">
        <ele>687.6</ele>
        <time>2015-06-18T09:25:17Z</time>
      </trkpt>
      <trkpt lat="41.76563" lon="9.30005">
        <ele>688.6</ele>
        <time>2015-06-18T09:25:26Z</time>
      </trkpt>
      <trkpt lat="41.76566" lon="9.30004">
        <ele>689.4</ele>
        <time>2015-06-18T09:25:35Z</time>
      </trkpt>
      <trkpt lat="41.76568" lon="9.30004">
        <ele>690.6</ele>
        <time>2015-06-18T09:25:42Z</time>
      </trkpt>
      <trkpt lat="41.76571" lon="9.30003">
        <ele>692</ele>
        <time>2015-06-18T09:25:52Z</time>
      </trkpt>
      <trkpt lat="41.76577" lon="9.30002">
        <ele>693.4</ele>
        <time>2015-06-18T09:26:02Z</time>
      </trkpt>
      <trkpt lat="41.76581" lon="9.29999">
        <ele>694</ele>
        <time>2015-06-18T09:26:11Z</time>
      </trkpt>
      <trkpt lat="41.76584" lon="9.29994">
        <ele>695.4</ele>
        <time>2015-06-18T09:26:22Z</time>
      </trkpt>
      <trkpt lat="41.76589" lon="9.29993">
        <ele>696.6</ele>
        <time>2015-06-18T09:26:30Z</time>
      </trkpt>
      <trkpt lat="41.76593" lon="9.29993">
        <ele>697.6</ele>
        <time>2015-06-18T09:26:39Z</time>
      </trkpt>
      <trkpt lat="41.76597" lon="9.29993">
        <ele>698.6</ele>
        <time>2015-06-18T09:26:49Z</time>
      </trkpt>
      <trkpt lat="41.76602" lon="9.29992">
        <ele>700</ele>
        <time>2015-06-18T09:26:59Z</time>
      </trkpt>
      <trkpt lat="41.76606" lon="9.2999">
        <ele>701.2</ele>
        <time>2015-06-18T09:27:09Z</time>
      </trkpt>
      <trkpt lat="41.7661" lon="9.29991">
        <ele>702</ele>
        <time>2015-06-18T09:27:18Z</time>
      </trkpt>
      <trkpt lat="41.76613" lon="9.29992">
        <ele>702.8</ele>
        <time>2015-06-18T09:27:22Z</time>
      </trkpt>
      <trkpt lat="41.76618" lon="9.2999">
        <ele>703.6</ele>
        <time>2015-06-18T09:27:31Z</time>
      </trkpt>
      <trkpt lat="41.76619" lon="9.2999">
        <ele>704.6</ele>
        <time>2015-06-18T09:27:45Z</time>
      </trkpt>
      <trkpt lat="41.76624" lon="9.2999">
        <ele>705.4</ele>
        <time>2015-06-18T09:27:53Z</time>
      </trkpt>
      <trkpt lat="41.7663" lon="9.29989">
        <ele>706.6</ele>
        <time>2015-06-18T09:28:03Z</time>
      </trkpt>
      <trkpt lat="41.76638" lon="9.29986">
        <ele>707.6</ele>
        <time>2015-06-18T09:28:14Z</time>
      </trkpt>
      <trkpt lat="41.76643" lon="9.29985">
        <ele>708.8</ele>
        <time>2015-06-18T09:28:23Z</time>
      </trkpt>
      <trkpt lat="41.76653" lon="9.29987">
        <ele>710.2</ele>
        <time>2015-06-18T09:28:39Z</time>
      </trkpt>
      <trkpt lat="41.76666" lon="9.29985">
        <ele>711.4</ele>
        <time>2015-06-18T09:28:54Z</time>
      </trkpt>
      <trkpt lat="41.76672" lon="9.29985">
        <ele>712.4</ele>
        <time>2015-06-18T09:29:04Z</time>
      </trkpt>
      <trkpt lat="41.7668" lon="9.2998">
        <ele>713.4</ele>
        <time>2015-06-18T09:29:15Z</time>
      </trkpt>
      <trkpt lat="41.76685" lon="9.29971">
        <ele>714.4</ele>
        <time>2015-06-18T09:29:28Z</time>
      </trkpt>
      <trkpt lat="41.76689" lon="9.29965">
        <ele>715.8</ele>
        <time>2015-06-18T09:29:40Z</time>
      </trkpt>
      <trkpt lat="41.76692" lon="9.29957">
        <ele>716.6</ele>
        <time>2015-06-18T09:29:49Z</time>
      </trkpt>
      <trkpt lat="41.76699" lon="9.29952">
        <ele>717.4</ele>
        <time>2015-06-18T09:29:59Z</time>
      </trkpt>
      <trkpt lat="41.76708" lon="9.29944">
        <ele>718.6</ele>
        <time>2015-06-18T09:30:12Z</time>
      </trkpt>
      <trkpt lat="41.76712" lon="9.29945">
        <ele>719.4</ele>
        <time>2015-06-18T09:30:22Z</time>
      </trkpt>
      <trkpt lat="41.76717" lon="9.29946">
        <ele>720.6</ele>
        <time>2015-06-18T09:30:32Z</time>
      </trkpt>
      <trkpt lat="41.76724" lon="9.2995">
        <ele>721.6</ele>
        <time>2015-06-18T09:30:43Z</time>
      </trkpt>
      <trkpt lat="41.76766" lon="9.2996">
        <ele>721.2</ele>
        <time>2015-06-18T09:31:27Z</time>
      </trkpt>
      <trkpt lat="41.76795" lon="9.30005">
        <ele>720.8</ele>
        <time>2015-06-18T09:32:07Z</time>
      </trkpt>
      <trkpt lat="41.76799" lon="9.30008">
        <ele>721</ele>
        <time>2015-06-18T09:32:12Z</time>
      </trkpt>
      <trkpt lat="41.76802" lon="9.30012">
        <ele>721.2</ele>
        <time>2015-06-18T09:32:16Z</time>
      </trkpt>
      <trkpt lat="41.76828" lon="9.30012">
        <ele>722</ele>
        <time>2015-06-18T09:32:43Z</time>
      </trkpt>
      <trkpt lat="41.76833" lon="9.30013">
        <ele>722.8</ele>
        <time>2015-06-18T09:32:50Z</time>
      </trkpt>
      <trkpt lat="41.76839" lon="9.30012">
        <ele>723.8</ele>
        <time>2015-06-18T09:32:57Z</time>
      </trkpt>
      <trkpt lat="41.76846" lon="9.3001">
        <ele>725.2</ele>
        <time>2015-06-18T09:33:08Z</time>
      </trkpt>
      <trkpt lat="41.76856" lon="9.30003">
        <ele>726.4</ele>
        <time>2015-06-18T09:33:22Z</time>
      </trkpt>
      <trkpt lat="41.76863" lon="9.3">
        <ele>727.2</ele>
        <time>2015-06-18T09:33:31Z</time>
      </trkpt>
      <trkpt lat="41.76869" lon="9.29998">
        <ele>727.8</ele>
        <time>2015-06-18T09:33:39Z</time>
      </trkpt>
      <trkpt lat="41.76871" lon="9.29992">
        <ele>729</ele>
        <time>2015-06-18T09:33:47Z</time>
      </trkpt>
      <trkpt lat="41.76874" lon="9.29989">
        <ele>730.2</ele>
        <time>2015-06-18T09:33:56Z</time>
      </trkpt>
      <trkpt lat="41.76876" lon="9.29986">
        <ele>731</ele>
        <time>2015-06-18T09:34:02Z</time>
      </trkpt>
      <trkpt lat="41.76878" lon="9.29982">
        <ele>732.4</ele>
        <time>2015-06-18T09:34:09Z</time>
      </trkpt>
      <trkpt lat="41.7688" lon="9.29979">
        <ele>733.4</ele>
        <time>2015-06-18T09:34:16Z</time>
      </trkpt>
      <trkpt lat="41.76885" lon="9.29974">
        <ele>734.6</ele>
        <time>2015-06-18T09:34:25Z</time>
      </trkpt>
      <trkpt lat="41.76889" lon="9.29952">
        <ele>735.8</ele>
        <time>2015-06-18T09:34:44Z</time>
      </trkpt>
      <trkpt lat="41.76917" lon="9.2993">
        <ele>736.4</ele>
        <time>2015-06-18T09:35:27Z</time>
      </trkpt>
      <trkpt lat="41.7692" lon="9.29926">
        <ele>737.4</ele>
        <time>2015-06-18T09:35:33Z</time>
      </trkpt>
      <trkpt lat="41.76922" lon="9.29919">
        <ele>739</ele>
        <time>2015-06-18T09:35:42Z</time>
      </trkpt>
      <trkpt lat="41.76929" lon="9.29915">
        <ele>740.2</ele>
        <time>2015-06-18T09:35:52Z</time>
      </trkpt>
      <trkpt lat="41.76943" lon="9.29898">
        <ele>741.4</ele>
        <time>2015-06-18T09:36:21Z</time>
      </trkpt>
      <trkpt lat="41.76944" lon="9.29896">
        <ele>741.4</ele>
        <time>2015-06-18T09:36:23Z</time>
      </trkpt>
      <trkpt lat="41.76948" lon="9.29889">
        <ele>741.8</ele>
        <time>2015-06-18T09:36:31Z</time>
      </trkpt>
      <trkpt lat="41.76948" lon="9.29888">
        <ele>741.8</ele>
        <time>2015-06-18T09:36:32Z</time>
      </trkpt>
      <trkpt lat="41.76949" lon="9.29887">
        <ele>741.8</ele>
        <time>2015-06-18T09:36:33Z</time>
      </trkpt>
      <trkpt lat="41.76951" lon="9.29879">
        <ele>743.2</ele>
        <time>2015-06-18T09:36:42Z</time>
      </trkpt>
      <trkpt lat="41.76953" lon="9.2987">
        <ele>744.2</ele>
        <time>2015-06-18T09:36:56Z</time>
      </trkpt>
      <trkpt lat="41.76955" lon="9.29865">
        <ele>745</ele>
        <time>2015-06-18T09:37:03Z</time>
      </trkpt>
      <trkpt lat="41.76958" lon="9.29855">
        <ele>746.6</ele>
        <time>2015-06-18T09:37:17Z</time>
      </trkpt>
      <trkpt lat="41.76958" lon="9.29844">
        <ele>747.6</ele>
        <time>2015-06-18T09:37:26Z</time>
      </trkpt>
      <trkpt lat="41.76959" lon="9.29831">
        <ele>748.4</ele>
        <time>2015-06-18T09:37:39Z</time>
      </trkpt>
      <trkpt lat="41.76959" lon="9.29815">
        <ele>749.6</ele>
        <time>2015-06-18T09:37:57Z</time>
      </trkpt>
      <trkpt lat="41.76959" lon="9.29805">
        <ele>750.6</ele>
        <time>2015-06-18T09:38:09Z</time>
      </trkpt>
      <trkpt lat="41.76959" lon="9.29801">
        <ele>751.6</ele>
        <time>2015-06-18T09:38:16Z</time>
      </trkpt>
      <trkpt lat="41.7696" lon="9.29794">
        <ele>752.8</ele>
        <time>2015-06-18T09:38:27Z</time>
      </trkpt>
      <trkpt lat="41.7696" lon="9.29788">
        <ele>753.8</ele>
        <time>2015-06-18T09:38:35Z</time>
      </trkpt>
      <trkpt lat="41.76959" lon="9.29781">
        <ele>755.2</ele>
        <time>2015-06-18T09:38:45Z</time>
      </trkpt>
      <trkpt lat="41.76956" lon="9.29773">
        <ele>756</ele>
        <time>2015-06-18T09:38:55Z</time>
      </trkpt>
      <trkpt lat="41.76957" lon="9.29769">
        <ele>756.6</ele>
        <time>2015-06-18T09:39:01Z</time>
      </trkpt>
      <trkpt lat="41.76955" lon="9.29761">
        <ele>758</ele>
        <time>2015-06-18T09:39:09Z</time>
      </trkpt>
      <trkpt lat="41.76954" lon="9.29755">
        <ele>759.4</ele>
        <time>2015-06-18T09:39:18Z</time>
      </trkpt>
      <trkpt lat="41.76953" lon="9.29748">
        <ele>760</ele>
        <time>2015-06-18T09:39:25Z</time>
      </trkpt>
      <trkpt lat="41.76952" lon="9.29744">
        <ele>761.6</ele>
        <time>2015-06-18T09:39:34Z</time>
      </trkpt>
      <trkpt lat="41.7696" lon="9.29749">
        <ele>763</ele>
        <time>2015-06-18T09:39:48Z</time>
      </trkpt>
      <trkpt lat="41.76965" lon="9.2975">
        <ele>763.6</ele>
        <time>2015-06-18T09:39:55Z</time>
      </trkpt>
      <trkpt lat="41.76969" lon="9.29749">
        <ele>765</ele>
        <time>2015-06-18T09:40:05Z</time>
      </trkpt>
      <trkpt lat="41.76974" lon="9.29749">
        <ele>766.2</ele>
        <time>2015-06-18T09:40:13Z</time>
      </trkpt>
      <trkpt lat="41.76979" lon="9.29749">
        <ele>767.2</ele>
        <time>2015-06-18T09:40:23Z</time>
      </trkpt>
      <trkpt lat="41.76983" lon="9.29754">
        <ele>768.4</ele>
        <time>2015-06-18T09:40:32Z</time>
      </trkpt>
      <trkpt lat="41.76993" lon="9.29764">
        <ele>769.8</ele>
        <time>2015-06-18T09:40:49Z</time>
      </trkpt>
      <trkpt lat="41.77004" lon="9.29775">
        <ele>771.2</ele>
        <time>2015-06-18T09:41:10Z</time>
      </trkpt>
      <trkpt lat="41.77008" lon="9.29774">
        <ele>771.6</ele>
        <time>2015-06-18T09:41:16Z</time>
      </trkpt>
      <trkpt lat="41.77012" lon="9.29771">
        <ele>773.4</ele>
        <time>2015-06-18T09:41:25Z</time>
      </trkpt>
      <trkpt lat="41.77014" lon="9.2977">
        <ele>774</ele>
        <time>2015-06-18T09:41:32Z</time>
      </trkpt>
      <trkpt lat="41.77017" lon="9.29767">
        <ele>775</ele>
        <time>2015-06-18T09:41:39Z</time>
      </trkpt>
      <trkpt lat="41.7702" lon="9.29761">
        <ele>776.4</ele>
        <time>2015-06-18T09:41:49Z</time>
      </trkpt>
      <trkpt lat="41.77024" lon="9.29759">
        <ele>777.4</ele>
        <time>2015-06-18T09:41:56Z</time>
      </trkpt>
      <trkpt lat="41.77028" lon="9.2976">
        <ele>778.8</ele>
        <time>2015-06-18T09:42:05Z</time>
      </trkpt>
      <trkpt lat="41.77031" lon="9.29761">
        <ele>780</ele>
        <time>2015-06-18T09:42:14Z</time>
      </trkpt>
      <trkpt lat="41.77035" lon="9.29762">
        <ele>781.2</ele>
        <time>2015-06-18T09:42:24Z</time>
      </trkpt>
      <trkpt lat="41.7704" lon="9.29762">
        <ele>782.2</ele>
        <time>2015-06-18T09:42:32Z</time>
      </trkpt>
      <trkpt lat="41.77045" lon="9.29764">
        <ele>783.6</ele>
        <time>2015-06-18T09:42:41Z</time>
      </trkpt>
      <trkpt lat="41.77049" lon="9.29764">
        <ele>784.4</ele>
        <time>2015-06-18T09:42:49Z</time>
      </trkpt>
      <trkpt lat="41.77054" lon="9.29764">
        <ele>785.4</ele>
        <time>2015-06-18T09:42:58Z</time>
      </trkpt>
      <trkpt lat="41.77061" lon="9.29761">
        <ele>787.2</ele>
        <time>2015-06-18T09:43:14Z</time>
      </trkpt>
      <trkpt lat="41.77067" lon="9.29762">
        <ele>788</ele>
        <time>2015-06-18T09:43:25Z</time>
      </trkpt>
      <trkpt lat="41.77073" lon="9.2976">
        <ele>789.4</ele>
        <time>2015-06-18T09:43:39Z</time>
      </trkpt>
      <trkpt lat="41.77077" lon="9.29762">
        <ele>790.6</ele>
        <time>2015-06-18T09:43:49Z</time>
      </trkpt>
      <trkpt lat="41.77085" lon="9.29763">
        <ele>792</ele>
        <time>2015-06-18T09:44:04Z</time>
      </trkpt>
      <trkpt lat="41.77089" lon="9.29758">
        <ele>792.4</ele>
        <time>2015-06-18T09:44:09Z</time>
      </trkpt>
      <trkpt lat="41.77089" lon="9.29756">
        <ele>792.4</ele>
        <time>2015-06-18T09:44:11Z</time>
      </trkpt>
      <trkpt lat="41.77089" lon="9.29756">
        <ele>792.8</ele>
        <time>2015-06-18T09:44:14Z</time>
      </trkpt>
      <trkpt lat="41.77091" lon="9.29753">
        <ele>793.8</ele>
        <time>2015-06-18T09:44:26Z</time>
      </trkpt>
      <trkpt lat="41.77094" lon="9.29749">
        <ele>795.2</ele>
        <time>2015-06-18T09:44:35Z</time>
      </trkpt>
      <trkpt lat="41.77098" lon="9.29751">
        <ele>796.2</ele>
        <time>2015-06-18T09:44:44Z</time>
      </trkpt>
      <trkpt lat="41.77105" lon="9.29756">
        <ele>798.4</ele>
        <time>2015-06-18T09:44:58Z</time>
      </trkpt>
      <trkpt lat="41.77114" lon="9.29758">
        <ele>798.8</ele>
        <time>2015-06-18T09:45:09Z</time>
      </trkpt>
      <trkpt lat="41.77117" lon="9.29758">
        <ele>799</ele>
        <time>2015-06-18T09:45:11Z</time>
      </trkpt>
      <trkpt lat="41.77118" lon="9.29758">
        <ele>799.4</ele>
        <time>2015-06-18T09:45:13Z</time>
      </trkpt>
      <trkpt lat="41.77124" lon="9.2976">
        <ele>800.2</ele>
        <time>2015-06-18T09:45:23Z</time>
      </trkpt>
      <trkpt lat="41.7713" lon="9.29766">
        <ele>801.6</ele>
        <time>2015-06-18T09:45:37Z</time>
      </trkpt>
      <trkpt lat="41.77133" lon="9.29771">
        <ele>802.6</ele>
        <time>2015-06-18T09:45:46Z</time>
      </trkpt>
      <trkpt lat="41.77143" lon="9.29776">
        <ele>804</ele>
        <time>2015-06-18T09:46:03Z</time>
      </trkpt>
      <trkpt lat="41.77148" lon="9.29776">
        <ele>805</ele>
        <time>2015-06-18T09:46:12Z</time>
      </trkpt>
      <trkpt lat="41.77153" lon="9.29778">
        <ele>806</ele>
        <time>2015-06-18T09:46:20Z</time>
      </trkpt>
      <trkpt lat="41.77155" lon="9.29777">
        <ele>806.2</ele>
        <time>2015-06-18T09:46:22Z</time>
      </trkpt>
      <trkpt lat="41.77158" lon="9.29777">
        <ele>806.8</ele>
        <time>2015-06-18T09:46:28Z</time>
      </trkpt>
      <trkpt lat="41.77162" lon="9.29779">
        <ele>807.8</ele>
        <time>2015-06-18T09:46:37Z</time>
      </trkpt>
      <trkpt lat="41.77165" lon="9.29782">
        <ele>809</ele>
        <time>2015-06-18T09:46:45Z</time>
      </trkpt>
      <trkpt lat="41.7717" lon="9.29782">
        <ele>810.2</ele>
        <time>2015-06-18T09:46:55Z</time>
      </trkpt>
      <trkpt lat="41.77171" lon="9.29775">
        <ele>812</ele>
        <time>2015-06-18T09:47:23Z</time>
      </trkpt>
      <trkpt lat="41.77175" lon="9.29768">
        <ele>813</ele>
        <time>2015-06-18T09:47:36Z</time>
      </trkpt>
      <trkpt lat="41.7718" lon="9.29761">
        <ele>814</ele>
        <time>2015-06-18T09:47:49Z</time>
      </trkpt>
      <trkpt lat="41.77181" lon="9.29758">
        <ele>814.4</ele>
        <time>2015-06-18T09:47:52Z</time>
      </trkpt>
      <trkpt lat="41.77182" lon="9.29753">
        <ele>814.6</ele>
        <time>2015-06-18T09:47:58Z</time>
      </trkpt>
      <trkpt lat="41.77184" lon="9.29747">
        <ele>816.2</ele>
        <time>2015-06-18T09:48:09Z</time>
      </trkpt>
      <trkpt lat="41.77187" lon="9.2974">
        <ele>817</ele>
        <time>2015-06-18T09:48:18Z</time>
      </trkpt>
      <trkpt lat="41.77187" lon="9.29739">
        <ele>817.2</ele>
        <time>2015-06-18T09:48:20Z</time>
      </trkpt>
      <trkpt lat="41.77188" lon="9.29733">
        <ele>818</ele>
        <time>2015-06-18T09:48:28Z</time>
      </trkpt>
      <trkpt lat="41.77184" lon="9.29728">
        <ele>819.4</ele>
        <time>2015-06-18T09:48:40Z</time>
      </trkpt>
      <trkpt lat="41.77182" lon="9.29724">
        <ele>820.4</ele>
        <time>2015-06-18T09:48:50Z</time>
      </trkpt>
      <trkpt lat="41.77177" lon="9.29723">
        <ele>822</ele>
        <time>2015-06-18T09:49:02Z</time>
      </trkpt>
      <trkpt lat="41.77176" lon="9.29718">
        <ele>822.4</ele>
        <time>2015-06-18T09:49:09Z</time>
      </trkpt>
      <trkpt lat="41.77175" lon="9.29711">
        <ele>824</ele>
        <time>2015-06-18T09:49:20Z</time>
      </trkpt>
      <trkpt lat="41.77178" lon="9.29705">
        <ele>825</ele>
        <time>2015-06-18T09:49:32Z</time>
      </trkpt>
      <trkpt lat="41.77181" lon="9.29702">
        <ele>825.8</ele>
        <time>2015-06-18T09:49:39Z</time>
      </trkpt>
      <trkpt lat="41.77184" lon="9.297">
        <ele>827</ele>
        <time>2015-06-18T09:49:47Z</time>
      </trkpt>
      <trkpt lat="41.77189" lon="9.29701">
        <ele>828</ele>
        <time>2015-06-18T09:49:55Z</time>
      </trkpt>
      <trkpt lat="41.77192" lon="9.29701">
        <ele>829.2</ele>
        <time>2015-06-18T09:50:04Z</time>
      </trkpt>
      <trkpt lat="41.77193" lon="9.29701">
        <ele>830</ele>
        <time>2015-06-18T09:50:11Z</time>
      </trkpt>
      <trkpt lat="41.77199" lon="9.29693">
        <ele>831.8</ele>
        <time>2015-06-18T09:50:22Z</time>
      </trkpt>
      <trkpt lat="41.77199" lon="9.29693">
        <ele>831.6</ele>
        <time>2015-06-18T09:50:23Z</time>
      </trkpt>
      <trkpt lat="41.77201" lon="9.29692">
        <ele>832</ele>
        <time>2015-06-18T09:50:25Z</time>
      </trkpt>
      <trkpt lat="41.77206" lon="9.29687">
        <ele>832.4</ele>
        <time>2015-06-18T09:50:32Z</time>
      </trkpt>
      <trkpt lat="41.77217" lon="9.2968">
        <ele>833.8</ele>
        <time>2015-06-18T09:50:54Z</time>
      </trkpt>
      <trkpt lat="41.77221" lon="9.29674">
        <ele>834.8</ele>
        <time>2015-06-18T09:51:04Z</time>
      </trkpt>
      <trkpt lat="41.77225" lon="9.29668">
        <ele>835.8</ele>
        <time>2015-06-18T09:51:12Z</time>
      </trkpt>
      <trkpt lat="41.77226" lon="9.29663">
        <ele>836.6</ele>
        <time>2015-06-18T09:51:19Z</time>
      </trkpt>
      <trkpt lat="41.77225" lon="9.29654">
        <ele>838.4</ele>
        <time>2015-06-18T09:51:33Z</time>
      </trkpt>
      <trkpt lat="41.77224" lon="9.29651">
        <ele>838.8</ele>
        <time>2015-06-18T09:51:39Z</time>
      </trkpt>
      <trkpt lat="41.77223" lon="9.29648">
        <ele>840</ele>
        <time>2015-06-18T09:51:46Z</time>
      </trkpt>
      <trkpt lat="41.77222" lon="9.2964">
        <ele>841.2</ele>
        <time>2015-06-18T09:51:56Z</time>
      </trkpt>
      <trkpt lat="41.77221" lon="9.29633">
        <ele>842.2</ele>
        <time>2015-06-18T09:52:04Z</time>
      </trkpt>
      <trkpt lat="41.77223" lon="9.29633">
        <ele>843.4</ele>
        <time>2015-06-18T09:52:11Z</time>
      </trkpt>
      <trkpt lat="41.77227" lon="9.29634">
        <ele>844.2</ele>
        <time>2015-06-18T09:52:18Z</time>
      </trkpt>
      <trkpt lat="41.77228" lon="9.29629">
        <ele>845.8</ele>
        <time>2015-06-18T09:52:28Z</time>
      </trkpt>
      <trkpt lat="41.77227" lon="9.29622">
        <ele>846.8</ele>
        <time>2015-06-18T09:52:39Z</time>
      </trkpt>
      <trkpt lat="41.77227" lon="9.2962">
        <ele>847.2</ele>
        <time>2015-06-18T09:52:43Z</time>
      </trkpt>
      <trkpt lat="41.77228" lon="9.29618">
        <ele>847.8</ele>
        <time>2015-06-18T09:52:49Z</time>
      </trkpt>
      <trkpt lat="41.77226" lon="9.29616">
        <ele>848.6</ele>
        <time>2015-06-18T09:52:56Z</time>
      </trkpt>
      <trkpt lat="41.77225" lon="9.29614">
        <ele>850</ele>
        <time>2015-06-18T09:53:06Z</time>
      </trkpt>
      <trkpt lat="41.77222" lon="9.29606">
        <ele>851.2</ele>
        <time>2015-06-18T09:53:15Z</time>
      </trkpt>
      <trkpt lat="41.77219" lon="9.29598">
        <ele>852.6</ele>
        <time>2015-06-18T09:53:29Z</time>
      </trkpt>
      <trkpt lat="41.77225" lon="9.29594">
        <ele>853.6</ele>
        <time>2015-06-18T09:53:43Z</time>
      </trkpt>
      <trkpt lat="41.77229" lon="9.29589">
        <ele>854.8</ele>
        <time>2015-06-18T09:53:55Z</time>
      </trkpt>
      <trkpt lat="41.77234" lon="9.29581">
        <ele>855.8</ele>
        <time>2015-06-18T09:54:08Z</time>
      </trkpt>
      <trkpt lat="41.77235" lon="9.29577">
        <ele>856.8</ele>
        <time>2015-06-18T09:54:17Z</time>
      </trkpt>
      <trkpt lat="41.77238" lon="9.29574">
        <ele>858</ele>
        <time>2015-06-18T09:54:28Z</time>
      </trkpt>
      <trkpt lat="41.77241" lon="9.29569">
        <ele>859</ele>
        <time>2015-06-18T09:54:38Z</time>
      </trkpt>
      <trkpt lat="41.77243" lon="9.29563">
        <ele>860.2</ele>
        <time>2015-06-18T09:54:50Z</time>
      </trkpt>
      <trkpt lat="41.77244" lon="9.29561">
        <ele>861.2</ele>
        <time>2015-06-18T09:54:59Z</time>
      </trkpt>
      <trkpt lat="41.77246" lon="9.29557">
        <ele>862.4</ele>
        <time>2015-06-18T09:55:07Z</time>
      </trkpt>
      <trkpt lat="41.77249" lon="9.29556">
        <ele>863.6</ele>
        <time>2015-06-18T09:55:16Z</time>
      </trkpt>
      <trkpt lat="41.77251" lon="9.29551">
        <ele>864.8</ele>
        <time>2015-06-18T09:55:24Z</time>
      </trkpt>
      <trkpt lat="41.77254" lon="9.29544">
        <ele>866</ele>
        <time>2015-06-18T09:55:36Z</time>
      </trkpt>
      <trkpt lat="41.77258" lon="9.29541">
        <ele>867.4</ele>
        <time>2015-06-18T09:55:44Z</time>
      </trkpt>
      <trkpt lat="41.7726" lon="9.29536">
        <ele>868.4</ele>
        <time>2015-06-18T09:55:54Z</time>
      </trkpt>
      <trkpt lat="41.77261" lon="9.29533">
        <ele>869.8</ele>
        <time>2015-06-18T09:56:05Z</time>
      </trkpt>
      <trkpt lat="41.77262" lon="9.2953">
        <ele>871</ele>
        <time>2015-06-18T09:56:18Z</time>
      </trkpt>
      <trkpt lat="41.77266" lon="9.29528">
        <ele>872.4</ele>
        <time>2015-06-18T09:56:32Z</time>
      </trkpt>
      <trkpt lat="41.77264" lon="9.29516">
        <ele>873.8</ele>
        <time>2015-06-18T09:56:46Z</time>
      </trkpt>
      <trkpt lat="41.77264" lon="9.29514">
        <ele>874.2</ele>
        <time>2015-06-18T09:56:53Z</time>
      </trkpt>
      <trkpt lat="41.77263" lon="9.29511">
        <ele>875.6</ele>
        <time>2015-06-18T09:57:03Z</time>
      </trkpt>
      <trkpt lat="41.77262" lon="9.29509">
        <ele>877</ele>
        <time>2015-06-18T09:57:16Z</time>
      </trkpt>
      <trkpt lat="41.77261" lon="9.29505">
        <ele>877.8</ele>
        <time>2015-06-18T09:57:26Z</time>
      </trkpt>
      <trkpt lat="41.77263" lon="9.29503">
        <ele>879</ele>
        <time>2015-06-18T09:57:35Z</time>
      </trkpt>
      <trkpt lat="41.77264" lon="9.29498">
        <ele>880</ele>
        <time>2015-06-18T09:57:45Z</time>
      </trkpt>
      <trkpt lat="41.77263" lon="9.29491">
        <ele>881.4</ele>
        <time>2015-06-18T09:57:54Z</time>
      </trkpt>
      <trkpt lat="41.77262" lon="9.29485">
        <ele>882.8</ele>
        <time>2015-06-18T09:58:03Z</time>
      </trkpt>
      <trkpt lat="41.77262" lon="9.29479">
        <ele>883.8</ele>
        <time>2015-06-18T09:58:11Z</time>
      </trkpt>
      <trkpt lat="41.77262" lon="9.29474">
        <ele>885</ele>
        <time>2015-06-18T09:58:21Z</time>
      </trkpt>
      <trkpt lat="41.77261" lon="9.2947">
        <ele>886.6</ele>
        <time>2015-06-18T09:58:32Z</time>
      </trkpt>
      <trkpt lat="41.77259" lon="9.29465">
        <ele>887.8</ele>
        <time>2015-06-18T09:58:43Z</time>
      </trkpt>
      <trkpt lat="41.77261" lon="9.29462">
        <ele>888.4</ele>
        <time>2015-06-18T09:58:51Z</time>
      </trkpt>
      <trkpt lat="41.7726" lon="9.29459">
        <ele>890.2</ele>
        <time>2015-06-18T09:59:07Z</time>
      </trkpt>
      <trkpt lat="41.77261" lon="9.29453">
        <ele>891.2</ele>
        <time>2015-06-18T09:59:16Z</time>
      </trkpt>
      <trkpt lat="41.77263" lon="9.29452">
        <ele>892.4</ele>
        <time>2015-06-18T09:59:27Z</time>
      </trkpt>
      <trkpt lat="41.77264" lon="9.29448">
        <ele>893.8</ele>
        <time>2015-06-18T09:59:37Z</time>
      </trkpt>
      <trkpt lat="41.77263" lon="9.29443">
        <ele>894.8</ele>
        <time>2015-06-18T09:59:46Z</time>
      </trkpt>
      <trkpt lat="41.77267" lon="9.29436">
        <ele>896.4</ele>
        <time>2015-06-18T09:59:57Z</time>
      </trkpt>
      <trkpt lat="41.77265" lon="9.2943">
        <ele>897.2</ele>
        <time>2015-06-18T10:00:04Z</time>
      </trkpt>
      <trkpt lat="41.77264" lon="9.29425">
        <ele>898.8</ele>
        <time>2015-06-18T10:00:13Z</time>
      </trkpt>
      <trkpt lat="41.77262" lon="9.29418">
        <ele>900</ele>
        <time>2015-06-18T10:00:24Z</time>
      </trkpt>
      <trkpt lat="41.77261" lon="9.29411">
        <ele>901.2</ele>
        <time>2015-06-18T10:00:34Z</time>
      </trkpt>
      <trkpt lat="41.77259" lon="9.29405">
        <ele>902.4</ele>
        <time>2015-06-18T10:00:43Z</time>
      </trkpt>
      <trkpt lat="41.77257" lon="9.294">
        <ele>903.8</ele>
        <time>2015-06-18T10:00:54Z</time>
      </trkpt>
      <trkpt lat="41.77254" lon="9.29392">
        <ele>905</ele>
        <time>2015-06-18T10:01:06Z</time>
      </trkpt>
      <trkpt lat="41.77252" lon="9.29386">
        <ele>906.2</ele>
        <time>2015-06-18T10:01:20Z</time>
      </trkpt>
      <trkpt lat="41.7725" lon="9.29381">
        <ele>907</ele>
        <time>2015-06-18T10:01:28Z</time>
      </trkpt>
      <trkpt lat="41.77249" lon="9.29377">
        <ele>908.4</ele>
        <time>2015-06-18T10:01:36Z</time>
      </trkpt>
      <trkpt lat="41.77249" lon="9.29393">
        <ele>909.2</ele>
        <time>2015-06-18T10:01:42Z</time>
      </trkpt>
      <trkpt lat="41.77249" lon="9.29394">
        <ele>909.8</ele>
        <time>2015-06-18T10:01:44Z</time>
      </trkpt>
      <trkpt lat="41.77249" lon="9.29394">
        <ele>909.8</ele>
        <time>2015-06-18T10:01:45Z</time>
      </trkpt>
      <trkpt lat="41.77245" lon="9.29395">
        <ele>911</ele>
        <time>2015-06-18T10:01:55Z</time>
      </trkpt>
      <trkpt lat="41.77243" lon="9.29393">
        <ele>911.8</ele>
        <time>2015-06-18T10:02:01Z</time>
      </trkpt>
      <trkpt lat="41.77243" lon="9.29395">
        <ele>913.2</ele>
        <time>2015-06-18T10:02:10Z</time>
      </trkpt>
      <trkpt lat="41.77244" lon="9.29394">
        <ele>913.8</ele>
        <time>2015-06-18T10:02:17Z</time>
      </trkpt>
      <trkpt lat="41.77244" lon="9.29392">
        <ele>915.2</ele>
        <time>2015-06-18T10:02:25Z</time>
      </trkpt>
      <trkpt lat="41.77244" lon="9.29384">
        <ele>916.6</ele>
        <time>2015-06-18T10:02:38Z</time>
      </trkpt>
      <trkpt lat="41.77246" lon="9.29375">
        <ele>917.6</ele>
        <time>2015-06-18T10:02:52Z</time>
      </trkpt>
      <trkpt lat="41.77245" lon="9.29366">
        <ele>918.6</ele>
        <time>2015-06-18T10:03:04Z</time>
      </trkpt>
      <trkpt lat="41.77247" lon="9.29364">
        <ele>919.4</ele>
        <time>2015-06-18T10:03:12Z</time>
      </trkpt>
      <trkpt lat="41.77251" lon="9.29354">
        <ele>920.6</ele>
        <time>2015-06-18T10:03:25Z</time>
      </trkpt>
      <trkpt lat="41.77251" lon="9.29349">
        <ele>921</ele>
        <time>2015-06-18T10:03:33Z</time>
      </trkpt>
      <trkpt lat="41.77251" lon="9.29341">
        <ele>922.2</ele>
        <time>2015-06-18T10:03:42Z</time>
      </trkpt>
      <trkpt lat="41.77253" lon="9.29335">
        <ele>923.6</ele>
        <time>2015-06-18T10:03:53Z</time>
      </trkpt>
      <trkpt lat="41.77252" lon="9.29325">
        <ele>924.4</ele>
        <time>2015-06-18T10:04:02Z</time>
      </trkpt>
      <trkpt lat="41.77259" lon="9.29311">
        <ele>924.4</ele>
        <time>2015-06-18T10:04:15Z</time>
      </trkpt>
      <trkpt lat="41.7726" lon="9.2931">
        <ele>924.4</ele>
        <time>2015-06-18T10:04:17Z</time>
      </trkpt>
      <trkpt lat="41.77275" lon="9.29265">
        <ele>924</ele>
        <time>2015-06-18T10:05:10Z</time>
      </trkpt>
      <trkpt lat="41.77274" lon="9.29261">
        <ele>923.8</ele>
        <time>2015-06-18T10:05:14Z</time>
      </trkpt>
      <trkpt lat="41.77238" lon="9.29229">
        <ele>922.4</ele>
        <time>2015-06-18T10:05:59Z</time>
      </trkpt>
      <trkpt lat="41.77213" lon="9.29211">
        <ele>922.8</ele>
        <time>2015-06-18T10:06:29Z</time>
      </trkpt>
      <trkpt lat="41.77229" lon="9.2922">
        <ele>922.8</ele>
        <time>2015-06-18T10:07:20Z</time>
      </trkpt>
      <trkpt lat="41.77235" lon="9.29215">
        <ele>922.8</ele>
        <time>2015-06-18T10:07:26Z</time>
      </trkpt>
      <trkpt lat="41.77243" lon="9.2921">
        <ele>923.6</ele>
        <time>2015-06-18T10:07:33Z</time>
      </trkpt>
      <trkpt lat="41.77247" lon="9.29194">
        <ele>924.6</ele>
        <time>2015-06-18T10:07:44Z</time>
      </trkpt>
      <trkpt lat="41.77247" lon="9.29194">
        <ele>924.6</ele>
        <time>2015-06-18T10:07:45Z</time>
      </trkpt>
      <trkpt lat="41.77237" lon="9.29179">
        <ele>925.6</ele>
        <time>2015-06-18T10:07:59Z</time>
      </trkpt>
      <trkpt lat="41.77237" lon="9.29149">
        <ele>926.6</ele>
        <time>2015-06-18T10:08:21Z</time>
      </trkpt>
      <trkpt lat="41.77236" lon="9.29136">
        <ele>927.2</ele>
        <time>2015-06-18T10:08:33Z</time>
      </trkpt>
      <trkpt lat="41.77237" lon="9.29122">
        <ele>928.4</ele>
        <time>2015-06-18T10:08:45Z</time>
      </trkpt>
      <trkpt lat="41.77235" lon="9.29106">
        <ele>929.2</ele>
        <time>2015-06-18T10:08:57Z</time>
      </trkpt>
      <trkpt lat="41.77232" lon="9.29088">
        <ele>929.8</ele>
        <time>2015-06-18T10:09:09Z</time>
      </trkpt>
      <trkpt lat="41.77232" lon="9.29079">
        <ele>930.8</ele>
        <time>2015-06-18T10:09:18Z</time>
      </trkpt>
      <trkpt lat="41.77229" lon="9.29072">
        <ele>931.4</ele>
        <time>2015-06-18T10:09:24Z</time>
      </trkpt>
      <trkpt lat="41.77229" lon="9.29065">
        <ele>932.6</ele>
        <time>2015-06-18T10:09:30Z</time>
      </trkpt>
      <trkpt lat="41.7723" lon="9.29026">
        <ele>932</ele>
        <time>2015-06-18T10:10:51Z</time>
      </trkpt>
      <trkpt lat="41.77231" lon="9.29009">
        <ele>931.6</ele>
        <time>2015-06-18T10:11:15Z</time>
      </trkpt>
      <trkpt lat="41.77231" lon="9.29008">
        <ele>931.8</ele>
        <time>2015-06-18T10:11:16Z</time>
      </trkpt>
      <trkpt lat="41.77232" lon="9.29006">
        <ele>932.4</ele>
        <time>2015-06-18T10:11:24Z</time>
      </trkpt>
      <trkpt lat="41.77234" lon="9.29005">
        <ele>933.8</ele>
        <time>2015-06-18T10:11:37Z</time>
      </trkpt>
      <trkpt lat="41.77235" lon="9.29005">
        <ele>934.8</ele>
        <time>2015-06-18T10:11:45Z</time>
      </trkpt>
      <trkpt lat="41.77237" lon="9.29">
        <ele>935.8</ele>
        <time>2015-06-18T10:12:01Z</time>
      </trkpt>
      <trkpt lat="41.7724" lon="9.28999">
        <ele>936.4</ele>
        <time>2015-06-18T10:12:10Z</time>
      </trkpt>
      <trkpt lat="41.77246" lon="9.28998">
        <ele>937.2</ele>
        <time>2015-06-18T10:12:21Z</time>
      </trkpt>
      <trkpt lat="41.77249" lon="9.28997">
        <ele>937.4</ele>
        <time>2015-06-18T10:12:24Z</time>
      </trkpt>
      <trkpt lat="41.77251" lon="9.28994">
        <ele>938</ele>
        <time>2015-06-18T10:12:28Z</time>
      </trkpt>
      <trkpt lat="41.77252" lon="9.28992">
        <ele>938.4</ele>
        <time>2015-06-18T10:12:31Z</time>
      </trkpt>
      <trkpt lat="41.77252" lon="9.28991">
        <ele>938.4</ele>
        <time>2015-06-18T10:12:33Z</time>
      </trkpt>
      <trkpt lat="41.77253" lon="9.28987">
        <ele>939.4</ele>
        <time>2015-06-18T10:12:41Z</time>
      </trkpt>
      <trkpt lat="41.77255" lon="9.28981">
        <ele>940.6</ele>
        <time>2015-06-18T10:12:50Z</time>
      </trkpt>
      <trkpt lat="41.7726" lon="9.28973">
        <ele>941.6</ele>
        <time>2015-06-18T10:13:01Z</time>
      </trkpt>
      <trkpt lat="41.77263" lon="9.28971">
        <ele>941.8</ele>
        <time>2015-06-18T10:13:05Z</time>
      </trkpt>
      <trkpt lat="41.77265" lon="9.28969">
        <ele>942.2</ele>
        <time>2015-06-18T10:13:08Z</time>
      </trkpt>
      <trkpt lat="41.77267" lon="9.28964">
        <ele>943.2</ele>
        <time>2015-06-18T10:13:14Z</time>
      </trkpt>
      <trkpt lat="41.77271" lon="9.2896">
        <ele>944.4</ele>
        <time>2015-06-18T10:13:21Z</time>
      </trkpt>
      <trkpt lat="41.77274" lon="9.28956">
        <ele>945.4</ele>
        <time>2015-06-18T10:13:29Z</time>
      </trkpt>
      <trkpt lat="41.77277" lon="9.28951">
        <ele>946.8</ele>
        <time>2015-06-18T10:13:41Z</time>
      </trkpt>
      <trkpt lat="41.77283" lon="9.28947">
        <ele>947.8</ele>
        <time>2015-06-18T10:13:54Z</time>
      </trkpt>
      <trkpt lat="41.77285" lon="9.28943">
        <ele>948.4</ele>
        <time>2015-06-18T10:14:00Z</time>
      </trkpt>
      <trkpt lat="41.77286" lon="9.2894">
        <ele>949.2</ele>
        <time>2015-06-18T10:14:05Z</time>
      </trkpt>
      <trkpt lat="41.77287" lon="9.28937">
        <ele>950.2</ele>
        <time>2015-06-18T10:14:09Z</time>
      </trkpt>
      <trkpt lat="41.77288" lon="9.28934">
        <ele>951.6</ele>
        <time>2015-06-18T10:14:15Z</time>
      </trkpt>
      <trkpt lat="41.77289" lon="9.28929">
        <ele>953</ele>
        <time>2015-06-18T10:14:23Z</time>
      </trkpt>
      <trkpt lat="41.77289" lon="9.28923">
        <ele>954.2</ele>
        <time>2015-06-18T10:14:31Z</time>
      </trkpt>
      <trkpt lat="41.77289" lon="9.28904">
        <ele>955.4</ele>
        <time>2015-06-18T10:14:49Z</time>
      </trkpt>
      <trkpt lat="41.77291" lon="9.28901">
        <ele>955.6</ele>
        <time>2015-06-18T10:14:55Z</time>
      </trkpt>
      <trkpt lat="41.77295" lon="9.28898">
        <ele>956.6</ele>
        <time>2015-06-18T10:15:01Z</time>
      </trkpt>
      <trkpt lat="41.77302" lon="9.28896">
        <ele>958.2</ele>
        <time>2015-06-18T10:15:15Z</time>
      </trkpt>
      <trkpt lat="41.77306" lon="9.28897">
        <ele>959</ele>
        <time>2015-06-18T10:15:26Z</time>
      </trkpt>
      <trkpt lat="41.77312" lon="9.28896">
        <ele>960</ele>
        <time>2015-06-18T10:15:35Z</time>
      </trkpt>
      <trkpt lat="41.77317" lon="9.28896">
        <ele>961</ele>
        <time>2015-06-18T10:15:42Z</time>
      </trkpt>
      <trkpt lat="41.77324" lon="9.28894">
        <ele>962.2</ele>
        <time>2015-06-18T10:15:52Z</time>
      </trkpt>
      <trkpt lat="41.77326" lon="9.28894">
        <ele>962.6</ele>
        <time>2015-06-18T10:15:57Z</time>
      </trkpt>
      <trkpt lat="41.77328" lon="9.28893">
        <ele>963.6</ele>
        <time>2015-06-18T10:16:03Z</time>
      </trkpt>
      <trkpt lat="41.77332" lon="9.28891">
        <ele>965</ele>
        <time>2015-06-18T10:16:12Z</time>
      </trkpt>
      <trkpt lat="41.77346" lon="9.28889">
        <ele>966.4</ele>
        <time>2015-06-18T10:16:37Z</time>
      </trkpt>
      <trkpt lat="41.77349" lon="9.28887">
        <ele>967</ele>
        <time>2015-06-18T10:16:43Z</time>
      </trkpt>
      <trkpt lat="41.77353" lon="9.28882">
        <ele>968.2</ele>
        <time>2015-06-18T10:16:51Z</time>
      </trkpt>
      <trkpt lat="41.77358" lon="9.28878">
        <ele>969.2</ele>
        <time>2015-06-18T10:17:01Z</time>
      </trkpt>
      <trkpt lat="41.77361" lon="9.28869">
        <ele>970.4</ele>
        <time>2015-06-18T10:17:14Z</time>
      </trkpt>
      <trkpt lat="41.77362" lon="9.28865">
        <ele>971</ele>
        <time>2015-06-18T10:17:22Z</time>
      </trkpt>
      <trkpt lat="41.77363" lon="9.2886">
        <ele>971.8</ele>
        <time>2015-06-18T10:17:28Z</time>
      </trkpt>
      <trkpt lat="41.77366" lon="9.28857">
        <ele>973.4</ele>
        <time>2015-06-18T10:17:36Z</time>
      </trkpt>
      <trkpt lat="41.77369" lon="9.28857">
        <ele>974.2</ele>
        <time>2015-06-18T10:17:44Z</time>
      </trkpt>
      <trkpt lat="41.77371" lon="9.28855">
        <ele>975.6</ele>
        <time>2015-06-18T10:17:54Z</time>
      </trkpt>
      <trkpt lat="41.77373" lon="9.28854">
        <ele>976.2</ele>
        <time>2015-06-18T10:18:01Z</time>
      </trkpt>
      <trkpt lat="41.77378" lon="9.28852">
        <ele>977.4</ele>
        <time>2015-06-18T10:18:09Z</time>
      </trkpt>
      <trkpt lat="41.77378" lon="9.28847">
        <ele>978.6</ele>
        <time>2015-06-18T10:18:18Z</time>
      </trkpt>
      <trkpt lat="41.7738" lon="9.28845">
        <ele>979.4</ele>
        <time>2015-06-18T10:18:25Z</time>
      </trkpt>
      <trkpt lat="41.77382" lon="9.28843">
        <ele>980.6</ele>
        <time>2015-06-18T10:18:33Z</time>
      </trkpt>
      <trkpt lat="41.77385" lon="9.2884">
        <ele>981.4</ele>
        <time>2015-06-18T10:18:39Z</time>
      </trkpt>
      <trkpt lat="41.77388" lon="9.28835">
        <ele>982.6</ele>
        <time>2015-06-18T10:18:47Z</time>
      </trkpt>
      <trkpt lat="41.77389" lon="9.28833">
        <ele>983.4</ele>
        <time>2015-06-18T10:18:54Z</time>
      </trkpt>
      <trkpt lat="41.77392" lon="9.2883">
        <ele>984.4</ele>
        <time>2015-06-18T10:19:01Z</time>
      </trkpt>
      <trkpt lat="41.77396" lon="9.28825">
        <ele>985.8</ele>
        <time>2015-06-18T10:19:11Z</time>
      </trkpt>
      <trkpt lat="41.77398" lon="9.28822">
        <ele>986.8</ele>
        <time>2015-06-18T10:19:19Z</time>
      </trkpt>
      <trkpt lat="41.77401" lon="9.28808">
        <ele>988</ele>
        <time>2015-06-18T10:19:35Z</time>
      </trkpt>
      <trkpt lat="41.77402" lon="9.28808">
        <ele>988.2</ele>
        <time>2015-06-18T10:19:37Z</time>
      </trkpt>
      <trkpt lat="41.77404" lon="9.28805">
        <ele>988.6</ele>
        <time>2015-06-18T10:19:44Z</time>
      </trkpt>
      <trkpt lat="41.77405" lon="9.28795">
        <ele>990</ele>
        <time>2015-06-18T10:19:53Z</time>
      </trkpt>
      <trkpt lat="41.77415" lon="9.28785">
        <ele>991.4</ele>
        <time>2015-06-18T10:20:18Z</time>
      </trkpt>
      <trkpt lat="41.77418" lon="9.2878">
        <ele>991.8</ele>
        <time>2015-06-18T10:20:29Z</time>
      </trkpt>
      <trkpt lat="41.77423" lon="9.28777">
        <ele>992.8</ele>
        <time>2015-06-18T10:20:43Z</time>
      </trkpt>
      <trkpt lat="41.77427" lon="9.28774">
        <ele>993.8</ele>
        <time>2015-06-18T10:20:51Z</time>
      </trkpt>
      <trkpt lat="41.77438" lon="9.28764">
        <ele>995</ele>
        <time>2015-06-18T10:21:07Z</time>
      </trkpt>
      <trkpt lat="41.77443" lon="9.2876">
        <ele>995.8</ele>
        <time>2015-06-18T10:21:16Z</time>
      </trkpt>
      <trkpt lat="41.7745" lon="9.28757">
        <ele>997</ele>
        <time>2015-06-18T10:21:26Z</time>
      </trkpt>
      <trkpt lat="41.77456" lon="9.28755">
        <ele>998</ele>
        <time>2015-06-18T10:21:35Z</time>
      </trkpt>
      <trkpt lat="41.77464" lon="9.28731">
        <ele>999.2</ele>
        <time>2015-06-18T10:21:59Z</time>
      </trkpt>
      <trkpt lat="41.77464" lon="9.28729">
        <ele>999.4</ele>
        <time>2015-06-18T10:22:00Z</time>
      </trkpt>
      <trkpt lat="41.77464" lon="9.28711">
        <ele>999.8</ele>
        <time>2015-06-18T10:22:14Z</time>
      </trkpt>
      <trkpt lat="41.7748" lon="9.28691">
        <ele>1000.2</ele>
        <time>2015-06-18T10:22:47Z</time>
      </trkpt>
      <trkpt lat="41.77484" lon="9.28688">
        <ele>1000.4</ele>
        <time>2015-06-18T10:22:52Z</time>
      </trkpt>
      <trkpt lat="41.7749" lon="9.2868">
        <ele>1001</ele>
        <time>2015-06-18T10:22:59Z</time>
      </trkpt>
      <trkpt lat="41.77497" lon="9.28665">
        <ele>1001.8</ele>
        <time>2015-06-18T10:23:16Z</time>
      </trkpt>
      <trkpt lat="41.77498" lon="9.28656">
        <ele>1002.4</ele>
        <time>2015-06-18T10:23:25Z</time>
      </trkpt>
      <trkpt lat="41.7751" lon="9.28599">
        <ele>1003.6</ele>
        <time>2015-06-18T10:24:08Z</time>
      </trkpt>
      <trkpt lat="41.77512" lon="9.28592">
        <ele>1003.6</ele>
        <time>2015-06-18T10:24:13Z</time>
      </trkpt>
      <trkpt lat="41.77549" lon="9.28559">
        <ele>1003</ele>
        <time>2015-06-18T10:24:55Z</time>
      </trkpt>
      <trkpt lat="41.7755" lon="9.28558">
        <ele>1003</ele>
        <time>2015-06-18T10:24:56Z</time>
      </trkpt>
      <trkpt lat="41.77553" lon="9.28556">
        <ele>1002.8</ele>
        <time>2015-06-18T10:24:59Z</time>
      </trkpt>
      <trkpt lat="41.77554" lon="9.28555">
        <ele>1002.8</ele>
        <time>2015-06-18T10:25:00Z</time>
      </trkpt>
      <trkpt lat="41.77562" lon="9.28544">
        <ele>1002.6</ele>
        <time>2015-06-18T10:25:12Z</time>
      </trkpt>
      <trkpt lat="41.77581" lon="9.28527">
        <ele>1001.8</ele>
        <time>2015-06-18T10:25:36Z</time>
      </trkpt>
      <trkpt lat="41.77599" lon="9.28508">
        <ele>1001.4</ele>
        <time>2015-06-18T10:26:00Z</time>
      </trkpt>
      <trkpt lat="41.77631" lon="9.2847">
        <ele>1000</ele>
        <time>2015-06-18T10:26:45Z</time>
      </trkpt>
      <trkpt lat="41.77659" lon="9.28452">
        <ele>999.4</ele>
        <time>2015-06-18T10:27:18Z</time>
      </trkpt>
      <trkpt lat="41.77662" lon="9.28449">
        <ele>999</ele>
        <time>2015-06-18T10:27:24Z</time>
      </trkpt>
      <trkpt lat="41.77668" lon="9.28444">
        <ele>997.6</ele>
        <time>2015-06-18T10:27:33Z</time>
      </trkpt>
      <trkpt lat="41.77677" lon="9.28437">
        <ele>996.2</ele>
        <time>2015-06-18T10:27:46Z</time>
      </trkpt>
      <trkpt lat="41.77684" lon="9.28433">
        <ele>995.2</ele>
        <time>2015-06-18T10:27:57Z</time>
      </trkpt>
      <trkpt lat="41.77686" lon="9.28432">
        <ele>995</ele>
        <time>2015-06-18T10:28:01Z</time>
      </trkpt>
      <trkpt lat="41.77692" lon="9.2843">
        <ele>994</ele>
        <time>2015-06-18T10:28:10Z</time>
      </trkpt>
      <trkpt lat="41.77699" lon="9.28427">
        <ele>993.4</ele>
        <time>2015-06-18T10:28:16Z</time>
      </trkpt>
      <trkpt lat="41.77711" lon="9.28421">
        <ele>992.6</ele>
        <time>2015-06-18T10:28:30Z</time>
      </trkpt>
      <trkpt lat="41.77721" lon="9.28419">
        <ele>991.6</ele>
        <time>2015-06-18T10:28:40Z</time>
      </trkpt>
      <trkpt lat="41.77739" lon="9.28422">
        <ele>990.4</ele>
        <time>2015-06-18T10:29:01Z</time>
      </trkpt>
      <trkpt lat="41.77759" lon="9.28418">
        <ele>989.2</ele>
        <time>2015-06-18T10:29:18Z</time>
      </trkpt>
      <trkpt lat="41.77765" lon="9.28417">
        <ele>988.8</ele>
        <time>2015-06-18T10:29:25Z</time>
      </trkpt>
      <trkpt lat="41.77786" lon="9.28414">
        <ele>987.6</ele>
        <time>2015-06-18T10:29:46Z</time>
      </trkpt>
      <trkpt lat="41.77788" lon="9.28414">
        <ele>987.6</ele>
        <time>2015-06-18T10:29:48Z</time>
      </trkpt>
      <trkpt lat="41.77794" lon="9.28411">
        <ele>987.2</ele>
        <time>2015-06-18T10:29:55Z</time>
      </trkpt>
      <trkpt lat="41.77832" lon="9.28387">
        <ele>988</ele>
        <time>2015-06-18T10:30:40Z</time>
      </trkpt>
      <trkpt lat="41.77851" lon="9.28367">
        <ele>988</ele>
        <time>2015-06-18T10:31:07Z</time>
      </trkpt>
      <trkpt lat="41.77853" lon="9.28363">
        <ele>987.2</ele>
        <time>2015-06-18T10:31:13Z</time>
      </trkpt>
      <trkpt lat="41.77855" lon="9.28355">
        <ele>985.8</ele>
        <time>2015-06-18T10:31:20Z</time>
      </trkpt>
      <trkpt lat="41.77868" lon="9.28333">
        <ele>985.2</ele>
        <time>2015-06-18T10:31:42Z</time>
      </trkpt>
      <trkpt lat="41.77872" lon="9.2832">
        <ele>986.6</ele>
        <time>2015-06-18T10:31:58Z</time>
      </trkpt>
      <trkpt lat="41.77874" lon="9.28315">
        <ele>988</ele>
        <time>2015-06-18T10:32:06Z</time>
      </trkpt>
      <trkpt lat="41.77875" lon="9.28321">
        <ele>987.2</ele>
        <time>2015-06-18T10:38:13Z</time>
      </trkpt>
      <trkpt lat="41.77875" lon="9.28321">
        <ele>987.4</ele>
        <time>2015-06-18T10:38:17Z</time>
      </trkpt>
      <trkpt lat="41.77868" lon="9.28305">
        <ele>988.4</ele>
        <time>2015-06-18T11:17:32Z</time>
      </trkpt>
      <trkpt lat="41.77868" lon="9.28296">
        <ele>990.2</ele>
        <time>2015-06-18T11:17:47Z</time>
      </trkpt>
      <trkpt lat="41.77871" lon="9.28295">
        <ele>989.8</ele>
        <time>2015-06-18T11:17:52Z</time>
      </trkpt>
      <trkpt lat="41.77873" lon="9.28296">
        <ele>990.4</ele>
        <time>2015-06-18T11:17:57Z</time>
      </trkpt>
      <trkpt lat="41.77878" lon="9.28296">
        <ele>992.2</ele>
        <time>2015-06-18T11:18:06Z</time>
      </trkpt>
      <trkpt lat="41.77882" lon="9.28296">
        <ele>993.2</ele>
        <time>2015-06-18T11:18:12Z</time>
      </trkpt>
      <trkpt lat="41.77885" lon="9.28295">
        <ele>994.2</ele>
        <time>2015-06-18T11:18:18Z</time>
      </trkpt>
      <trkpt lat="41.77886" lon="9.28292">
        <ele>995</ele>
        <time>2015-06-18T11:18:24Z</time>
      </trkpt>
      <trkpt lat="41.77891" lon="9.2829">
        <ele>996.4</ele>
        <time>2015-06-18T11:18:34Z</time>
      </trkpt>
      <trkpt lat="41.77893" lon="9.28284">
        <ele>997.8</ele>
        <time>2015-06-18T11:18:45Z</time>
      </trkpt>
      <trkpt lat="41.77896" lon="9.28281">
        <ele>998.8</ele>
        <time>2015-06-18T11:18:53Z</time>
      </trkpt>
      <trkpt lat="41.77898" lon="9.28278">
        <ele>999.8</ele>
        <time>2015-06-18T11:19:01Z</time>
      </trkpt>
      <trkpt lat="41.779" lon="9.28276">
        <ele>1001</ele>
        <time>2015-06-18T11:19:08Z</time>
      </trkpt>
      <trkpt lat="41.779" lon="9.28272">
        <ele>1001.8</ele>
        <time>2015-06-18T11:19:15Z</time>
      </trkpt>
      <trkpt lat="41.77903" lon="9.2827">
        <ele>1003</ele>
        <time>2015-06-18T11:19:22Z</time>
      </trkpt>
      <trkpt lat="41.77906" lon="9.28269">
        <ele>1004</ele>
        <time>2015-06-18T11:19:28Z</time>
      </trkpt>
      <trkpt lat="41.7791" lon="9.2827">
        <ele>1005.4</ele>
        <time>2015-06-18T11:19:36Z</time>
      </trkpt>
      <trkpt lat="41.77914" lon="9.2827">
        <ele>1006.2</ele>
        <time>2015-06-18T11:19:42Z</time>
      </trkpt>
      <trkpt lat="41.77919" lon="9.28268">
        <ele>1007.8</ele>
        <time>2015-06-18T11:19:51Z</time>
      </trkpt>
      <trkpt lat="41.77926" lon="9.2826">
        <ele>1009.2</ele>
        <time>2015-06-18T11:20:04Z</time>
      </trkpt>
      <trkpt lat="41.7793" lon="9.28256">
        <ele>1010</ele>
        <time>2015-06-18T11:20:13Z</time>
      </trkpt>
      <trkpt lat="41.77939" lon="9.28237">
        <ele>1010.8</ele>
        <time>2015-06-18T11:20:32Z</time>
      </trkpt>
      <trkpt lat="41.77952" lon="9.28217">
        <ele>1010</ele>
        <time>2015-06-18T11:20:51Z</time>
      </trkpt>
      <trkpt lat="41.77961" lon="9.28202">
        <ele>1009.2</ele>
        <time>2015-06-18T11:21:05Z</time>
      </trkpt>
      <trkpt lat="41.77965" lon="9.28191">
        <ele>1008.4</ele>
        <time>2015-06-18T11:21:15Z</time>
      </trkpt>
      <trkpt lat="41.77965" lon="9.2819">
        <ele>1008.2</ele>
        <time>2015-06-18T11:21:16Z</time>
      </trkpt>
      <trkpt lat="41.77965" lon="9.28187">
        <ele>1008</ele>
        <time>2015-06-18T11:21:18Z</time>
      </trkpt>
      <trkpt lat="41.77965" lon="9.28183">
        <ele>1007.6</ele>
        <time>2015-06-18T11:21:21Z</time>
      </trkpt>
      <trkpt lat="41.77968" lon="9.28176">
        <ele>1007.2</ele>
        <time>2015-06-18T11:21:27Z</time>
      </trkpt>
      <trkpt lat="41.77971" lon="9.28174">
        <ele>1007</ele>
        <time>2015-06-18T11:21:30Z</time>
      </trkpt>
      <trkpt lat="41.77973" lon="9.28168">
        <ele>1006.2</ele>
        <time>2015-06-18T11:21:35Z</time>
      </trkpt>
      <trkpt lat="41.77982" lon="9.28157">
        <ele>1005.4</ele>
        <time>2015-06-18T11:21:51Z</time>
      </trkpt>
      <trkpt lat="41.77982" lon="9.28156">
        <ele>1005.6</ele>
        <time>2015-06-18T11:21:52Z</time>
      </trkpt>
      <trkpt lat="41.77999" lon="9.28133">
        <ele>1007</ele>
        <time>2015-06-18T11:22:30Z</time>
      </trkpt>
      <trkpt lat="41.78002" lon="9.28131">
        <ele>1008.6</ele>
        <time>2015-06-18T11:22:40Z</time>
      </trkpt>
      <trkpt lat="41.78005" lon="9.28129">
        <ele>1009.4</ele>
        <time>2015-06-18T11:22:48Z</time>
      </trkpt>
      <trkpt lat="41.78009" lon="9.28129">
        <ele>1010.2</ele>
        <time>2015-06-18T11:24:43Z</time>
      </trkpt>
      <trkpt lat="41.78016" lon="9.28126">
        <ele>1009</ele>
        <time>2015-06-18T11:25:00Z</time>
      </trkpt>
      <trkpt lat="41.78016" lon="9.28124">
        <ele>1008.4</ele>
        <time>2015-06-18T11:25:08Z</time>
      </trkpt>
      <trkpt lat="41.7802" lon="9.28124">
        <ele>1007.4</ele>
        <time>2015-06-18T11:25:15Z</time>
      </trkpt>
      <trkpt lat="41.7802" lon="9.28123">
        <ele>1007.4</ele>
        <time>2015-06-18T11:25:16Z</time>
      </trkpt>
      <trkpt lat="41.78019" lon="9.2812">
        <ele>1005.8</ele>
        <time>2015-06-18T11:25:29Z</time>
      </trkpt>
      <trkpt lat="41.78019" lon="9.28116">
        <ele>1005.6</ele>
        <time>2015-06-18T11:25:33Z</time>
      </trkpt>
      <trkpt lat="41.78019" lon="9.28115">
        <ele>1005.6</ele>
        <time>2015-06-18T11:25:35Z</time>
      </trkpt>
      <trkpt lat="41.78018" lon="9.2811">
        <ele>1005.2</ele>
        <time>2015-06-18T11:25:42Z</time>
      </trkpt>
      <trkpt lat="41.78017" lon="9.28104">
        <ele>1004.2</ele>
        <time>2015-06-18T11:25:51Z</time>
      </trkpt>
      <trkpt lat="41.78018" lon="9.28103">
        <ele>1004</ele>
        <time>2015-06-18T11:25:53Z</time>
      </trkpt>
      <trkpt lat="41.78019" lon="9.28103">
        <ele>1004</ele>
        <time>2015-06-18T11:25:55Z</time>
      </trkpt>
      <trkpt lat="41.78029" lon="9.2809">
        <ele>1003.8</ele>
        <time>2015-06-18T11:26:14Z</time>
      </trkpt>
      <trkpt lat="41.78033" lon="9.2809">
        <ele>1004.4</ele>
        <time>2015-06-18T11:26:19Z</time>
      </trkpt>
      <trkpt lat="41.78038" lon="9.28095">
        <ele>1005.8</ele>
        <time>2015-06-18T11:26:27Z</time>
      </trkpt>
      <trkpt lat="41.78042" lon="9.28098">
        <ele>1006.8</ele>
        <time>2015-06-18T11:26:34Z</time>
      </trkpt>
      <trkpt lat="41.78046" lon="9.28098">
        <ele>1008</ele>
        <time>2015-06-18T11:26:42Z</time>
      </trkpt>
      <trkpt lat="41.78049" lon="9.28097">
        <ele>1008.6</ele>
        <time>2015-06-18T11:26:46Z</time>
      </trkpt>
      <trkpt lat="41.7806" lon="9.28102">
        <ele>1010.6</ele>
        <time>2015-06-18T11:26:59Z</time>
      </trkpt>
      <trkpt lat="41.78066" lon="9.28104">
        <ele>1011.4</ele>
        <time>2015-06-18T11:27:09Z</time>
      </trkpt>
      <trkpt lat="41.78067" lon="9.28105">
        <ele>1011.8</ele>
        <time>2015-06-18T11:27:14Z</time>
      </trkpt>
      <trkpt lat="41.78073" lon="9.28108">
        <ele>1013.6</ele>
        <time>2015-06-18T11:27:29Z</time>
      </trkpt>
      <trkpt lat="41.78074" lon="9.28109">
        <ele>1013.6</ele>
        <time>2015-06-18T11:27:42Z</time>
      </trkpt>
      <trkpt lat="41.78074" lon="9.28109">
        <ele>1013.6</ele>
        <time>2015-06-18T11:27:44Z</time>
      </trkpt>
      <trkpt lat="41.78079" lon="9.28113">
        <ele>1012.6</ele>
        <time>2015-06-18T11:27:53Z</time>
      </trkpt>
      <trkpt lat="41.78082" lon="9.28119">
        <ele>1012.2</ele>
        <time>2015-06-18T11:28:02Z</time>
      </trkpt>
      <trkpt lat="41.78083" lon="9.28124">
        <ele>1011.2</ele>
        <time>2015-06-18T11:28:15Z</time>
      </trkpt>
      <trkpt lat="41.78088" lon="9.2813">
        <ele>1009.8</ele>
        <time>2015-06-18T11:28:25Z</time>
      </trkpt>
      <trkpt lat="41.78093" lon="9.2813">
        <ele>1008.4</ele>
        <time>2015-06-18T11:28:46Z</time>
      </trkpt>
      <trkpt lat="41.78094" lon="9.28132">
        <ele>1007.4</ele>
        <time>2015-06-18T11:29:03Z</time>
      </trkpt>
      <trkpt lat="41.78097" lon="9.28136">
        <ele>1007</ele>
        <time>2015-06-18T11:29:11Z</time>
      </trkpt>
      <trkpt lat="41.78104" lon="9.2814">
        <ele>1005.8</ele>
        <time>2015-06-18T11:29:22Z</time>
      </trkpt>
      <trkpt lat="41.78105" lon="9.28147">
        <ele>1004.6</ele>
        <time>2015-06-18T11:29:29Z</time>
      </trkpt>
      <trkpt lat="41.78111" lon="9.28156">
        <ele>1003.6</ele>
        <time>2015-06-18T11:29:36Z</time>
      </trkpt>
      <trkpt lat="41.78113" lon="9.28159">
        <ele>1002.4</ele>
        <time>2015-06-18T11:29:44Z</time>
      </trkpt>
      <trkpt lat="41.78116" lon="9.28155">
        <ele>1001</ele>
        <time>2015-06-18T11:29:51Z</time>
      </trkpt>
      <trkpt lat="41.78123" lon="9.28158">
        <ele>999.6</ele>
        <time>2015-06-18T11:30:04Z</time>
      </trkpt>
      <trkpt lat="41.78126" lon="9.28164">
        <ele>998.4</ele>
        <time>2015-06-18T11:30:15Z</time>
      </trkpt>
      <trkpt lat="41.78129" lon="9.28166">
        <ele>997.8</ele>
        <time>2015-06-18T11:30:23Z</time>
      </trkpt>
      <trkpt lat="41.78131" lon="9.2817">
        <ele>997</ele>
        <time>2015-06-18T11:30:28Z</time>
      </trkpt>
      <trkpt lat="41.78133" lon="9.28175">
        <ele>995.4</ele>
        <time>2015-06-18T11:30:35Z</time>
      </trkpt>
      <trkpt lat="41.78135" lon="9.28179">
        <ele>994.6</ele>
        <time>2015-06-18T11:30:41Z</time>
      </trkpt>
      <trkpt lat="41.78138" lon="9.28182">
        <ele>993.2</ele>
        <time>2015-06-18T11:30:49Z</time>
      </trkpt>
      <trkpt lat="41.78137" lon="9.28176">
        <ele>992.2</ele>
        <time>2015-06-18T11:30:55Z</time>
      </trkpt>
      <trkpt lat="41.78137" lon="9.28171">
        <ele>990.6</ele>
        <time>2015-06-18T11:31:10Z</time>
      </trkpt>
      <trkpt lat="41.7814" lon="9.28165">
        <ele>989.8</ele>
        <time>2015-06-18T11:31:17Z</time>
      </trkpt>
      <trkpt lat="41.78142" lon="9.28158">
        <ele>988.6</ele>
        <time>2015-06-18T11:31:26Z</time>
      </trkpt>
      <trkpt lat="41.78147" lon="9.2815">
        <ele>987.6</ele>
        <time>2015-06-18T11:31:40Z</time>
      </trkpt>
      <trkpt lat="41.7815" lon="9.28144">
        <ele>986.4</ele>
        <time>2015-06-18T11:31:48Z</time>
      </trkpt>
      <trkpt lat="41.78151" lon="9.2814">
        <ele>985.6</ele>
        <time>2015-06-18T11:31:55Z</time>
      </trkpt>
      <trkpt lat="41.78154" lon="9.2814">
        <ele>984.6</ele>
        <time>2015-06-18T11:32:01Z</time>
      </trkpt>
      <trkpt lat="41.78156" lon="9.28144">
        <ele>983.4</ele>
        <time>2015-06-18T11:32:08Z</time>
      </trkpt>
      <trkpt lat="41.7816" lon="9.28146">
        <ele>982.2</ele>
        <time>2015-06-18T11:32:15Z</time>
      </trkpt>
      <trkpt lat="41.78164" lon="9.28149">
        <ele>980.8</ele>
        <time>2015-06-18T11:32:23Z</time>
      </trkpt>
      <trkpt lat="41.78164" lon="9.28152">
        <ele>979.2</ele>
        <time>2015-06-18T11:32:35Z</time>
      </trkpt>
      <trkpt lat="41.78164" lon="9.28153">
        <ele>978.4</ele>
        <time>2015-06-18T11:32:45Z</time>
      </trkpt>
      <trkpt lat="41.78165" lon="9.28154">
        <ele>977.6</ele>
        <time>2015-06-18T11:32:51Z</time>
      </trkpt>
      <trkpt lat="41.78165" lon="9.28157">
        <ele>976.4</ele>
        <time>2015-06-18T11:32:58Z</time>
      </trkpt>
      <trkpt lat="41.78167" lon="9.28164">
        <ele>975.2</ele>
        <time>2015-06-18T11:33:09Z</time>
      </trkpt>
      <trkpt lat="41.78168" lon="9.28166">
        <ele>974.6</ele>
        <time>2015-06-18T11:33:14Z</time>
      </trkpt>
      <trkpt lat="41.78172" lon="9.28166">
        <ele>973</ele>
        <time>2015-06-18T11:33:22Z</time>
      </trkpt>
      <trkpt lat="41.78173" lon="9.28165">
        <ele>972.8</ele>
        <time>2015-06-18T11:33:24Z</time>
      </trkpt>
      <trkpt lat="41.78173" lon="9.28161">
        <ele>971.8</ele>
        <time>2015-06-18T11:33:31Z</time>
      </trkpt>
      <trkpt lat="41.78175" lon="9.28157">
        <ele>970.6</ele>
        <time>2015-06-18T11:33:39Z</time>
      </trkpt>
      <trkpt lat="41.78175" lon="9.28152">
        <ele>969.6</ele>
        <time>2015-06-18T11:33:46Z</time>
      </trkpt>
      <trkpt lat="41.78176" lon="9.2815">
        <ele>968.6</ele>
        <time>2015-06-18T11:33:54Z</time>
      </trkpt>
      <trkpt lat="41.78179" lon="9.28145">
        <ele>967</ele>
        <time>2015-06-18T11:34:03Z</time>
      </trkpt>
      <trkpt lat="41.7818" lon="9.28142">
        <ele>966.2</ele>
        <time>2015-06-18T11:34:11Z</time>
      </trkpt>
      <trkpt lat="41.78185" lon="9.28142">
        <ele>965</ele>
        <time>2015-06-18T11:34:21Z</time>
      </trkpt>
      <trkpt lat="41.78186" lon="9.28147">
        <ele>964.2</ele>
        <time>2015-06-18T11:34:28Z</time>
      </trkpt>
      <trkpt lat="41.78189" lon="9.28148">
        <ele>963</ele>
        <time>2015-06-18T11:34:34Z</time>
      </trkpt>
      <trkpt lat="41.7819" lon="9.28152">
        <ele>961.6</ele>
        <time>2015-06-18T11:34:44Z</time>
      </trkpt>
      <trkpt lat="41.78191" lon="9.28156">
        <ele>960.6</ele>
        <time>2015-06-18T11:34:53Z</time>
      </trkpt>
      <trkpt lat="41.78196" lon="9.28159">
        <ele>959.4</ele>
        <time>2015-06-18T11:35:02Z</time>
      </trkpt>
      <trkpt lat="41.78197" lon="9.28161">
        <ele>958</ele>
        <time>2015-06-18T11:35:11Z</time>
      </trkpt>
      <trkpt lat="41.78196" lon="9.28158">
        <ele>957</ele>
        <time>2015-06-18T11:35:20Z</time>
      </trkpt>
      <trkpt lat="41.78197" lon="9.28155">
        <ele>956.2</ele>
        <time>2015-06-18T11:35:28Z</time>
      </trkpt>
      <trkpt lat="41.78199" lon="9.2816">
        <ele>954.8</ele>
        <time>2015-06-18T11:35:39Z</time>
      </trkpt>
      <trkpt lat="41.782" lon="9.28161">
        <ele>953.6</ele>
        <time>2015-06-18T11:35:47Z</time>
      </trkpt>
      <trkpt lat="41.78202" lon="9.28159">
        <ele>952.6</ele>
        <time>2015-06-18T11:35:55Z</time>
      </trkpt>
      <trkpt lat="41.78204" lon="9.28159">
        <ele>951.8</ele>
        <time>2015-06-18T11:36:00Z</time>
      </trkpt>
      <trkpt lat="41.78204" lon="9.28162">
        <ele>950.4</ele>
        <time>2015-06-18T11:36:08Z</time>
      </trkpt>
      <trkpt lat="41.78207" lon="9.28162">
        <ele>948.8</ele>
        <time>2015-06-18T11:36:21Z</time>
      </trkpt>
      <trkpt lat="41.78207" lon="9.28159">
        <ele>948</ele>
        <time>2015-06-18T11:36:28Z</time>
      </trkpt>
      <trkpt lat="41.78207" lon="9.28155">
        <ele>947</ele>
        <time>2015-06-18T11:36:35Z</time>
      </trkpt>
      <trkpt lat="41.78208" lon="9.28152">
        <ele>946.2</ele>
        <time>2015-06-18T11:36:41Z</time>
      </trkpt>
      <trkpt lat="41.7821" lon="9.28153">
        <ele>945</ele>
        <time>2015-06-18T11:36:46Z</time>
      </trkpt>
      <trkpt lat="41.78211" lon="9.28156">
        <ele>943.2</ele>
        <time>2015-06-18T11:36:56Z</time>
      </trkpt>
      <trkpt lat="41.78214" lon="9.28152">
        <ele>942.4</ele>
        <time>2015-06-18T11:37:03Z</time>
      </trkpt>
      <trkpt lat="41.78215" lon="9.28148">
        <ele>941.2</ele>
        <time>2015-06-18T11:37:10Z</time>
      </trkpt>
      <trkpt lat="41.78218" lon="9.28145">
        <ele>940.2</ele>
        <time>2015-06-18T11:37:16Z</time>
      </trkpt>
      <trkpt lat="41.7822" lon="9.28141">
        <ele>938.6</ele>
        <time>2015-06-18T11:37:25Z</time>
      </trkpt>
      <trkpt lat="41.78222" lon="9.28139">
        <ele>937.6</ele>
        <time>2015-06-18T11:37:33Z</time>
      </trkpt>
      <trkpt lat="41.78226" lon="9.28138">
        <ele>936.4</ele>
        <time>2015-06-18T11:37:42Z</time>
      </trkpt>
      <trkpt lat="41.78229" lon="9.28138">
        <ele>935.4</ele>
        <time>2015-06-18T11:37:49Z</time>
      </trkpt>
      <trkpt lat="41.78244" lon="9.2814">
        <ele>934</ele>
        <time>2015-06-18T11:38:10Z</time>
      </trkpt>
      <trkpt lat="41.78248" lon="9.28145">
        <ele>932.8</ele>
        <time>2015-06-18T11:38:18Z</time>
      </trkpt>
      <trkpt lat="41.7825" lon="9.28147">
        <ele>932</ele>
        <time>2015-06-18T11:38:23Z</time>
      </trkpt>
      <trkpt lat="41.78252" lon="9.28147">
        <ele>931.2</ele>
        <time>2015-06-18T11:38:27Z</time>
      </trkpt>
      <trkpt lat="41.78255" lon="9.28149">
        <ele>929.2</ele>
        <time>2015-06-18T11:38:34Z</time>
      </trkpt>
      <trkpt lat="41.78256" lon="9.28149">
        <ele>929</ele>
        <time>2015-06-18T11:38:36Z</time>
      </trkpt>
      <trkpt lat="41.78259" lon="9.2815">
        <ele>928.2</ele>
        <time>2015-06-18T11:38:41Z</time>
      </trkpt>
      <trkpt lat="41.78263" lon="9.28149">
        <ele>926.8</ele>
        <time>2015-06-18T11:38:49Z</time>
      </trkpt>
      <trkpt lat="41.78266" lon="9.28151">
        <ele>926</ele>
        <time>2015-06-18T11:38:54Z</time>
      </trkpt>
      <trkpt lat="41.78266" lon="9.28152">
        <ele>925.6</ele>
        <time>2015-06-18T11:38:56Z</time>
      </trkpt>
      <trkpt lat="41.78268" lon="9.2815">
        <ele>925</ele>
        <time>2015-06-18T11:38:59Z</time>
      </trkpt>
      <trkpt lat="41.78268" lon="9.2815">
        <ele>923.4</ele>
        <time>2015-06-18T11:39:05Z</time>
      </trkpt>
      <trkpt lat="41.7827" lon="9.28149">
        <ele>922.4</ele>
        <time>2015-06-18T11:39:11Z</time>
      </trkpt>
      <trkpt lat="41.7827" lon="9.28151">
        <ele>921</ele>
        <time>2015-06-18T11:39:18Z</time>
      </trkpt>
      <trkpt lat="41.7827" lon="9.28149">
        <ele>919.8</ele>
        <time>2015-06-18T11:39:25Z</time>
      </trkpt>
      <trkpt lat="41.78275" lon="9.28146">
        <ele>919</ele>
        <time>2015-06-18T11:39:31Z</time>
      </trkpt>
      <trkpt lat="41.7828" lon="9.28143">
        <ele>918</ele>
        <time>2015-06-18T11:39:36Z</time>
      </trkpt>
      <trkpt lat="41.78281" lon="9.28142">
        <ele>917.8</ele>
        <time>2015-06-18T11:39:37Z</time>
      </trkpt>
      <trkpt lat="41.78283" lon="9.2814">
        <ele>916.2</ele>
        <time>2015-06-18T11:39:45Z</time>
      </trkpt>
      <trkpt lat="41.78284" lon="9.28142">
        <ele>915.8</ele>
        <time>2015-06-18T11:39:49Z</time>
      </trkpt>
      <trkpt lat="41.78284" lon="9.28142">
        <ele>915.4</ele>
        <time>2015-06-18T11:39:51Z</time>
      </trkpt>
      <trkpt lat="41.78288" lon="9.28142">
        <ele>914.4</ele>
        <time>2015-06-18T11:39:56Z</time>
      </trkpt>
      <trkpt lat="41.78291" lon="9.2814">
        <ele>912.8</ele>
        <time>2015-06-18T11:40:03Z</time>
      </trkpt>
      <trkpt lat="41.78292" lon="9.28142">
        <ele>912</ele>
        <time>2015-06-18T11:40:09Z</time>
      </trkpt>
      <trkpt lat="41.78294" lon="9.28142">
        <ele>910.8</ele>
        <time>2015-06-18T11:40:14Z</time>
      </trkpt>
      <trkpt lat="41.78295" lon="9.28142">
        <ele>909.6</ele>
        <time>2015-06-18T11:40:19Z</time>
      </trkpt>
      <trkpt lat="41.78297" lon="9.28144">
        <ele>908.2</ele>
        <time>2015-06-18T11:40:24Z</time>
      </trkpt>
      <trkpt lat="41.783" lon="9.28144">
        <ele>907.6</ele>
        <time>2015-06-18T11:40:28Z</time>
      </trkpt>
      <trkpt lat="41.78303" lon="9.28144">
        <ele>907</ele>
        <time>2015-06-18T11:40:30Z</time>
      </trkpt>
      <trkpt lat="41.78305" lon="9.28145">
        <ele>906.4</ele>
        <time>2015-06-18T11:40:33Z</time>
      </trkpt>
      <trkpt lat="41.78312" lon="9.28143">
        <ele>905.6</ele>
        <time>2015-06-18T11:40:37Z</time>
      </trkpt>
      <trkpt lat="41.78312" lon="9.28143">
        <ele>905.4</ele>
        <time>2015-06-18T11:40:38Z</time>
      </trkpt>
      <trkpt lat="41.7832" lon="9.2814">
        <ele>904.4</ele>
        <time>2015-06-18T11:40:48Z</time>
      </trkpt>
      <trkpt lat="41.78323" lon="9.28135">
        <ele>902.8</ele>
        <time>2015-06-18T11:40:58Z</time>
      </trkpt>
      <trkpt lat="41.78326" lon="9.28137">
        <ele>901.6</ele>
        <time>2015-06-18T11:41:11Z</time>
      </trkpt>
      <trkpt lat="41.78332" lon="9.28136">
        <ele>900.2</ele>
        <time>2015-06-18T11:41:28Z</time>
      </trkpt>
      <trkpt lat="41.78336" lon="9.28136">
        <ele>899.2</ele>
        <time>2015-06-18T11:41:38Z</time>
      </trkpt>
      <trkpt lat="41.78344" lon="9.28135">
        <ele>897.6</ele>
        <time>2015-06-18T11:42:00Z</time>
      </trkpt>
      <trkpt lat="41.78348" lon="9.28134">
        <ele>897</ele>
        <time>2015-06-18T11:42:06Z</time>
      </trkpt>
      <trkpt lat="41.78349" lon="9.28134">
        <ele>896.6</ele>
        <time>2015-06-18T11:42:08Z</time>
      </trkpt>
      <trkpt lat="41.78351" lon="9.28135">
        <ele>896.2</ele>
        <time>2015-06-18T11:42:11Z</time>
      </trkpt>
      <trkpt lat="41.78354" lon="9.28133">
        <ele>893.6</ele>
        <time>2015-06-18T11:42:21Z</time>
      </trkpt>
      <trkpt lat="41.78356" lon="9.28133">
        <ele>893</ele>
        <time>2015-06-18T11:42:28Z</time>
      </trkpt>
      <trkpt lat="41.78362" lon="9.28134">
        <ele>892</ele>
        <time>2015-06-18T11:42:39Z</time>
      </trkpt>
      <trkpt lat="41.78368" lon="9.28137">
        <ele>890.4</ele>
        <time>2015-06-18T11:42:47Z</time>
      </trkpt>
      <trkpt lat="41.78373" lon="9.28139">
        <ele>889.4</ele>
        <time>2015-06-18T11:42:56Z</time>
      </trkpt>
      <trkpt lat="41.78378" lon="9.28138">
        <ele>888.2</ele>
        <time>2015-06-18T11:43:04Z</time>
      </trkpt>
      <trkpt lat="41.78381" lon="9.28144">
        <ele>887</ele>
        <time>2015-06-18T11:43:12Z</time>
      </trkpt>
      <trkpt lat="41.7838" lon="9.28147">
        <ele>886.8</ele>
        <time>2015-06-18T11:43:14Z</time>
      </trkpt>
      <trkpt lat="41.78379" lon="9.28148">
        <ele>886</ele>
        <time>2015-06-18T11:43:19Z</time>
      </trkpt>
      <trkpt lat="41.78378" lon="9.28147">
        <ele>885</ele>
        <time>2015-06-18T11:43:25Z</time>
      </trkpt>
      <trkpt lat="41.78379" lon="9.28146">
        <ele>883.6</ele>
        <time>2015-06-18T11:43:32Z</time>
      </trkpt>
      <trkpt lat="41.78383" lon="9.28147">
        <ele>882.4</ele>
        <time>2015-06-18T11:43:39Z</time>
      </trkpt>
      <trkpt lat="41.78384" lon="9.28145">
        <ele>881.4</ele>
        <time>2015-06-18T11:43:45Z</time>
      </trkpt>
      <trkpt lat="41.78392" lon="9.28142">
        <ele>879.6</ele>
        <time>2015-06-18T11:43:55Z</time>
      </trkpt>
      <trkpt lat="41.78397" lon="9.28137">
        <ele>878.2</ele>
        <time>2015-06-18T11:44:07Z</time>
      </trkpt>
      <trkpt lat="41.78399" lon="9.28141">
        <ele>877.8</ele>
        <time>2015-06-18T11:44:11Z</time>
      </trkpt>
      <trkpt lat="41.78399" lon="9.28143">
        <ele>877.6</ele>
        <time>2015-06-18T11:44:13Z</time>
      </trkpt>
      <trkpt lat="41.784" lon="9.28144">
        <ele>877.2</ele>
        <time>2015-06-18T11:44:15Z</time>
      </trkpt>
      <trkpt lat="41.78399" lon="9.28153">
        <ele>876.2</ele>
        <time>2015-06-18T11:44:23Z</time>
      </trkpt>
      <trkpt lat="41.784" lon="9.28156">
        <ele>875.4</ele>
        <time>2015-06-18T11:44:28Z</time>
      </trkpt>
      <trkpt lat="41.784" lon="9.28162">
        <ele>874.2</ele>
        <time>2015-06-18T11:44:34Z</time>
      </trkpt>
      <trkpt lat="41.78398" lon="9.28162">
        <ele>872</ele>
        <time>2015-06-18T11:44:49Z</time>
      </trkpt>
      <trkpt lat="41.784" lon="9.28161">
        <ele>871.6</ele>
        <time>2015-06-18T11:44:54Z</time>
      </trkpt>
      <trkpt lat="41.78403" lon="9.28158">
        <ele>870.2</ele>
        <time>2015-06-18T11:45:01Z</time>
      </trkpt>
      <trkpt lat="41.78404" lon="9.28154">
        <ele>868.8</ele>
        <time>2015-06-18T11:45:08Z</time>
      </trkpt>
      <trkpt lat="41.78408" lon="9.28149">
        <ele>867.8</ele>
        <time>2015-06-18T11:45:14Z</time>
      </trkpt>
      <trkpt lat="41.78411" lon="9.28144">
        <ele>866.2</ele>
        <time>2015-06-18T11:45:23Z</time>
      </trkpt>
      <trkpt lat="41.78415" lon="9.2814">
        <ele>865.4</ele>
        <time>2015-06-18T11:45:31Z</time>
      </trkpt>
      <trkpt lat="41.78417" lon="9.2814">
        <ele>865.2</ele>
        <time>2015-06-18T11:45:33Z</time>
      </trkpt>
      <trkpt lat="41.78419" lon="9.28138">
        <ele>864</ele>
        <time>2015-06-18T11:45:39Z</time>
      </trkpt>
      <trkpt lat="41.78426" lon="9.28138">
        <ele>862.2</ele>
        <time>2015-06-18T11:45:55Z</time>
      </trkpt>
      <trkpt lat="41.78431" lon="9.2814">
        <ele>861.8</ele>
        <time>2015-06-18T11:45:59Z</time>
      </trkpt>
      <trkpt lat="41.78434" lon="9.28141">
        <ele>861.6</ele>
        <time>2015-06-18T11:46:05Z</time>
      </trkpt>
      <trkpt lat="41.78441" lon="9.2814">
        <ele>861</ele>
        <time>2015-06-18T11:46:16Z</time>
      </trkpt>
      <trkpt lat="41.78447" lon="9.28147">
        <ele>860.8</ele>
        <time>2015-06-18T11:46:33Z</time>
      </trkpt>
      <trkpt lat="41.78449" lon="9.2815">
        <ele>860.2</ele>
        <time>2015-06-18T11:46:39Z</time>
      </trkpt>
      <trkpt lat="41.78452" lon="9.28152">
        <ele>859</ele>
        <time>2015-06-18T11:46:45Z</time>
      </trkpt>
      <trkpt lat="41.78455" lon="9.28153">
        <ele>857.8</ele>
        <time>2015-06-18T11:46:52Z</time>
      </trkpt>
      <trkpt lat="41.78457" lon="9.28155">
        <ele>857</ele>
        <time>2015-06-18T11:46:57Z</time>
      </trkpt>
      <trkpt lat="41.78458" lon="9.28155">
        <ele>856.6</ele>
        <time>2015-06-18T11:46:59Z</time>
      </trkpt>
      <trkpt lat="41.78464" lon="9.28155">
        <ele>855</ele>
        <time>2015-06-18T11:47:06Z</time>
      </trkpt>
      <trkpt lat="41.78468" lon="9.28156">
        <ele>854.2</ele>
        <time>2015-06-18T11:47:13Z</time>
      </trkpt>
      <trkpt lat="41.78471" lon="9.28155">
        <ele>853</ele>
        <time>2015-06-18T11:47:20Z</time>
      </trkpt>
      <trkpt lat="41.78475" lon="9.28152">
        <ele>851.8</ele>
        <time>2015-06-18T11:47:27Z</time>
      </trkpt>
      <trkpt lat="41.7848" lon="9.28146">
        <ele>850.8</ele>
        <time>2015-06-18T11:47:34Z</time>
      </trkpt>
      <trkpt lat="41.78483" lon="9.28147">
        <ele>850.6</ele>
        <time>2015-06-18T11:47:37Z</time>
      </trkpt>
      <trkpt lat="41.78491" lon="9.28146">
        <ele>850.2</ele>
        <time>2015-06-18T11:47:47Z</time>
      </trkpt>
      <trkpt lat="41.78495" lon="9.28146">
        <ele>850.2</ele>
        <time>2015-06-18T11:47:50Z</time>
      </trkpt>
      <trkpt lat="41.78499" lon="9.28142">
        <ele>850.2</ele>
        <time>2015-06-18T11:47:58Z</time>
      </trkpt>
      <trkpt lat="41.78506" lon="9.28142">
        <ele>851.2</ele>
        <time>2015-06-18T11:48:12Z</time>
      </trkpt>
      <trkpt lat="41.78514" lon="9.28138">
        <ele>851.2</ele>
        <time>2015-06-18T11:48:23Z</time>
      </trkpt>
      <trkpt lat="41.78515" lon="9.28138">
        <ele>851.2</ele>
        <time>2015-06-18T11:48:25Z</time>
      </trkpt>
      <trkpt lat="41.78527" lon="9.28138">
        <ele>850.6</ele>
        <time>2015-06-18T11:48:40Z</time>
      </trkpt>
      <trkpt lat="41.78529" lon="9.28136">
        <ele>850.4</ele>
        <time>2015-06-18T11:48:43Z</time>
      </trkpt>
      <trkpt lat="41.78535" lon="9.28133">
        <ele>850.2</ele>
        <time>2015-06-18T11:48:49Z</time>
      </trkpt>
      <trkpt lat="41.7854" lon="9.28132">
        <ele>850.2</ele>
        <time>2015-06-18T11:48:54Z</time>
      </trkpt>
      <trkpt lat="41.78542" lon="9.28131">
        <ele>850.4</ele>
        <time>2015-06-18T11:48:57Z</time>
      </trkpt>
      <trkpt lat="41.78543" lon="9.28131">
        <ele>850.8</ele>
        <time>2015-06-18T11:49:01Z</time>
      </trkpt>
      <trkpt lat="41.78555" lon="9.28132">
        <ele>851.2</ele>
        <time>2015-06-18T11:49:16Z</time>
      </trkpt>
      <trkpt lat="41.7858" lon="9.2813">
        <ele>851.2</ele>
        <time>2015-06-18T11:49:45Z</time>
      </trkpt>
      <trkpt lat="41.78586" lon="9.28131">
        <ele>850.4</ele>
        <time>2015-06-18T11:49:52Z</time>
      </trkpt>
      <trkpt lat="41.78587" lon="9.2813">
        <ele>850.2</ele>
        <time>2015-06-18T11:49:53Z</time>
      </trkpt>
      <trkpt lat="41.78604" lon="9.28126">
        <ele>849.2</ele>
        <time>2015-06-18T11:50:10Z</time>
      </trkpt>
      <trkpt lat="41.78611" lon="9.28126">
        <ele>848.4</ele>
        <time>2015-06-18T11:50:17Z</time>
      </trkpt>
      <trkpt lat="41.78625" lon="9.28126">
        <ele>847</ele>
        <time>2015-06-18T11:50:30Z</time>
      </trkpt>
      <trkpt lat="41.78627" lon="9.28125">
        <ele>846.8</ele>
        <time>2015-06-18T11:50:34Z</time>
      </trkpt>
      <trkpt lat="41.78643" lon="9.28123">
        <ele>845</ele>
        <time>2015-06-18T11:50:52Z</time>
      </trkpt>
      <trkpt lat="41.78665" lon="9.28119">
        <ele>846.8</ele>
        <time>2015-06-18T11:51:25Z</time>
      </trkpt>
      <trkpt lat="41.7868" lon="9.28128">
        <ele>847.2</ele>
        <time>2015-06-18T11:51:49Z</time>
      </trkpt>
      <trkpt lat="41.78693" lon="9.28141">
        <ele>848.4</ele>
        <time>2015-06-18T11:52:08Z</time>
      </trkpt>
      <trkpt lat="41.78704" lon="9.28144">
        <ele>849.4</ele>
        <time>2015-06-18T11:52:23Z</time>
      </trkpt>
      <trkpt lat="41.78723" lon="9.28153">
        <ele>851</ele>
        <time>2015-06-18T11:52:46Z</time>
      </trkpt>
      <trkpt lat="41.7876" lon="9.28154">
        <ele>851.4</ele>
        <time>2015-06-18T11:53:27Z</time>
      </trkpt>
      <trkpt lat="41.78777" lon="9.28155">
        <ele>851.6</ele>
        <time>2015-06-18T11:53:50Z</time>
      </trkpt>
      <trkpt lat="41.78781" lon="9.28153">
        <ele>852.6</ele>
        <time>2015-06-18T11:53:58Z</time>
      </trkpt>
      <trkpt lat="41.78789" lon="9.28152">
        <ele>854.2</ele>
        <time>2015-06-18T11:54:10Z</time>
      </trkpt>
      <trkpt lat="41.78794" lon="9.28152">
        <ele>855.2</ele>
        <time>2015-06-18T11:54:21Z</time>
      </trkpt>
      <trkpt lat="41.78804" lon="9.28151">
        <ele>856.8</ele>
        <time>2015-06-18T11:54:36Z</time>
      </trkpt>
      <trkpt lat="41.78811" lon="9.28149">
        <ele>857.6</ele>
        <time>2015-06-18T11:54:45Z</time>
      </trkpt>
      <trkpt lat="41.78814" lon="9.28148">
        <ele>858</ele>
        <time>2015-06-18T11:54:53Z</time>
      </trkpt>
      <trkpt lat="41.78818" lon="9.28146">
        <ele>859</ele>
        <time>2015-06-18T11:55:03Z</time>
      </trkpt>
      <trkpt lat="41.78824" lon="9.28145">
        <ele>860</ele>
        <time>2015-06-18T11:55:12Z</time>
      </trkpt>
      <trkpt lat="41.78838" lon="9.28145">
        <ele>861.8</ele>
        <time>2015-06-18T11:55:35Z</time>
      </trkpt>
      <trkpt lat="41.78848" lon="9.28145">
        <ele>862.8</ele>
        <time>2015-06-18T11:55:50Z</time>
      </trkpt>
      <trkpt lat="41.78854" lon="9.28143">
        <ele>863.8</ele>
        <time>2015-06-18T11:55:59Z</time>
      </trkpt>
      <trkpt lat="41.7886" lon="9.28142">
        <ele>864.8</ele>
        <time>2015-06-18T11:56:10Z</time>
      </trkpt>
      <trkpt lat="41.7886" lon="9.28142">
        <ele>865</ele>
        <time>2015-06-18T11:56:11Z</time>
      </trkpt>
      <trkpt lat="41.78872" lon="9.28145">
        <ele>866.4</ele>
        <time>2015-06-18T11:56:30Z</time>
      </trkpt>
      <trkpt lat="41.78882" lon="9.28145">
        <ele>866.8</ele>
        <time>2015-06-18T11:56:39Z</time>
      </trkpt>
      <trkpt lat="41.78899" lon="9.28148">
        <ele>867.2</ele>
        <time>2015-06-18T11:57:02Z</time>
      </trkpt>
      <trkpt lat="41.78905" lon="9.28148">
        <ele>866.4</ele>
        <time>2015-06-18T11:57:08Z</time>
      </trkpt>
      <trkpt lat="41.78907" lon="9.28146">
        <ele>866.2</ele>
        <time>2015-06-18T11:57:12Z</time>
      </trkpt>
      <trkpt lat="41.7891" lon="9.28144">
        <ele>866.4</ele>
        <time>2015-06-18T11:57:19Z</time>
      </trkpt>
      <trkpt lat="41.78915" lon="9.28141">
        <ele>867.8</ele>
        <time>2015-06-18T11:57:26Z</time>
      </trkpt>
      <trkpt lat="41.78926" lon="9.28136">
        <ele>868.4</ele>
        <time>2015-06-18T11:57:43Z</time>
      </trkpt>
      <trkpt lat="41.78927" lon="9.28136">
        <ele>868.6</ele>
        <time>2015-06-18T11:57:44Z</time>
      </trkpt>
      <trkpt lat="41.78934" lon="9.28135">
        <ele>869.4</ele>
        <time>2015-06-18T11:57:54Z</time>
      </trkpt>
      <trkpt lat="41.7894" lon="9.28134">
        <ele>870.2</ele>
        <time>2015-06-18T11:58:02Z</time>
      </trkpt>
      <trkpt lat="41.78944" lon="9.28133">
        <ele>871</ele>
        <time>2015-06-18T11:58:08Z</time>
      </trkpt>
      <trkpt lat="41.78952" lon="9.28131">
        <ele>871.8</ele>
        <time>2015-06-18T11:58:20Z</time>
      </trkpt>
      <trkpt lat="41.78961" lon="9.28129">
        <ele>872.8</ele>
        <time>2015-06-18T11:58:32Z</time>
      </trkpt>
      <trkpt lat="41.78965" lon="9.28128">
        <ele>873.4</ele>
        <time>2015-06-18T11:58:38Z</time>
      </trkpt>
      <trkpt lat="41.78972" lon="9.28125">
        <ele>874</ele>
        <time>2015-06-18T11:58:49Z</time>
      </trkpt>
      <trkpt lat="41.78979" lon="9.28123">
        <ele>875.2</ele>
        <time>2015-06-18T11:59:00Z</time>
      </trkpt>
      <trkpt lat="41.78986" lon="9.28118">
        <ele>876.4</ele>
        <time>2015-06-18T11:59:10Z</time>
      </trkpt>
      <trkpt lat="41.78988" lon="9.28115">
        <ele>877</ele>
        <time>2015-06-18T11:59:16Z</time>
      </trkpt>
      <trkpt lat="41.78991" lon="9.28114">
        <ele>878.4</ele>
        <time>2015-06-18T11:59:23Z</time>
      </trkpt>
      <trkpt lat="41.79009" lon="9.28107">
        <ele>880.4</ele>
        <time>2015-06-18T11:59:52Z</time>
      </trkpt>
      <trkpt lat="41.79016" lon="9.28099">
        <ele>881.4</ele>
        <time>2015-06-18T12:00:05Z</time>
      </trkpt>
      <trkpt lat="41.79019" lon="9.28089">
        <ele>882.2</ele>
        <time>2015-06-18T12:00:15Z</time>
      </trkpt>
      <trkpt lat="41.79025" lon="9.28076">
        <ele>883.8</ele>
        <time>2015-06-18T12:00:31Z</time>
      </trkpt>
      <trkpt lat="41.79029" lon="9.28066">
        <ele>885</ele>
        <time>2015-06-18T12:00:43Z</time>
      </trkpt>
      <trkpt lat="41.79029" lon="9.28055">
        <ele>886</ele>
        <time>2015-06-18T12:00:54Z</time>
      </trkpt>
      <trkpt lat="41.79029" lon="9.28048">
        <ele>887</ele>
        <time>2015-06-18T12:01:02Z</time>
      </trkpt>
      <trkpt lat="41.79035" lon="9.28035">
        <ele>888.6</ele>
        <time>2015-06-18T12:01:17Z</time>
      </trkpt>
      <trkpt lat="41.79049" lon="9.27981">
        <ele>889.2</ele>
        <time>2015-06-18T12:02:05Z</time>
      </trkpt>
      <trkpt lat="41.79049" lon="9.27973">
        <ele>889.2</ele>
        <time>2015-06-18T12:02:11Z</time>
      </trkpt>
      <trkpt lat="41.7905" lon="9.27956">
        <ele>888.2</ele>
        <time>2015-06-18T12:02:25Z</time>
      </trkpt>
      <trkpt lat="41.79049" lon="9.27944">
        <ele>887.6</ele>
        <time>2015-06-18T12:02:35Z</time>
      </trkpt>
      <trkpt lat="41.79047" lon="9.27934">
        <ele>886.4</ele>
        <time>2015-06-18T12:02:47Z</time>
      </trkpt>
      <trkpt lat="41.79042" lon="9.27914">
        <ele>885.8</ele>
        <time>2015-06-18T12:03:05Z</time>
      </trkpt>
      <trkpt lat="41.79036" lon="9.27897">
        <ele>885</ele>
        <time>2015-06-18T12:03:21Z</time>
      </trkpt>
      <trkpt lat="41.7903" lon="9.27875">
        <ele>884</ele>
        <time>2015-06-18T12:03:40Z</time>
      </trkpt>
      <trkpt lat="41.79021" lon="9.27843">
        <ele>883.4</ele>
        <time>2015-06-18T12:04:05Z</time>
      </trkpt>
      <trkpt lat="41.79009" lon="9.27833">
        <ele>882.8</ele>
        <time>2015-06-18T12:04:18Z</time>
      </trkpt>
      <trkpt lat="41.79006" lon="9.27826">
        <ele>882</ele>
        <time>2015-06-18T12:04:25Z</time>
      </trkpt>
      <trkpt lat="41.78999" lon="9.27812">
        <ele>881</ele>
        <time>2015-06-18T12:04:39Z</time>
      </trkpt>
      <trkpt lat="41.78991" lon="9.2778">
        <ele>880.8</ele>
        <time>2015-06-18T12:05:16Z</time>
      </trkpt>
      <trkpt lat="41.78976" lon="9.27774">
        <ele>880.6</ele>
        <time>2015-06-18T12:05:31Z</time>
      </trkpt>
      <trkpt lat="41.78973" lon="9.27774">
        <ele>880.2</ele>
        <time>2015-06-18T12:05:34Z</time>
      </trkpt>
      <trkpt lat="41.78958" lon="9.27765">
        <ele>880.4</ele>
        <time>2015-06-18T12:05:53Z</time>
      </trkpt>
      <trkpt lat="41.78951" lon="9.27765">
        <ele>881.6</ele>
        <time>2015-06-18T12:06:01Z</time>
      </trkpt>
      <trkpt lat="41.78935" lon="9.27757">
        <ele>882.4</ele>
        <time>2015-06-18T12:06:22Z</time>
      </trkpt>
      <trkpt lat="41.78928" lon="9.27751">
        <ele>883.2</ele>
        <time>2015-06-18T12:06:32Z</time>
      </trkpt>
      <trkpt lat="41.78914" lon="9.2774">
        <ele>885</ele>
        <time>2015-06-18T12:06:53Z</time>
      </trkpt>
      <trkpt lat="41.78892" lon="9.27708">
        <ele>886.4</ele>
        <time>2015-06-18T12:07:36Z</time>
      </trkpt>
      <trkpt lat="41.78883" lon="9.27688">
        <ele>886.4</ele>
        <time>2015-06-18T12:07:57Z</time>
      </trkpt>
      <trkpt lat="41.78876" lon="9.27679">
        <ele>887</ele>
        <time>2015-06-18T12:08:08Z</time>
      </trkpt>
      <trkpt lat="41.78871" lon="9.2767">
        <ele>888</ele>
        <time>2015-06-18T12:08:18Z</time>
      </trkpt>
      <trkpt lat="41.78871" lon="9.27669">
        <ele>888</ele>
        <time>2015-06-18T12:08:19Z</time>
      </trkpt>
      <trkpt lat="41.78878" lon="9.27646">
        <ele>888.8</ele>
        <time>2015-06-18T12:08:41Z</time>
      </trkpt>
      <trkpt lat="41.78878" lon="9.27645">
        <ele>889</ele>
        <time>2015-06-18T12:08:42Z</time>
      </trkpt>
      <trkpt lat="41.7888" lon="9.27642">
        <ele>889.6</ele>
        <time>2015-06-18T12:08:45Z</time>
      </trkpt>
      <trkpt lat="41.78881" lon="9.27637">
        <ele>890.2</ele>
        <time>2015-06-18T12:08:49Z</time>
      </trkpt>
      <trkpt lat="41.78883" lon="9.27631">
        <ele>890.8</ele>
        <time>2015-06-18T12:08:54Z</time>
      </trkpt>
      <trkpt lat="41.78882" lon="9.27626">
        <ele>891.4</ele>
        <time>2015-06-18T12:08:58Z</time>
      </trkpt>
      <trkpt lat="41.78883" lon="9.27624">
        <ele>891.8</ele>
        <time>2015-06-18T12:09:00Z</time>
      </trkpt>
      <trkpt lat="41.78882" lon="9.27616">
        <ele>892.8</ele>
        <time>2015-06-18T12:09:09Z</time>
      </trkpt>
      <trkpt lat="41.78879" lon="9.27605">
        <ele>894</ele>
        <time>2015-06-18T12:09:21Z</time>
      </trkpt>
      <trkpt lat="41.78876" lon="9.27597">
        <ele>895</ele>
        <time>2015-06-18T12:09:31Z</time>
      </trkpt>
      <trkpt lat="41.78872" lon="9.27579">
        <ele>896.6</ele>
        <time>2015-06-18T12:09:52Z</time>
      </trkpt>
      <trkpt lat="41.78872" lon="9.27574">
        <ele>896.8</ele>
        <time>2015-06-18T12:09:56Z</time>
      </trkpt>
      <trkpt lat="41.78866" lon="9.27561">
        <ele>898</ele>
        <time>2015-06-18T12:10:07Z</time>
      </trkpt>
      <trkpt lat="41.78865" lon="9.2756">
        <ele>898.2</ele>
        <time>2015-06-18T12:10:08Z</time>
      </trkpt>
      <trkpt lat="41.7886" lon="9.2756">
        <ele>898.8</ele>
        <time>2015-06-18T12:10:19Z</time>
      </trkpt>
      <trkpt lat="41.78853" lon="9.27557">
        <ele>900.4</ele>
        <time>2015-06-18T12:10:32Z</time>
      </trkpt>
      <trkpt lat="41.78844" lon="9.27555">
        <ele>901.6</ele>
        <time>2015-06-18T12:10:44Z</time>
      </trkpt>
      <trkpt lat="41.78828" lon="9.27542">
        <ele>903.2</ele>
        <time>2015-06-18T12:11:10Z</time>
      </trkpt>
      <trkpt lat="41.78821" lon="9.27527">
        <ele>904</ele>
        <time>2015-06-18T12:11:25Z</time>
      </trkpt>
      <trkpt lat="41.78821" lon="9.27522">
        <ele>904.6</ele>
        <time>2015-06-18T12:11:30Z</time>
      </trkpt>
      <trkpt lat="41.78819" lon="9.27516">
        <ele>905.2</ele>
        <time>2015-06-18T12:11:38Z</time>
      </trkpt>
      <trkpt lat="41.78815" lon="9.27505">
        <ele>906.4</ele>
        <time>2015-06-18T12:11:48Z</time>
      </trkpt>
      <trkpt lat="41.78815" lon="9.27504">
        <ele>906.6</ele>
        <time>2015-06-18T12:11:50Z</time>
      </trkpt>
      <trkpt lat="41.78812" lon="9.27496">
        <ele>907.8</ele>
        <time>2015-06-18T12:12:02Z</time>
      </trkpt>
      <trkpt lat="41.78811" lon="9.27491">
        <ele>908</ele>
        <time>2015-06-18T12:12:06Z</time>
      </trkpt>
      <trkpt lat="41.78808" lon="9.27483">
        <ele>908.8</ele>
        <time>2015-06-18T12:12:13Z</time>
      </trkpt>
      <trkpt lat="41.78805" lon="9.27474">
        <ele>910</ele>
        <time>2015-06-18T12:12:22Z</time>
      </trkpt>
      <trkpt lat="41.78801" lon="9.27472">
        <ele>911.4</ele>
        <time>2015-06-18T12:12:32Z</time>
      </trkpt>
      <trkpt lat="41.78795" lon="9.27471">
        <ele>912.6</ele>
        <time>2015-06-18T12:12:43Z</time>
      </trkpt>
      <trkpt lat="41.78789" lon="9.27464">
        <ele>914.2</ele>
        <time>2015-06-18T12:12:57Z</time>
      </trkpt>
      <trkpt lat="41.78773" lon="9.27445">
        <ele>915.6</ele>
        <time>2015-06-18T12:13:32Z</time>
      </trkpt>
      <trkpt lat="41.78769" lon="9.2744">
        <ele>915.8</ele>
        <time>2015-06-18T12:13:39Z</time>
      </trkpt>
      <trkpt lat="41.78763" lon="9.27433">
        <ele>916.6</ele>
        <time>2015-06-18T12:13:50Z</time>
      </trkpt>
      <trkpt lat="41.7875" lon="9.27411">
        <ele>918</ele>
        <time>2015-06-18T12:14:14Z</time>
      </trkpt>
      <trkpt lat="41.78733" lon="9.27392">
        <ele>919.6</ele>
        <time>2015-06-18T12:14:45Z</time>
      </trkpt>
      <trkpt lat="41.7873" lon="9.27379">
        <ele>920.4</ele>
        <time>2015-06-18T12:15:00Z</time>
      </trkpt>
      <trkpt lat="41.78728" lon="9.27369">
        <ele>921.6</ele>
        <time>2015-06-18T12:15:13Z</time>
      </trkpt>
      <trkpt lat="41.78725" lon="9.27363">
        <ele>922.4</ele>
        <time>2015-06-18T12:15:21Z</time>
      </trkpt>
      <trkpt lat="41.78722" lon="9.27359">
        <ele>923.6</ele>
        <time>2015-06-18T12:15:32Z</time>
      </trkpt>
      <trkpt lat="41.78718" lon="9.27352">
        <ele>925</ele>
        <time>2015-06-18T12:15:45Z</time>
      </trkpt>
      <trkpt lat="41.78715" lon="9.27339">
        <ele>926.6</ele>
        <time>2015-06-18T12:16:01Z</time>
      </trkpt>
      <trkpt lat="41.78713" lon="9.27331">
        <ele>927.2</ele>
        <time>2015-06-18T12:16:12Z</time>
      </trkpt>
      <trkpt lat="41.78716" lon="9.27315">
        <ele>929</ele>
        <time>2015-06-18T12:16:32Z</time>
      </trkpt>
      <trkpt lat="41.78712" lon="9.27307">
        <ele>929.8</ele>
        <time>2015-06-18T12:16:42Z</time>
      </trkpt>
      <trkpt lat="41.7871" lon="9.27303">
        <ele>930.6</ele>
        <time>2015-06-18T12:16:49Z</time>
      </trkpt>
      <trkpt lat="41.7871" lon="9.27299">
        <ele>932</ele>
        <time>2015-06-18T12:16:59Z</time>
      </trkpt>
      <trkpt lat="41.7871" lon="9.27291">
        <ele>933.4</ele>
        <time>2015-06-18T12:17:10Z</time>
      </trkpt>
      <trkpt lat="41.78714" lon="9.2728">
        <ele>934.4</ele>
        <time>2015-06-18T12:17:26Z</time>
      </trkpt>
      <trkpt lat="41.78714" lon="9.27266">
        <ele>935.6</ele>
        <time>2015-06-18T12:17:39Z</time>
      </trkpt>
      <trkpt lat="41.78714" lon="9.27263">
        <ele>935.8</ele>
        <time>2015-06-18T12:17:44Z</time>
      </trkpt>
      <trkpt lat="41.78714" lon="9.27256">
        <ele>936.6</ele>
        <time>2015-06-18T12:17:55Z</time>
      </trkpt>
      <trkpt lat="41.78714" lon="9.27249">
        <ele>937.8</ele>
        <time>2015-06-18T12:18:03Z</time>
      </trkpt>
      <trkpt lat="41.78711" lon="9.27243">
        <ele>939</ele>
        <time>2015-06-18T12:18:12Z</time>
      </trkpt>
      <trkpt lat="41.78712" lon="9.27237">
        <ele>940</ele>
        <time>2015-06-18T12:18:20Z</time>
      </trkpt>
      <trkpt lat="41.78712" lon="9.27228">
        <ele>941.4</ele>
        <time>2015-06-18T12:18:31Z</time>
      </trkpt>
      <trkpt lat="41.78706" lon="9.27203">
        <ele>943</ele>
        <time>2015-06-18T12:19:13Z</time>
      </trkpt>
      <trkpt lat="41.78704" lon="9.27195">
        <ele>943.8</ele>
        <time>2015-06-18T12:19:22Z</time>
      </trkpt>
      <trkpt lat="41.78703" lon="9.2718">
        <ele>945.2</ele>
        <time>2015-06-18T12:19:37Z</time>
      </trkpt>
      <trkpt lat="41.78701" lon="9.27167">
        <ele>946.2</ele>
        <time>2015-06-18T12:19:50Z</time>
      </trkpt>
      <trkpt lat="41.78697" lon="9.27145">
        <ele>948</ele>
        <time>2015-06-18T12:20:13Z</time>
      </trkpt>
      <trkpt lat="41.78694" lon="9.27136">
        <ele>948.4</ele>
        <time>2015-06-18T12:20:23Z</time>
      </trkpt>
      <trkpt lat="41.78686" lon="9.27118">
        <ele>950.2</ele>
        <time>2015-06-18T12:20:44Z</time>
      </trkpt>
      <trkpt lat="41.78681" lon="9.27105">
        <ele>951.4</ele>
        <time>2015-06-18T12:20:58Z</time>
      </trkpt>
      <trkpt lat="41.78675" lon="9.27067">
        <ele>952.6</ele>
        <time>2015-06-18T12:21:35Z</time>
      </trkpt>
      <trkpt lat="41.78688" lon="9.27023">
        <ele>954.2</ele>
        <time>2015-06-18T12:22:23Z</time>
      </trkpt>
      <trkpt lat="41.78697" lon="9.27008">
        <ele>955</ele>
        <time>2015-06-18T12:22:39Z</time>
      </trkpt>
      <trkpt lat="41.78703" lon="9.27">
        <ele>955.4</ele>
        <time>2015-06-18T12:22:49Z</time>
      </trkpt>
      <trkpt lat="41.78714" lon="9.26984">
        <ele>956.6</ele>
        <time>2015-06-18T12:23:09Z</time>
      </trkpt>
      <trkpt lat="41.78722" lon="9.26976">
        <ele>957.6</ele>
        <time>2015-06-18T12:23:23Z</time>
      </trkpt>
      <trkpt lat="41.78729" lon="9.26968">
        <ele>958.8</ele>
        <time>2015-06-18T12:23:36Z</time>
      </trkpt>
      <trkpt lat="41.78732" lon="9.26962">
        <ele>959.6</ele>
        <time>2015-06-18T12:23:44Z</time>
      </trkpt>
      <trkpt lat="41.78742" lon="9.26939">
        <ele>961.2</ele>
        <time>2015-06-18T12:24:07Z</time>
      </trkpt>
      <trkpt lat="41.78743" lon="9.26917">
        <ele>962</ele>
        <time>2015-06-18T12:24:28Z</time>
      </trkpt>
      <trkpt lat="41.78738" lon="9.26887">
        <ele>962</ele>
        <time>2015-06-18T12:24:58Z</time>
      </trkpt>
      <trkpt lat="41.78736" lon="9.26873">
        <ele>961.2</ele>
        <time>2015-06-18T12:25:12Z</time>
      </trkpt>
      <trkpt lat="41.78732" lon="9.26862">
        <ele>960.2</ele>
        <time>2015-06-18T12:25:21Z</time>
      </trkpt>
      <trkpt lat="41.78731" lon="9.26852">
        <ele>959.2</ele>
        <time>2015-06-18T12:25:31Z</time>
      </trkpt>
      <trkpt lat="41.78731" lon="9.26841">
        <ele>958.2</ele>
        <time>2015-06-18T12:25:41Z</time>
      </trkpt>
      <trkpt lat="41.78741" lon="9.2682">
        <ele>957</ele>
        <time>2015-06-18T12:26:29Z</time>
      </trkpt>
      <trkpt lat="41.78749" lon="9.26793">
        <ele>957</ele>
        <time>2015-06-18T12:26:55Z</time>
      </trkpt>
      <trkpt lat="41.78752" lon="9.26787">
        <ele>957</ele>
        <time>2015-06-18T12:27:00Z</time>
      </trkpt>
      <trkpt lat="41.78763" lon="9.26758">
        <ele>957.6</ele>
        <time>2015-06-18T12:27:31Z</time>
      </trkpt>
      <trkpt lat="41.78773" lon="9.26751">
        <ele>958.2</ele>
        <time>2015-06-18T12:27:48Z</time>
      </trkpt>
      <trkpt lat="41.78781" lon="9.26748">
        <ele>958.6</ele>
        <time>2015-06-18T12:28:00Z</time>
      </trkpt>
      <trkpt lat="41.78787" lon="9.26745">
        <ele>959.2</ele>
        <time>2015-06-18T12:28:07Z</time>
      </trkpt>
      <trkpt lat="41.78789" lon="9.26742">
        <ele>959.6</ele>
        <time>2015-06-18T12:28:11Z</time>
      </trkpt>
      <trkpt lat="41.78794" lon="9.26738">
        <ele>960.4</ele>
        <time>2015-06-18T12:28:19Z</time>
      </trkpt>
      <trkpt lat="41.78796" lon="9.26733">
        <ele>961.4</ele>
        <time>2015-06-18T12:28:25Z</time>
      </trkpt>
      <trkpt lat="41.78799" lon="9.26728">
        <ele>962.6</ele>
        <time>2015-06-18T12:28:31Z</time>
      </trkpt>
      <trkpt lat="41.788" lon="9.26725">
        <ele>963</ele>
        <time>2015-06-18T12:28:38Z</time>
      </trkpt>
      <trkpt lat="41.78799" lon="9.26721">
        <ele>964</ele>
        <time>2015-06-18T12:28:46Z</time>
      </trkpt>
      <trkpt lat="41.78798" lon="9.26718">
        <ele>965</ele>
        <time>2015-06-18T12:28:54Z</time>
      </trkpt>
      <trkpt lat="41.78801" lon="9.26714">
        <ele>966</ele>
        <time>2015-06-18T12:29:01Z</time>
      </trkpt>
      <trkpt lat="41.78802" lon="9.26706">
        <ele>967.4</ele>
        <time>2015-06-18T12:29:12Z</time>
      </trkpt>
      <trkpt lat="41.78805" lon="9.267">
        <ele>968</ele>
        <time>2015-06-18T12:29:22Z</time>
      </trkpt>
      <trkpt lat="41.78808" lon="9.26696">
        <ele>967.8</ele>
        <time>2015-06-18T12:29:32Z</time>
      </trkpt>
      <trkpt lat="41.7881" lon="9.2669">
        <ele>967</ele>
        <time>2015-06-18T12:29:38Z</time>
      </trkpt>
      <trkpt lat="41.78811" lon="9.26684">
        <ele>965.8</ele>
        <time>2015-06-18T12:29:46Z</time>
      </trkpt>
      <trkpt lat="41.78813" lon="9.26677">
        <ele>964.8</ele>
        <time>2015-06-18T12:29:54Z</time>
      </trkpt>
      <trkpt lat="41.78816" lon="9.2667">
        <ele>963.8</ele>
        <time>2015-06-18T12:30:03Z</time>
      </trkpt>
      <trkpt lat="41.78819" lon="9.26662">
        <ele>962.4</ele>
        <time>2015-06-18T12:30:13Z</time>
      </trkpt>
      <trkpt lat="41.78822" lon="9.26659">
        <ele>962</ele>
        <time>2015-06-18T12:30:19Z</time>
      </trkpt>
      <trkpt lat="41.78827" lon="9.26656">
        <ele>960.6</ele>
        <time>2015-06-18T12:30:26Z</time>
      </trkpt>
      <trkpt lat="41.78831" lon="9.26655">
        <ele>959.4</ele>
        <time>2015-06-18T12:30:34Z</time>
      </trkpt>
      <trkpt lat="41.78838" lon="9.26656">
        <ele>958</ele>
        <time>2015-06-18T12:30:44Z</time>
      </trkpt>
      <trkpt lat="41.78845" lon="9.26659">
        <ele>957.2</ele>
        <time>2015-06-18T12:30:53Z</time>
      </trkpt>
      <trkpt lat="41.78851" lon="9.2666">
        <ele>956.4</ele>
        <time>2015-06-18T12:31:00Z</time>
      </trkpt>
      <trkpt lat="41.78857" lon="9.26658">
        <ele>955</ele>
        <time>2015-06-18T12:31:10Z</time>
      </trkpt>
      <trkpt lat="41.78861" lon="9.2666">
        <ele>954</ele>
        <time>2015-06-18T12:31:18Z</time>
      </trkpt>
      <trkpt lat="41.7887" lon="9.26657">
        <ele>952.6</ele>
        <time>2015-06-18T12:31:31Z</time>
      </trkpt>
      <trkpt lat="41.78867" lon="9.26649">
        <ele>951.4</ele>
        <time>2015-06-18T12:31:45Z</time>
      </trkpt>
      <trkpt lat="41.7886" lon="9.26638">
        <ele>950.4</ele>
        <time>2015-06-18T12:32:01Z</time>
      </trkpt>
      <trkpt lat="41.7886" lon="9.26625">
        <ele>949.6</ele>
        <time>2015-06-18T12:32:15Z</time>
      </trkpt>
      <trkpt lat="41.78859" lon="9.26613">
        <ele>948.8</ele>
        <time>2015-06-18T12:32:33Z</time>
      </trkpt>
      <trkpt lat="41.78861" lon="9.26602">
        <ele>947.6</ele>
        <time>2015-06-18T12:32:47Z</time>
      </trkpt>
      <trkpt lat="41.78863" lon="9.26594">
        <ele>946.6</ele>
        <time>2015-06-18T12:32:59Z</time>
      </trkpt>
      <trkpt lat="41.78867" lon="9.26581">
        <ele>945.8</ele>
        <time>2015-06-18T12:33:10Z</time>
      </trkpt>
      <trkpt lat="41.78867" lon="9.2658">
        <ele>945.6</ele>
        <time>2015-06-18T12:33:11Z</time>
      </trkpt>
      <trkpt lat="41.78872" lon="9.2657">
        <ele>944.4</ele>
        <time>2015-06-18T12:33:24Z</time>
      </trkpt>
      <trkpt lat="41.78873" lon="9.26569">
        <ele>944.4</ele>
        <time>2015-06-18T12:33:26Z</time>
      </trkpt>
      <trkpt lat="41.78876" lon="9.26563">
        <ele>943.8</ele>
        <time>2015-06-18T12:33:34Z</time>
      </trkpt>
      <trkpt lat="41.78883" lon="9.26554">
        <ele>942.6</ele>
        <time>2015-06-18T12:33:48Z</time>
      </trkpt>
      <trkpt lat="41.78892" lon="9.26541">
        <ele>941.8</ele>
        <time>2015-06-18T12:34:03Z</time>
      </trkpt>
      <trkpt lat="41.78923" lon="9.26499">
        <ele>942.2</ele>
        <time>2015-06-18T12:34:52Z</time>
      </trkpt>
      <trkpt lat="41.78924" lon="9.2649">
        <ele>942</ele>
        <time>2015-06-18T12:34:59Z</time>
      </trkpt>
      <trkpt lat="41.78926" lon="9.26484">
        <ele>941.8</ele>
        <time>2015-06-18T12:35:03Z</time>
      </trkpt>
      <trkpt lat="41.78928" lon="9.26476">
        <ele>941.8</ele>
        <time>2015-06-18T12:35:09Z</time>
      </trkpt>
      <trkpt lat="41.7893" lon="9.2647">
        <ele>941.8</ele>
        <time>2015-06-18T12:35:15Z</time>
      </trkpt>
      <trkpt lat="41.7893" lon="9.26468">
        <ele>942</ele>
        <time>2015-06-18T12:35:17Z</time>
      </trkpt>
      <trkpt lat="41.7893" lon="9.26466">
        <ele>942.2</ele>
        <time>2015-06-18T12:35:19Z</time>
      </trkpt>
      <trkpt lat="41.78931" lon="9.26463">
        <ele>942</ele>
        <time>2015-06-18T12:35:21Z</time>
      </trkpt>
      <trkpt lat="41.78931" lon="9.26459">
        <ele>942</ele>
        <time>2015-06-18T12:35:24Z</time>
      </trkpt>
      <trkpt lat="41.78928" lon="9.26455">
        <ele>942</ele>
        <time>2015-06-18T12:35:29Z</time>
      </trkpt>
      <trkpt lat="41.78928" lon="9.26453">
        <ele>941.8</ele>
        <time>2015-06-18T12:35:31Z</time>
      </trkpt>
      <trkpt lat="41.7893" lon="9.26445">
        <ele>942</ele>
        <time>2015-06-18T12:35:39Z</time>
      </trkpt>
      <trkpt lat="41.78932" lon="9.26438">
        <ele>942</ele>
        <time>2015-06-18T12:35:44Z</time>
      </trkpt>
      <trkpt lat="41.7894" lon="9.26423">
        <ele>942.2</ele>
        <time>2015-06-18T12:36:01Z</time>
      </trkpt>
      <trkpt lat="41.78943" lon="9.26418">
        <ele>942.2</ele>
        <time>2015-06-18T12:36:06Z</time>
      </trkpt>
      <trkpt lat="41.78948" lon="9.26406">
        <ele>942.2</ele>
        <time>2015-06-18T12:36:15Z</time>
      </trkpt>
      <trkpt lat="41.78952" lon="9.26388">
        <ele>942.6</ele>
        <time>2015-06-18T12:36:31Z</time>
      </trkpt>
      <trkpt lat="41.78952" lon="9.26385">
        <ele>942.8</ele>
        <time>2015-06-18T12:36:33Z</time>
      </trkpt>
      <trkpt lat="41.78955" lon="9.26364">
        <ele>943</ele>
        <time>2015-06-18T12:36:51Z</time>
      </trkpt>
      <trkpt lat="41.78966" lon="9.26336">
        <ele>944</ele>
        <time>2015-06-18T12:37:18Z</time>
      </trkpt>
      <trkpt lat="41.78967" lon="9.26329">
        <ele>944</ele>
        <time>2015-06-18T12:37:23Z</time>
      </trkpt>
      <trkpt lat="41.78986" lon="9.26281">
        <ele>945.4</ele>
        <time>2015-06-18T12:37:54Z</time>
      </trkpt>
      <trkpt lat="41.78984" lon="9.26267">
        <ele>946.2</ele>
        <time>2015-06-18T12:38:06Z</time>
      </trkpt>
      <trkpt lat="41.78985" lon="9.26258">
        <ele>946.8</ele>
        <time>2015-06-18T12:38:14Z</time>
      </trkpt>
      <trkpt lat="41.78992" lon="9.26201">
        <ele>947.8</ele>
        <time>2015-06-18T12:38:59Z</time>
      </trkpt>
      <trkpt lat="41.7903" lon="9.2618">
        <ele>947.4</ele>
        <time>2015-06-18T12:39:48Z</time>
      </trkpt>
      <trkpt lat="41.79033" lon="9.2618">
        <ele>947.4</ele>
        <time>2015-06-18T12:39:50Z</time>
      </trkpt>
      <trkpt lat="41.79078" lon="9.26182">
        <ele>948.2</ele>
        <time>2015-06-18T12:40:29Z</time>
      </trkpt>
      <trkpt lat="41.7909" lon="9.26179">
        <ele>948.8</ele>
        <time>2015-06-18T12:40:41Z</time>
      </trkpt>
      <trkpt lat="41.791" lon="9.26173">
        <ele>949.6</ele>
        <time>2015-06-18T12:40:55Z</time>
      </trkpt>
      <trkpt lat="41.79107" lon="9.26158">
        <ele>951</ele>
        <time>2015-06-18T12:41:24Z</time>
      </trkpt>
      <trkpt lat="41.79113" lon="9.26152">
        <ele>951.2</ele>
        <time>2015-06-18T12:41:30Z</time>
      </trkpt>
      <trkpt lat="41.79117" lon="9.26141">
        <ele>951.8</ele>
        <time>2015-06-18T12:41:38Z</time>
      </trkpt>
      <trkpt lat="41.79124" lon="9.26137">
        <ele>952.8</ele>
        <time>2015-06-18T12:41:50Z</time>
      </trkpt>
      <trkpt lat="41.79131" lon="9.26135">
        <ele>953.6</ele>
        <time>2015-06-18T12:41:58Z</time>
      </trkpt>
      <trkpt lat="41.79134" lon="9.26135">
        <ele>954.2</ele>
        <time>2015-06-18T12:42:01Z</time>
      </trkpt>
      <trkpt lat="41.79138" lon="9.26134">
        <ele>954.4</ele>
        <time>2015-06-18T12:42:03Z</time>
      </trkpt>
      <trkpt lat="41.7914" lon="9.26135">
        <ele>954.6</ele>
        <time>2015-06-18T12:42:05Z</time>
      </trkpt>
      <trkpt lat="41.79143" lon="9.26139">
        <ele>955.8</ele>
        <time>2015-06-18T12:42:12Z</time>
      </trkpt>
      <trkpt lat="41.79148" lon="9.2614">
        <ele>957.2</ele>
        <time>2015-06-18T12:42:21Z</time>
      </trkpt>
      <trkpt lat="41.79151" lon="9.26139">
        <ele>957.8</ele>
        <time>2015-06-18T12:42:27Z</time>
      </trkpt>
      <trkpt lat="41.7916" lon="9.26131">
        <ele>959.2</ele>
        <time>2015-06-18T12:42:36Z</time>
      </trkpt>
      <trkpt lat="41.7916" lon="9.2613">
        <ele>959.4</ele>
        <time>2015-06-18T12:42:37Z</time>
      </trkpt>
      <trkpt lat="41.7916" lon="9.26129">
        <ele>959.4</ele>
        <time>2015-06-18T12:42:38Z</time>
      </trkpt>
      <trkpt lat="41.79164" lon="9.26125">
        <ele>960.6</ele>
        <time>2015-06-18T12:42:46Z</time>
      </trkpt>
      <trkpt lat="41.7917" lon="9.2612">
        <ele>961.4</ele>
        <time>2015-06-18T12:42:55Z</time>
      </trkpt>
      <trkpt lat="41.79171" lon="9.26119">
        <ele>961.4</ele>
        <time>2015-06-18T12:42:56Z</time>
      </trkpt>
      <trkpt lat="41.79175" lon="9.26116">
        <ele>962.6</ele>
        <time>2015-06-18T12:43:07Z</time>
      </trkpt>
      <trkpt lat="41.79179" lon="9.26117">
        <ele>963.6</ele>
        <time>2015-06-18T12:43:16Z</time>
      </trkpt>
      <trkpt lat="41.79181" lon="9.26118">
        <ele>964.6</ele>
        <time>2015-06-18T12:43:24Z</time>
      </trkpt>
      <trkpt lat="41.79184" lon="9.26122">
        <ele>965.6</ele>
        <time>2015-06-18T12:43:32Z</time>
      </trkpt>
      <trkpt lat="41.79188" lon="9.26122">
        <ele>966.8</ele>
        <time>2015-06-18T12:43:41Z</time>
      </trkpt>
      <trkpt lat="41.7919" lon="9.2612">
        <ele>967.8</ele>
        <time>2015-06-18T12:43:48Z</time>
      </trkpt>
      <trkpt lat="41.79194" lon="9.26116">
        <ele>968.8</ele>
        <time>2015-06-18T12:43:59Z</time>
      </trkpt>
      <trkpt lat="41.79197" lon="9.26113">
        <ele>970</ele>
        <time>2015-06-18T12:44:14Z</time>
      </trkpt>
      <trkpt lat="41.79199" lon="9.26108">
        <ele>971.4</ele>
        <time>2015-06-18T12:44:31Z</time>
      </trkpt>
      <trkpt lat="41.79203" lon="9.26103">
        <ele>971.8</ele>
        <time>2015-06-18T12:44:38Z</time>
      </trkpt>
      <trkpt lat="41.79204" lon="9.26102">
        <ele>972.4</ele>
        <time>2015-06-18T12:44:42Z</time>
      </trkpt>
      <trkpt lat="41.79205" lon="9.261">
        <ele>973.6</ele>
        <time>2015-06-18T12:44:55Z</time>
      </trkpt>
      <trkpt lat="41.79208" lon="9.26096">
        <ele>974.4</ele>
        <time>2015-06-18T12:45:03Z</time>
      </trkpt>
      <trkpt lat="41.79211" lon="9.26094">
        <ele>975.6</ele>
        <time>2015-06-18T12:45:13Z</time>
      </trkpt>
      <trkpt lat="41.79214" lon="9.2609">
        <ele>976.4</ele>
        <time>2015-06-18T12:45:23Z</time>
      </trkpt>
      <trkpt lat="41.79214" lon="9.2609">
        <ele>976.8</ele>
        <time>2015-06-18T12:45:25Z</time>
      </trkpt>
      <trkpt lat="41.79218" lon="9.26087">
        <ele>977.8</ele>
        <time>2015-06-18T12:45:35Z</time>
      </trkpt>
      <trkpt lat="41.79227" lon="9.26079">
        <ele>978.8</ele>
        <time>2015-06-18T12:45:48Z</time>
      </trkpt>
      <trkpt lat="41.79227" lon="9.26079">
        <ele>979</ele>
        <time>2015-06-18T12:45:49Z</time>
      </trkpt>
      <trkpt lat="41.7923" lon="9.26077">
        <ele>979</ele>
        <time>2015-06-18T12:45:51Z</time>
      </trkpt>
      <trkpt lat="41.79234" lon="9.26073">
        <ele>980</ele>
        <time>2015-06-18T12:46:00Z</time>
      </trkpt>
      <trkpt lat="41.79241" lon="9.26069">
        <ele>981.2</ele>
        <time>2015-06-18T12:46:12Z</time>
      </trkpt>
      <trkpt lat="41.79248" lon="9.26068">
        <ele>982</ele>
        <time>2015-06-18T12:46:21Z</time>
      </trkpt>
      <trkpt lat="41.7925" lon="9.26071">
        <ele>982.8</ele>
        <time>2015-06-18T12:46:28Z</time>
      </trkpt>
      <trkpt lat="41.79253" lon="9.26071">
        <ele>984</ele>
        <time>2015-06-18T12:46:36Z</time>
      </trkpt>
      <trkpt lat="41.79255" lon="9.2607">
        <ele>984.6</ele>
        <time>2015-06-18T12:46:40Z</time>
      </trkpt>
      <trkpt lat="41.79258" lon="9.26069">
        <ele>986.6</ele>
        <time>2015-06-18T12:46:52Z</time>
      </trkpt>
      <trkpt lat="41.79262" lon="9.26065">
        <ele>987.6</ele>
        <time>2015-06-18T12:47:01Z</time>
      </trkpt>
      <trkpt lat="41.79267" lon="9.26061">
        <ele>988.8</ele>
        <time>2015-06-18T12:47:12Z</time>
      </trkpt>
      <trkpt lat="41.79271" lon="9.26059">
        <ele>989.8</ele>
        <time>2015-06-18T12:47:22Z</time>
      </trkpt>
      <trkpt lat="41.79274" lon="9.26058">
        <ele>990.6</ele>
        <time>2015-06-18T12:47:30Z</time>
      </trkpt>
      <trkpt lat="41.79279" lon="9.26055">
        <ele>991.6</ele>
        <time>2015-06-18T12:47:37Z</time>
      </trkpt>
      <trkpt lat="41.79283" lon="9.2605">
        <ele>992.6</ele>
        <time>2015-06-18T12:47:45Z</time>
      </trkpt>
      <trkpt lat="41.79286" lon="9.26049">
        <ele>994</ele>
        <time>2015-06-18T12:47:53Z</time>
      </trkpt>
      <trkpt lat="41.79288" lon="9.26051">
        <ele>994.8</ele>
        <time>2015-06-18T12:48:02Z</time>
      </trkpt>
      <trkpt lat="41.79289" lon="9.26048">
        <ele>996</ele>
        <time>2015-06-18T12:48:10Z</time>
      </trkpt>
      <trkpt lat="41.79294" lon="9.26044">
        <ele>997.2</ele>
        <time>2015-06-18T12:48:22Z</time>
      </trkpt>
      <trkpt lat="41.79296" lon="9.26041">
        <ele>998</ele>
        <time>2015-06-18T12:48:29Z</time>
      </trkpt>
      <trkpt lat="41.793" lon="9.26032">
        <ele>999.2</ele>
        <time>2015-06-18T12:48:40Z</time>
      </trkpt>
      <trkpt lat="41.79303" lon="9.26024">
        <ele>1000.2</ele>
        <time>2015-06-18T12:48:51Z</time>
      </trkpt>
      <trkpt lat="41.79306" lon="9.26017">
        <ele>1001.2</ele>
        <time>2015-06-18T12:49:02Z</time>
      </trkpt>
      <trkpt lat="41.7931" lon="9.26017">
        <ele>1002.2</ele>
        <time>2015-06-18T12:49:11Z</time>
      </trkpt>
      <trkpt lat="41.79314" lon="9.26014">
        <ele>1004</ele>
        <time>2015-06-18T12:49:23Z</time>
      </trkpt>
      <trkpt lat="41.79316" lon="9.26016">
        <ele>1004.4</ele>
        <time>2015-06-18T12:49:30Z</time>
      </trkpt>
      <trkpt lat="41.79319" lon="9.26019">
        <ele>1005.4</ele>
        <time>2015-06-18T12:49:37Z</time>
      </trkpt>
      <trkpt lat="41.79323" lon="9.26022">
        <ele>1006.6</ele>
        <time>2015-06-18T12:49:45Z</time>
      </trkpt>
      <trkpt lat="41.79328" lon="9.26018">
        <ele>1007.4</ele>
        <time>2015-06-18T12:49:51Z</time>
      </trkpt>
      <trkpt lat="41.79328" lon="9.26017">
        <ele>1007.6</ele>
        <time>2015-06-18T12:49:53Z</time>
      </trkpt>
      <trkpt lat="41.79329" lon="9.26013">
        <ele>1008.8</ele>
        <time>2015-06-18T12:50:02Z</time>
      </trkpt>
      <trkpt lat="41.79328" lon="9.26012">
        <ele>1009.8</ele>
        <time>2015-06-18T12:50:10Z</time>
      </trkpt>
      <trkpt lat="41.79328" lon="9.26013">
        <ele>1010</ele>
        <time>2015-06-18T12:50:12Z</time>
      </trkpt>
      <trkpt lat="41.79329" lon="9.26011">
        <ele>1011</ele>
        <time>2015-06-18T12:50:20Z</time>
      </trkpt>
      <trkpt lat="41.79332" lon="9.26011">
        <ele>1012</ele>
        <time>2015-06-18T12:50:28Z</time>
      </trkpt>
      <trkpt lat="41.79335" lon="9.26012">
        <ele>1013</ele>
        <time>2015-06-18T12:50:35Z</time>
      </trkpt>
      <trkpt lat="41.79339" lon="9.26012">
        <ele>1014.2</ele>
        <time>2015-06-18T12:50:44Z</time>
      </trkpt>
      <trkpt lat="41.79339" lon="9.2601">
        <ele>1015.2</ele>
        <time>2015-06-18T12:50:51Z</time>
      </trkpt>
      <trkpt lat="41.79342" lon="9.2601">
        <ele>1016.4</ele>
        <time>2015-06-18T12:51:03Z</time>
      </trkpt>
      <trkpt lat="41.79348" lon="9.2601">
        <ele>1017.4</ele>
        <time>2015-06-18T12:51:13Z</time>
      </trkpt>
      <trkpt lat="41.79351" lon="9.26012">
        <ele>1018.8</ele>
        <time>2015-06-18T12:51:20Z</time>
      </trkpt>
      <trkpt lat="41.79354" lon="9.26014">
        <ele>1019.6</ele>
        <time>2015-06-18T12:51:28Z</time>
      </trkpt>
      <trkpt lat="41.79357" lon="9.2602">
        <ele>1021</ele>
        <time>2015-06-18T12:51:37Z</time>
      </trkpt>
      <trkpt lat="41.79361" lon="9.26025">
        <ele>1022.2</ele>
        <time>2015-06-18T12:51:47Z</time>
      </trkpt>
      <trkpt lat="41.79362" lon="9.26033">
        <ele>1023</ele>
        <time>2015-06-18T12:51:59Z</time>
      </trkpt>
      <trkpt lat="41.79363" lon="9.2604">
        <ele>1024.2</ele>
        <time>2015-06-18T12:52:09Z</time>
      </trkpt>
      <trkpt lat="41.79366" lon="9.26047">
        <ele>1025.6</ele>
        <time>2015-06-18T12:52:21Z</time>
      </trkpt>
      <trkpt lat="41.79368" lon="9.2605">
        <ele>1026.2</ele>
        <time>2015-06-18T12:52:29Z</time>
      </trkpt>
      <trkpt lat="41.79373" lon="9.2605">
        <ele>1027.4</ele>
        <time>2015-06-18T12:52:36Z</time>
      </trkpt>
      <trkpt lat="41.7938" lon="9.26048">
        <ele>1029</ele>
        <time>2015-06-18T12:52:50Z</time>
      </trkpt>
      <trkpt lat="41.79387" lon="9.26039">
        <ele>1030.2</ele>
        <time>2015-06-18T12:53:08Z</time>
      </trkpt>
      <trkpt lat="41.7939" lon="9.26037">
        <ele>1031</ele>
        <time>2015-06-18T12:53:16Z</time>
      </trkpt>
      <trkpt lat="41.79395" lon="9.26032">
        <ele>1032</ele>
        <time>2015-06-18T12:53:27Z</time>
      </trkpt>
      <trkpt lat="41.79405" lon="9.26026">
        <ele>1033.2</ele>
        <time>2015-06-18T12:53:40Z</time>
      </trkpt>
      <trkpt lat="41.79408" lon="9.26017">
        <ele>1034.2</ele>
        <time>2015-06-18T12:53:49Z</time>
      </trkpt>
      <trkpt lat="41.79409" lon="9.26012">
        <ele>1035</ele>
        <time>2015-06-18T12:53:56Z</time>
      </trkpt>
      <trkpt lat="41.79413" lon="9.26008">
        <ele>1035.8</ele>
        <time>2015-06-18T12:54:02Z</time>
      </trkpt>
      <trkpt lat="41.79418" lon="9.26004">
        <ele>1037.2</ele>
        <time>2015-06-18T12:54:10Z</time>
      </trkpt>
      <trkpt lat="41.79418" lon="9.26002">
        <ele>1037.2</ele>
        <time>2015-06-18T12:54:11Z</time>
      </trkpt>
      <trkpt lat="41.79416" lon="9.26001">
        <ele>1037.4</ele>
        <time>2015-06-18T12:54:13Z</time>
      </trkpt>
      <trkpt lat="41.79417" lon="9.25993">
        <ele>1038.2</ele>
        <time>2015-06-18T12:54:22Z</time>
      </trkpt>
      <trkpt lat="41.79417" lon="9.25982">
        <ele>1038.2</ele>
        <time>2015-06-18T12:54:34Z</time>
      </trkpt>
      <trkpt lat="41.79412" lon="9.25975">
        <ele>1037.6</ele>
        <time>2015-06-18T12:54:42Z</time>
      </trkpt>
      <trkpt lat="41.79411" lon="9.25973">
        <ele>1037.4</ele>
        <time>2015-06-18T12:54:44Z</time>
      </trkpt>
      <trkpt lat="41.79408" lon="9.25965">
        <ele>1036.8</ele>
        <time>2015-06-18T12:54:50Z</time>
      </trkpt>
      <trkpt lat="41.79408" lon="9.25964">
        <ele>1035.8</ele>
        <time>2015-06-18T12:54:51Z</time>
      </trkpt>
    </trkseg>
  </trk>
</gpx>